GFSSW_850_thetae_000.txt.gz
Theta_e
320 320 320 321 322 323 323 323 323 323 323 324 324 323 323 324 323 321 321 324 325 324 323 327 333 337 339 342 344 347 345 341 341 343 344 343 343 342 341 344 345 347 346 348 348
320 319 320 320 321 322 323 323 323 324 326 325 325 324 323 323 323 323 321 323 324 322 323 329 332 334 338 341 339 339 338 340 339 341 344 341 344 345 346 346 346 343 347 348 348
319 319 319 319 319 321 322 323 323 325 327 321 322 324 322 322 323 324 324 323 323 322 324 330 332 335 339 339 337 337 337 337 341 341 344 342 347 346 348 348 346 346 348 348 348
319 319 319 319 319 320 322 322 322 325 325 315 317 320 321 321 330 326 324 323 321 321 325 332 331 335 340 336 336 337 340 339 338 341 341 340 343 343 341 346 349 346 347 348 348
318 318 318 318 319 319 321 322 322 324 326 316 317 315 318 322 325 328 324 323 321 321 327 331 330 337 338 335 334 339 340 338 341 341 339 341 345 349 342 348 346 345 347 347 347
316 316 317 318 318 319 320 322 322 324 327 319 320 314 316 327 326 326 322 321 323 323 329 329 331 337 336 335 335 338 339 338 339 337 340 342 345 346 349 348 346 346 347 347 347
313 314 315 316 317 319 319 321 321 324 327 322 320 313 326 324 327 328 326 320 324 326 328 328 332 336 334 334 338 338 339 339 338 340 341 339 346 349 348 349 349 349 348 348 347
310 312 314 314 316 318 319 321 321 324 327 323 320 315 329 328 327 329 326 323 323 325 327 328 335 333 333 334 336 338 340 339 341 341 338 342 350 350 348 350 351 350 350 350 350
309 310 311 313 314 317 319 320 322 324 327 325 321 332 333 326 326 330 327 324 323 326 327 329 335 332 333 334 339 338 341 341 343 340 340 341 347 348 348 348 348 350 350 351 351
308 309 310 311 312 316 320 320 322 329 327 323 323 331 333 333 326 329 328 324 326 326 327 333 334 333 333 335 339 339 341 343 344 342 342 343 345 346 345 346 347 348 348 349 349
307 308 309 310 311 314 320 320 331 337 333 332 330 328 330 331 328 326 327 324 325 326 331 334 333 332 333 335 337 339 339 342 341 344 345 344 343 345 343 344 347 348 347 347 346
306 307 308 310 311 313 317 318 328 327 330 329 331 331 330 328 328 325 325 326 326 329 331 333 332 333 334 335 335 336 337 338 340 340 342 345 346 345 343 343 345 347 347 346 347
306 307 308 310 311 317 326 325 325 326 329 328 328 328 330 329 328 326 326 326 327 330 331 332 332 333 333 333 333 334 334 335 339 340 339 341 347 344 344 343 343 344 346 346 345
306 306 307 309 312 321 322 325 327 326 330 329 329 328 329 329 329 326 326 327 328 330 331 331 332 333 333 332 332 332 333 333 334 337 338 340 342 347 345 344 344 343 344 345 344
306 306 307 306 309 312 319 320 322 327 331 330 329 328 328 330 328 327 326 326 329 330 330 330 331 332 332 333 333 332 333 332 333 333 334 336 340 347 346 345 343 343 342 343 344
306 306 307 307 311 315 317 320 322 332 329 330 330 329 330 329 328 328 327 326 328 330 330 330 330 331 331 332 332 332 335 334 333 333 336 336 340 345 348 351 343 341 342 342 343
305 306 306 307 311 315 318 320 328 333 329 329 329 330 330 330 328 329 328 327 328 330 329 330 331 332 332 332 333 333 335 337 337 337 337 336 338 345 344 344 346 345 342 342 343
306 307 308 309 311 311 313 322 330 332 331 330 330 330 329 330 328 329 328 327 329 329 329 330 330 332 332 332 333 333 334 336 341 338 337 338 340 344 338 341 346 345 346 342 341
306 308 313 315 314 312 318 326 329 329 332 329 331 329 329 330 328 329 328 327 329 330 332 331 333 333 332 333 334 334 335 334 336 335 335 336 337 336 336 336 334 337 335 343 342
305 307 311 316 318 317 319 323 326 327 329 332 332 331 329 329 328 330 328 329 329 330 332 333 335 333 332 333 333 334 334 334 334 338 339 336 335 337 342 337 336 334 335 337 344
309 320 319 317 322 318 320 324 326 325 328 332 333 333 329 329 329 330 330 329 329 331 332 333 335 334 333 332 332 333 334 333 333 334 336 337 338 340 343 338 335 335 335 335 337
313 318 320 321 324 321 321 324 325 326 329 331 331 332 333 333 330 329 330 331 330 331 331 333 333 335 334 334 333 333 334 335 337 339 338 339 336 337 336 335 334 334 334 336 339
314 317 319 322 323 323 323 325 326 326 329 330 329 330 332 334 333 330 330 331 332 332 334 333 334 334 335 334 333 333 334 333 334 335 342 338 337 339 335 335 335 335 336 338 339
315 320 318 321 321 324 324 326 326 325 328 330 330 330 330 332 333 332 330 331 331 332 330 333 332 335 332 335 335 334 332 332 333 338 338 337 339 338 338 339 340 337 337 337 341
317 320 323 326 322 323 324 327 330 327 328 329 330 330 331 333 332 332 331 331 331 330 332 332 338 332 331 331 332 333 333 332 332 335 336 338 340 340 340 339 336 336 334 334 337
317 315 317 319 323 329 323 328 331 330 328 330 329 329 330 332 336 339 338 337 333 331 331 331 335 332 332 332 331 331 332 334 333 332 332 334 338 338 338 335 334 334 333 333 333
313 311 314 319 323 325 328 329 330 330 329 329 330 332 332 334 335 335 334 334 336 336 335 337 333 337 335 333 333 334 333 332 333 335 334 337 340 340 339 335 334 333 334 334 334

GFSSW_850_thetae_003.txt.gz
Theta_e
320 321 321 320 320 321 322 323 323 323 324 325 324 323 323 323 323 323 321 320 323 323 324 323 326 332 335 340 341 342 345 344 346 344 341 339 339 341 342 345 347 347 350 349 353
320 320 321 321 320 320 321 322 323 323 324 326 321 319 323 323 322 322 320 320 322 323 323 323 328 332 333 336 339 344 346 340 342 342 344 345 346 346 344 346 347 348 349 349 349
319 319 320 320 320 320 320 321 322 323 323 326 316 316 320 322 321 321 322 320 321 323 323 324 328 330 333 335 337 344 343 341 340 342 343 344 347 346 348 344 347 349 348 347 351
317 318 318 319 320 320 320 320 321 322 322 326 320 318 316 319 326 325 326 322 322 322 322 324 330 332 330 333 336 338 338 342 343 344 343 344 343 339 347 345 348 348 348 347 348
316 317 317 317 318 319 320 320 320 321 321 326 325 319 315 318 320 325 326 323 321 321 321 326 331 332 330 335 334 336 336 340 339 341 344 345 343 341 340 347 348 348 348 348 349
313 315 316 316 317 318 319 320 320 320 320 326 325 319 313 322 323 323 326 324 322 320 321 327 331 330 331 334 332 337 337 339 339 340 344 345 341 345 342 345 347 347 348 348 348
311 312 314 315 316 317 319 320 320 320 320 325 324 318 313 316 326 326 327 323 321 321 323 329 331 330 330 332 338 338 336 336 338 340 344 344 347 349 346 345 346 347 347 348 347
309 310 311 313 314 316 319 320 321 321 320 324 324 318 316 327 325 327 327 321 321 325 326 329 329 329 331 333 336 336 335 334 336 337 342 345 350 348 347 346 346 347 347 347 347
308 309 310 311 313 315 319 320 321 321 323 326 323 325 334 329 327 328 328 325 321 325 326 327 327 329 334 330 331 334 336 338 339 335 336 342 350 347 348 349 349 349 349 348 348
307 308 309 310 311 313 318 320 321 324 330 325 323 329 326 333 327 327 329 326 323 323 324 326 329 331 328 327 330 335 336 340 340 336 335 341 347 347 348 350 350 351 351 352 351
306 308 308 310 311 311 317 320 323 332 329 332 330 324 328 331 331 326 328 327 323 324 323 327 330 330 329 328 329 335 336 341 341 338 338 341 348 347 347 347 347 350 350 350 351
306 307 308 310 311 311 314 318 322 325 325 325 328 332 332 331 331 327 328 327 324 324 324 326 331 332 332 331 332 332 340 341 341 340 339 339 345 344 343 345 347 348 348 350 350
306 307 308 310 311 313 320 323 322 325 325 327 327 329 328 330 329 327 327 326 323 323 324 326 332 333 332 330 332 331 332 339 342 342 341 342 343 344 342 342 345 348 348 348 347
305 306 307 309 311 315 319 317 321 322 323 326 327 328 327 329 328 327 325 325 325 324 325 328 330 331 330 330 331 329 331 332 339 343 342 341 346 343 340 339 343 347 347 347 349
305 305 306 305 308 312 313 316 320 323 332 330 328 327 327 328 329 327 325 325 324 325 325 329 329 330 330 330 331 329 330 331 330 336 334 338 335 343 339 339 341 343 347 347 347
304 305 305 306 308 313 317 318 322 324 334 330 327 327 327 328 329 328 325 325 326 326 326 328 330 328 329 331 331 332 330 329 328 327 329 332 335 345 342 341 341 342 344 345 346
304 305 305 306 310 311 311 317 325 327 328 329 326 327 326 327 329 328 325 324 323 322 325 328 328 328 329 328 329 330 327 332 331 330 330 329 330 342 342 341 339 339 341 343 345
304 306 307 309 310 309 312 317 326 328 327 328 327 327 327 328 328 328 325 324 324 323 325 327 326 327 329 326 326 327 326 333 338 335 334 332 335 337 343 342 340 341 339 341 344
304 306 308 312 312 312 316 319 324 326 327 327 329 330 327 329 328 326 326 325 324 324 323 326 327 329 329 331 329 329 331 330 331 333 332 333 337 339 342 341 341 343 341 339 342
304 307 311 312 313 314 318 318 323 324 325 325 325 327 331 328 328 325 326 327 326 326 325 326 328 328 330 329 329 329 331 330 327 333 336 333 340 337 336 337 340 341 339 340 339
306 317 317 314 316 318 316 317 321 322 323 324 325 326 331 332 328 325 326 327 327 326 326 326 325 330 329 328 329 331 330 330 329 329 330 333 336 340 338 335 332 331 335 340 341
311 315 318 316 322 321 317 318 319 322 323 325 325 327 330 332 332 327 325 327 328 326 325 327 327 330 330 330 330 329 328 332 331 334 333 333 337 335 335 333 335 337 336 336 337
310 313 316 321 323 322 322 320 320 321 323 324 325 328 329 329 331 331 333 329 329 327 325 327 328 329 334 329 329 329 329 329 331 329 332 337 335 336 333 332 335 335 336 335 336
312 319 319 316 321 322 322 323 323 323 324 325 325 329 330 329 328 330 332 332 330 328 329 330 327 331 329 333 330 330 331 330 327 328 329 333 336 335 336 339 337 337 336 337 337
314 318 317 320 320 318 322 325 322 324 326 328 325 329 329 329 330 330 331 335 334 330 333 329 331 331 329 330 330 333 332 330 329 328 331 332 339 334 334 335 336 336 335 336 340
317 314 312 312 316 320 323 325 326 324 328 331 328 329 328 330 334 337 336 337 337 331 331 328 334 332 333 332 330 330 331 332 332 330 329 329 331 335 335 336 336 335 334 334 335
312 314 311 312 314 316 321 320 326 323 327 329 328 330 330 333 332 332 332 333 331 334 332 331 333 331 330 332 332 332 333 332 331 331 330 330 333 336 336 337 336 334 334 334 333

GFSSW_850_thetae_006.txt.gz
Theta_e
319 319 320 320 320 320 320 320 321 322 322 323 325 322 317 320 322 322 321 321 320 321 322 323 323 324 331 336 341 343 342 343 344 341 341 338 342 347 348 353 349 350 349 352 353
319 319 319 319 320 320 320 320 321 322 322 322 325 325 316 317 320 321 320 320 320 322 323 324 323 325 329 332 337 341 342 342 341 340 341 339 341 344 348 350 349 349 350 353 354
318 318 319 319 319 319 320 320 320 321 322 322 325 326 318 316 319 320 325 320 320 321 323 323 323 324 327 329 332 339 342 341 341 343 345 346 347 346 347 349 349 349 350 354 354
316 317 318 318 318 319 319 320 320 320 321 321 324 326 320 318 316 326 325 322 320 322 323 322 322 327 328 329 331 341 340 341 340 345 345 345 344 339 346 348 348 349 350 354 354
313 314 316 316 317 317 318 319 319 320 321 321 322 325 321 318 319 324 324 323 320 322 322 322 323 329 329 329 331 338 340 341 343 342 343 342 339 343 347 348 347 348 349 351 352
310 311 312 314 315 317 318 318 319 320 319 321 321 324 318 316 320 322 324 325 322 321 322 321 325 331 330 327 329 339 341 343 343 344 343 339 339 341 348 348 347 347 347 350 351
308 309 310 311 313 315 317 318 318 319 320 319 321 324 318 322 321 324 325 325 323 321 321 321 324 327 329 325 332 339 341 340 342 344 344 347 348 346 346 348 348 347 347 347 348
308 308 309 310 311 313 316 318 319 319 320 320 322 323 320 323 321 327 327 324 322 322 321 322 325 327 327 328 330 333 332 335 337 343 345 345 351 344 347 347 347 348 347 348 348
307 308 309 310 310 312 315 317 320 320 321 327 324 322 323 326 327 327 328 325 320 321 323 325 325 326 327 328 325 328 332 338 337 338 342 344 349 345 345 346 346 347 347 348 347
307 307 308 310 310 311 314 316 320 322 330 327 322 325 323 326 329 327 327 327 323 322 324 323 324 326 324 324 327 331 335 337 337 335 340 346 347 346 345 345 346 346 346 347 347
306 307 308 309 310 310 314 316 320 325 324 325 326 327 327 328 330 327 328 327 326 322 319 323 322 323 327 326 327 330 336 338 337 334 346 347 348 348 346 347 347 347 347 347 347
305 306 308 310 310 311 312 313 320 319 319 322 324 325 325 325 330 331 327 326 324 319 320 321 323 325 329 330 329 328 334 338 339 335 335 347 349 347 347 348 348 348 350 348 349
305 306 306 309 310 312 313 318 317 318 320 322 323 325 324 326 328 329 326 325 321 320 321 320 323 329 331 331 331 328 336 337 339 339 338 345 347 346 347 347 347 348 350 351 351
304 305 306 308 311 311 312 316 315 321 319 322 323 324 324 326 326 328 329 327 321 320 321 321 324 327 331 331 330 325 329 337 340 341 341 339 348 342 344 343 341 346 348 350 350
304 304 305 305 308 310 310 314 317 322 328 326 327 326 323 327 327 327 328 326 322 321 320 322 325 325 327 330 328 327 327 328 340 339 336 342 341 345 337 337 336 342 346 348 349
303 304 305 306 308 310 313 316 320 320 328 329 326 324 325 325 326 326 325 326 325 322 322 322 326 326 327 329 327 328 329 324 326 326 333 338 336 337 341 340 338 337 346 346 347
303 304 304 305 309 309 309 311 319 323 324 327 323 324 323 324 325 326 322 320 321 320 321 323 324 325 327 325 325 327 322 323 325 325 325 322 339 337 339 339 336 337 346 346 346
303 305 307 307 309 308 308 312 322 324 322 323 323 324 324 324 324 326 322 321 319 320 319 321 323 325 325 324 324 323 322 323 328 331 328 325 328 329 338 339 337 338 344 346 346
303 306 307 311 309 308 316 312 317 320 324 324 323 323 325 325 326 325 322 322 322 318 321 320 322 325 325 326 323 325 325 324 327 328 329 328 331 336 337 338 337 337 340 344 345
303 305 309 315 309 310 312 311 315 320 321 321 322 323 323 323 324 325 324 322 323 321 318 319 321 323 326 325 325 325 324 327 322 329 331 329 333 334 341 339 338 337 336 339 343
304 308 310 316 313 315 309 310 314 316 317 320 321 321 322 322 323 324 325 324 324 323 318 320 321 323 325 324 324 328 327 324 323 324 327 328 329 330 339 338 339 338 339 338 341
304 307 316 313 316 314 313 314 315 314 316 317 320 321 322 324 324 326 325 324 325 324 322 319 318 322 323 324 324 325 325 324 325 327 325 325 330 333 333 333 338 339 341 342 339
304 308 310 316 316 316 316 318 317 316 314 317 319 321 322 323 325 327 328 329 327 325 324 322 318 323 323 323 325 327 326 326 322 322 326 329 331 331 329 330 333 334 340 341 340
307 310 317 316 315 317 315 318 320 322 320 321 320 321 323 324 325 326 326 327 329 325 327 325 318 321 324 324 325 326 326 326 325 325 325 328 331 332 332 331 331 333 335 338 338
309 313 311 311 312 308 312 318 322 323 324 323 320 326 326 324 325 329 333 332 331 330 330 321 321 323 323 326 328 328 328 326 326 325 328 326 330 329 332 332 332 335 335 335 338
313 313 313 310 309 312 312 319 318 318 322 323 327 327 326 325 332 333 330 330 330 328 326 319 322 323 326 327 327 327 329 328 329 328 329 327 332 329 333 335 334 336 336 337 337
306 310 312 310 309 312 313 315 315 315 322 326 326 326 328 326 326 327 329 328 328 328 327 322 322 323 325 327 328 330 330 329 331 334 329 327 326 330 332 331 332 333 333 334 333

GFSSW_850_thetae_009.txt.gz
Theta_e
318 318 318 318 319 319 319 319 319 319 320 321 321 324 324 320 318 320 321 321 321 320 320 321 323 324 325 334 340 343 337 340 342 339 339 346 347 352 351 351 347 349 346 346 349
317 317 317 318 318 318 319 319 319 319 320 320 320 322 325 322 318 318 320 319 320 320 321 322 324 323 328 333 341 340 337 340 339 337 338 342 347 349 351 350 350 350 346 348 349
314 315 316 317 317 317 318 318 319 319 319 320 320 320 324 323 319 319 323 321 320 320 321 323 323 323 326 328 334 340 341 339 340 340 338 341 344 346 350 349 349 350 349 350 349
311 312 313 314 315 316 316 317 318 319 319 319 320 320 323 323 317 324 325 324 320 320 320 323 323 323 326 327 329 334 339 340 340 343 340 341 345 348 347 348 347 348 351 352 352
309 310 310 311 313 315 316 317 317 318 319 319 319 319 321 319 320 320 321 321 320 320 321 324 323 328 329 327 328 330 336 339 341 344 343 343 342 345 345 348 349 351 352 353 353
308 309 310 310 311 312 315 316 316 318 319 319 319 318 320 316 321 320 322 323 320 320 323 324 322 326 329 326 326 336 339 341 342 342 340 342 345 346 348 348 349 352 353 353 353
307 308 309 310 311 311 313 315 315 317 319 320 320 319 320 324 321 321 323 324 324 321 322 322 322 325 327 325 327 340 341 341 341 341 338 343 344 348 347 348 348 352 353 353 352
307 307 309 310 310 311 313 314 315 318 319 320 321 323 323 325 321 322 325 325 324 323 322 321 320 323 326 327 337 338 335 344 341 342 343 344 350 347 347 347 347 348 350 352 352
307 308 309 310 310 311 313 313 316 318 319 325 324 323 325 324 325 324 326 327 323 322 323 322 323 324 325 324 327 329 343 339 342 340 343 344 347 346 347 346 346 347 347 348 350
306 307 308 309 310 311 313 314 315 319 329 326 322 324 324 324 328 328 327 327 324 320 322 321 321 320 321 323 327 339 335 342 344 344 341 345 346 346 347 346 346 346 347 347 347
306 306 307 308 309 311 313 313 319 322 318 320 322 323 324 325 325 327 329 327 326 320 318 320 319 320 320 325 325 329 333 342 341 337 345 345 346 345 346 345 345 346 347 347 347
305 306 306 308 308 310 311 313 316 314 314 319 321 322 324 324 326 328 329 326 321 318 317 318 319 320 322 326 326 327 331 336 336 340 343 345 347 344 343 344 345 345 345 346 347
304 305 306 307 308 310 312 311 313 313 315 320 322 322 322 324 325 326 327 328 322 318 317 317 319 322 327 329 330 326 328 331 337 337 344 346 348 347 345 345 344 345 345 345 346
303 304 305 307 309 309 311 311 313 315 317 320 321 322 322 324 325 326 327 328 321 321 318 319 320 323 328 329 329 329 327 331 336 337 344 344 350 343 345 346 345 347 347 347 346
303 303 304 304 305 308 309 311 316 320 324 322 324 325 323 324 325 324 327 327 322 320 318 319 322 322 325 328 328 329 326 326 333 336 339 341 342 343 342 344 345 345 345 348 348
303 303 303 304 305 308 311 310 318 318 323 325 326 324 324 324 325 325 326 327 326 320 320 319 322 323 323 325 327 328 326 321 324 329 339 342 338 337 345 346 345 343 344 348 349
303 304 303 303 306 307 308 309 316 319 320 324 322 321 322 322 323 324 321 320 320 320 319 321 321 322 326 326 325 323 321 322 329 335 338 330 337 336 338 343 343 342 341 346 348
303 304 306 306 306 306 306 310 319 319 320 320 321 321 323 324 324 324 319 321 318 318 318 318 320 321 323 323 324 321 320 322 324 327 331 325 340 339 335 338 341 341 341 344 346
303 305 306 308 308 307 310 310 315 318 322 323 320 322 321 322 322 323 320 320 321 316 319 317 318 321 323 323 323 323 321 320 321 324 325 324 327 328 334 334 338 338 337 342 345
302 304 307 313 311 307 309 308 311 316 319 320 321 321 322 321 320 321 323 322 321 317 317 317 320 320 322 323 322 323 321 324 320 326 329 326 329 329 334 335 336 335 335 340 344
303 304 308 315 309 311 306 307 310 313 313 317 320 320 320 320 320 321 320 322 322 321 318 315 317 319 322 321 322 325 322 321 320 321 324 326 327 325 331 334 335 335 337 339 343
303 300 313 310 312 308 309 309 313 312 314 314 316 317 318 320 320 320 321 323 325 323 319 316 316 320 319 320 322 321 322 322 324 323 321 323 326 327 329 333 335 335 336 338 341
305 305 308 313 313 313 313 316 316 317 316 313 313 316 319 319 320 321 322 325 327 323 321 316 314 317 319 320 322 323 322 321 319 320 325 328 328 328 329 331 336 336 337 338 340
305 306 313 313 311 311 311 314 317 320 320 321 317 319 321 321 323 322 324 326 327 322 324 321 313 319 322 321 321 325 324 323 323 323 323 325 328 332 329 331 330 336 337 339 339
308 310 309 309 310 307 309 313 317 319 319 321 319 319 325 324 326 326 325 329 330 329 331 318 320 316 320 321 322 324 325 325 325 324 328 326 327 329 329 329 331 337 337 337 339
310 309 310 311 308 308 310 314 315 315 315 318 319 322 324 323 325 330 330 327 329 327 327 317 319 320 321 321 322 323 324 325 326 323 326 324 327 325 329 330 330 334 335 335 336
305 305 308 311 309 310 312 312 314 313 314 315 321 324 325 324 325 326 325 325 326 328 326 318 320 317 323 322 324 326 325 325 328 328 327 327 325 327 330 330 330 332 333 334 336

GFSSW_850_thetae_012.txt.gz
Theta_e
316 316 316 316 316 317 317 318 317 318 319 319 320 321 321 323 323 321 320 320 320 320 326 322 322 329 338 338 340 342 334 338 339 341 341 346 351 351 351 350 348 348 347 347 347
313 314 315 316 316 316 316 317 317 317 318 319 319 321 321 322 323 321 320 319 319 320 320 321 320 322 326 330 340 337 336 338 336 335 342 345 350 351 350 349 349 349 346 347 347
309 310 312 314 315 315 315 316 317 317 317 319 319 319 321 321 322 319 323 321 319 319 320 321 323 323 326 330 337 338 339 337 339 337 345 345 348 349 348 348 349 348 346 348 349
308 309 309 311 313 314 315 316 316 317 317 317 318 319 320 320 319 321 322 322 321 320 320 322 323 322 325 325 328 336 338 339 339 340 344 342 346 349 345 345 347 347 343 347 347
308 308 308 308 310 311 313 314 316 317 317 318 318 318 318 319 321 321 319 320 321 321 319 321 323 324 326 326 327 329 328 337 340 340 341 343 345 347 345 347 347 346 345 347 347
308 308 309 309 309 310 311 313 314 316 318 318 318 317 316 317 322 320 321 321 321 320 320 322 323 325 328 327 325 327 334 339 341 340 341 342 344 347 346 347 348 345 347 347 346
308 308 309 310 310 310 311 312 313 316 318 319 319 318 317 321 323 324 322 324 323 319 320 322 323 326 327 326 327 338 339 339 339 338 341 343 344 345 347 347 350 351 350 349 350
307 308 308 309 309 310 311 312 313 315 317 319 320 321 321 325 327 323 321 323 323 320 321 322 323 322 325 326 336 337 337 342 340 339 341 341 345 346 348 348 351 352 352 351 351
306 307 308 309 309 310 311 312 313 314 317 322 324 323 325 326 324 327 323 324 324 323 322 322 320 323 324 326 334 332 341 340 344 340 341 343 345 346 347 347 350 352 352 352 351
306 306 307 308 309 310 311 312 313 317 325 327 325 325 325 325 326 325 328 326 323 321 322 322 320 319 319 329 339 337 340 339 345 340 343 344 344 346 346 346 347 349 350 351 352
305 306 307 307 308 309 311 313 317 319 317 321 321 322 325 324 325 326 327 325 324 320 316 318 318 318 321 323 332 331 339 341 341 339 342 344 344 347 346 345 345 345 346 348 349
304 305 306 307 308 308 310 309 314 312 309 317 319 318 320 321 323 325 325 326 323 317 316 317 317 318 321 324 326 332 336 338 337 339 342 345 346 346 346 345 345 345 345 346 347
303 303 305 306 307 309 308 310 311 309 311 316 319 319 320 320 321 324 325 327 321 318 316 316 319 319 325 325 326 326 328 333 339 341 343 345 347 344 345 345 345 345 345 345 345
302 303 304 306 307 307 309 308 309 310 315 318 320 321 322 322 323 322 325 327 320 320 316 317 318 321 323 327 326 327 325 328 336 342 342 341 341 344 343 344 343 344 344 345 345
302 302 303 303 304 306 307 307 309 317 320 320 322 324 322 322 321 323 324 326 320 320 318 320 319 320 324 326 326 327 326 328 334 336 339 345 339 338 344 345 344 343 343 344 344
302 302 302 304 304 306 308 310 314 315 320 320 325 323 322 323 322 323 325 326 326 320 318 320 321 320 321 324 327 324 322 322 323 329 337 339 341 336 345 347 345 343 344 345 345
302 303 303 303 305 305 306 307 313 316 318 321 321 320 320 320 322 322 320 320 321 321 320 320 319 321 323 323 324 320 321 323 327 334 336 331 340 338 336 343 343 342 344 345 346
302 303 304 305 305 305 305 307 315 316 317 318 320 320 321 320 320 323 320 321 318 318 316 318 319 319 321 322 322 321 321 322 326 327 335 331 343 341 337 335 341 342 343 344 345
302 303 304 305 308 306 307 306 311 316 320 322 319 320 320 320 321 322 319 319 319 315 320 316 317 318 320 321 321 321 321 320 319 320 323 325 326 328 329 330 335 339 341 343 343
301 303 305 311 314 306 304 305 308 314 317 318 319 319 320 319 319 320 320 320 319 317 316 316 318 317 319 322 321 320 318 323 317 324 327 324 326 328 330 332 330 333 339 341 342
301 303 306 314 309 308 303 304 307 312 313 313 318 318 319 318 319 319 320 321 321 321 315 314 315 318 319 319 320 320 320 317 317 318 322 323 324 322 326 328 331 332 337 338 340
300 299 309 308 310 304 306 306 311 311 313 312 314 314 316 317 317 318 319 320 322 320 317 314 316 318 317 318 318 319 319 319 322 320 319 320 323 324 326 326 331 332 335 337 338
302 303 306 311 310 310 310 313 315 316 314 316 315 313 313 315 317 316 318 321 322 322 320 315 313 318 317 316 319 320 319 317 316 317 321 324 324 324 324 327 332 333 335 336 336
305 304 310 310 309 308 307 310 314 317 317 318 316 316 316 318 315 318 322 324 324 324 327 320 312 318 321 319 318 321 322 319 319 320 320 323 325 326 328 329 330 334 336 336 337
306 307 308 309 308 308 306 309 315 317 315 317 318 317 318 318 321 319 320 322 327 327 326 315 317 315 321 318 320 321 322 321 321 321 324 325 325 326 327 328 329 336 337 336 336
306 307 307 307 309 306 309 310 314 315 313 314 317 319 317 319 321 322 322 326 328 327 326 316 317 314 321 320 320 321 321 322 323 323 322 323 324 323 326 329 330 333 335 337 337
303 304 305 308 308 309 308 310 312 312 313 313 314 314 317 320 319 321 324 324 326 327 326 319 316 315 320 318 317 319 321 321 322 323 324 325 326 324 328 328 329 331 334 338 339

GFSSW_850_thetae_015.txt.gz
Theta_e
311 313 314 315 316 316 317 317 317 317 318 319 319 319 321 322 321 322 321 320 319 320 327 326 329 335 345 345 343 340 341 343 342 346 346 347 349 351 351 349 348 349 348 346 348
309 309 310 312 313 314 315 316 317 317 318 318 318 319 319 321 321 321 320 320 319 319 321 324 326 330 333 331 339 342 343 342 339 342 345 347 349 351 351 348 348 350 349 346 348
308 309 309 309 310 312 313 314 316 317 318 318 318 318 319 319 320 320 323 321 319 318 320 321 322 322 325 330 337 341 343 341 340 340 344 347 349 350 350 349 347 350 351 350 349
308 308 309 309 310 310 310 312 314 315 317 318 318 319 318 318 322 319 321 321 320 319 320 321 322 324 325 327 332 340 339 340 340 341 344 346 348 348 347 343 346 349 349 350 349
308 308 308 309 310 310 311 311 311 313 315 317 318 319 318 317 319 320 321 320 319 319 319 321 322 323 326 327 329 332 331 336 339 340 344 346 347 347 347 345 348 349 350 349 349
307 307 308 309 310 310 311 311 312 312 314 316 318 318 317 318 319 321 321 321 321 320 320 322 323 323 326 330 330 329 333 337 340 340 343 346 346 346 346 349 350 350 349 349 349
306 306 307 308 309 309 311 312 312 312 314 315 317 317 317 320 319 320 322 322 322 321 320 320 322 325 328 329 326 339 343 343 341 341 343 344 348 348 347 350 349 349 349 349 350
305 306 307 307 308 308 310 311 313 313 314 316 318 320 320 320 322 326 325 322 323 320 321 321 323 323 325 328 338 341 342 345 343 342 343 343 345 346 349 350 349 348 349 349 349
305 306 307 307 308 309 309 311 313 313 314 317 322 322 324 324 325 325 325 322 323 321 321 322 323 322 324 335 341 341 342 344 346 342 344 344 344 346 348 349 349 348 348 349 349
304 305 306 306 307 308 309 312 313 314 320 324 324 325 324 325 326 324 326 323 322 322 321 320 321 323 326 335 336 342 344 344 347 344 345 346 347 348 348 349 350 350 349 350 351
303 304 306 306 306 307 309 312 314 316 316 321 322 325 325 324 324 326 325 321 320 322 323 321 322 322 327 334 336 339 342 344 345 344 345 346 346 349 348 348 349 350 351 350 350
302 303 304 306 306 307 308 308 311 310 310 316 317 316 318 319 321 324 325 325 321 321 319 321 322 323 326 328 335 340 342 344 344 344 345 346 347 347 348 348 347 348 350 350 350
302 302 303 305 306 308 307 311 310 307 310 314 316 317 319 317 319 321 323 325 326 323 320 322 321 322 325 327 330 338 342 343 344 343 345 347 346 347 348 348 347 347 347 347 348
302 302 303 305 306 306 309 309 307 308 318 321 320 321 321 320 321 321 322 326 324 327 320 320 321 322 324 328 329 333 336 342 343 344 346 345 347 348 348 350 349 347 346 346 346
301 302 302 302 303 305 305 306 307 314 322 321 322 322 322 323 321 322 323 325 327 325 323 324 321 322 324 327 329 332 332 337 341 345 343 347 346 343 348 350 350 348 347 346 345
302 302 302 303 303 305 306 305 314 320 321 322 325 324 323 323 323 323 323 324 325 326 322 325 321 322 324 327 329 328 331 332 338 340 343 342 345 340 349 349 348 346 346 346 345
302 302 302 302 304 304 304 306 318 320 320 322 323 322 322 324 324 324 324 325 327 328 327 326 324 323 322 325 329 329 331 334 336 339 337 336 346 343 341 344 345 345 345 345 345
302 302 303 303 304 304 304 310 316 317 320 319 321 321 321 322 324 323 325 325 326 328 328 327 326 324 323 325 327 329 330 333 336 337 335 335 341 341 341 339 340 344 344 345 345
302 303 303 303 304 305 305 308 314 316 320 320 321 321 322 322 322 323 325 325 326 327 328 327 326 321 322 324 327 329 329 331 332 327 334 336 339 335 338 338 338 340 343 344 345
300 302 303 308 311 307 307 309 310 315 319 320 321 322 322 322 322 322 324 324 325 325 328 324 325 323 322 324 324 326 327 328 329 337 334 332 334 333 339 340 341 340 341 342 345
300 301 304 312 309 306 307 307 309 311 315 317 320 321 321 321 321 321 322 323 322 323 325 325 325 323 322 323 324 325 326 327 330 331 335 334 333 335 338 340 340 341 339 341 344
299 302 305 306 310 307 309 309 309 311 311 315 315 318 320 320 320 320 321 323 322 322 323 323 325 327 325 323 323 325 326 328 331 333 329 331 332 331 334 336 336 338 338 338 342
302 303 304 308 312 313 313 314 314 314 313 313 313 315 316 316 316 317 319 321 322 324 327 322 324 327 326 325 323 323 324 326 327 328 336 331 331 334 332 333 332 334 337 337 338
304 306 309 308 307 310 312 313 315 316 317 318 316 316 318 319 320 321 322 323 323 322 323 323 327 328 329 329 326 325 324 324 325 329 328 330 331 332 333 336 337 336 335 337 337
305 308 308 313 312 312 310 310 313 315 317 316 320 321 321 321 321 322 322 322 322 323 329 329 330 327 328 329 327 326 323 324 326 328 330 329 331 333 335 337 338 335 338 338 338
305 307 305 307 308 310 310 311 313 315 315 317 319 320 320 322 322 322 322 323 325 328 330 324 328 325 326 326 326 326 326 325 325 325 327 327 333 333 334 334 335 337 338 340 338
302 302 303 304 307 309 311 311 313 311 314 315 315 315 317 318 319 319 321 322 325 330 334 333 328 328 330 327 325 326 327 326 326 327 327 330 331 336 333 334 335 335 337 336 337

GFSSW_850_thetae_021.txt.gz
Theta_e
309 309 309 309 310 311 312 314 316 317 317 317 317 318 319 320 320 321 326 325 325 320 320 338 339 338 341 344 345 345 345 344 340 341 339 339 341 342 344 343 344 346 348 349 350
309 309 309 309 309 310 310 311 312 314 316 317 317 317 318 319 320 323 323 323 322 320 322 335 335 338 340 343 345 346 347 344 340 343 341 340 340 342 343 343 345 345 347 349 349
308 309 309 310 310 310 310 311 311 311 313 315 317 317 317 318 323 324 322 321 320 320 329 333 334 338 338 339 341 343 347 342 340 340 342 341 340 341 343 344 344 345 348 348 348
307 307 309 309 310 310 310 311 311 311 312 312 315 316 317 317 327 327 322 321 320 320 331 331 333 335 339 337 336 342 343 341 341 339 342 341 342 339 340 341 342 345 347 347 348
307 307 307 308 308 309 310 311 311 312 312 312 312 314 315 323 322 323 321 320 320 326 328 329 331 332 337 334 336 339 341 339 337 339 340 341 342 341 338 340 342 345 346 347 347
306 307 307 307 308 308 309 311 312 313 312 312 312 312 314 323 321 323 323 327 327 327 327 326 329 330 331 333 336 337 338 337 336 338 339 342 342 341 340 342 343 346 346 346 346
305 305 306 306 307 308 309 310 312 313 313 313 313 312 320 323 321 322 326 326 326 328 325 325 325 327 328 332 333 335 336 339 338 338 340 340 343 343 342 344 344 346 346 345 345
304 305 305 306 307 308 308 309 312 313 313 314 313 313 323 324 323 322 322 323 324 325 327 325 324 326 328 331 333 336 338 340 339 339 340 341 343 343 344 343 346 345 346 345 345
304 304 305 306 306 308 309 309 311 312 313 313 318 324 326 326 324 322 322 323 325 325 327 325 325 325 328 331 334 336 339 339 340 340 343 343 347 344 344 343 343 346 345 346 346
303 304 304 305 305 307 309 309 311 312 318 317 326 329 326 327 327 327 327 326 325 326 325 325 325 327 329 332 336 339 339 340 345 341 344 344 347 346 346 344 341 344 344 345 345
303 304 305 305 305 306 309 314 321 327 327 327 329 327 327 327 327 326 327 326 325 326 326 325 326 327 329 332 335 339 340 340 340 340 343 345 345 346 347 347 344 342 343 344 344
304 303 305 306 306 307 310 315 315 312 315 317 319 322 325 326 326 326 327 324 326 327 326 327 326 327 330 332 334 336 340 341 340 341 341 343 345 347 348 348 347 345 343 343 343
305 303 305 306 306 311 310 315 312 312 316 319 320 320 321 321 324 325 327 325 326 328 326 326 326 327 329 331 334 335 338 340 340 343 344 344 346 345 345 347 347 346 345 344 343
305 303 303 305 309 308 314 314 311 311 320 324 323 323 322 322 323 323 326 327 326 328 327 326 328 327 328 330 332 335 336 338 339 345 349 343 348 347 345 345 348 348 347 345 344
306 305 303 302 305 310 311 310 310 314 325 328 326 325 325 324 328 325 324 327 328 328 328 328 327 327 327 329 332 333 336 338 339 341 345 343 344 345 344 345 345 347 347 347 344
305 304 303 306 309 310 310 310 312 321 325 327 327 327 328 327 328 327 325 326 327 329 328 328 327 328 327 329 330 332 336 337 338 339 344 345 346 346 345 345 345 344 346 348 346
303 303 303 303 308 311 309 310 317 321 326 327 327 328 328 329 329 328 327 327 328 329 330 329 328 328 328 327 329 330 334 339 340 341 341 345 344 350 343 344 344 343 342 345 348
300 301 306 308 309 309 309 313 318 323 324 327 327 328 328 328 328 328 328 328 328 329 331 331 330 329 327 327 328 330 332 337 341 341 340 340 345 345 344 341 341 340 339 342 347
300 305 308 309 311 309 311 314 318 321 325 325 326 327 328 328 328 329 329 328 328 329 330 332 332 330 328 328 327 330 333 334 337 338 340 340 340 340 342 342 340 340 338 338 345
303 308 309 310 311 310 313 315 318 319 323 323 325 327 328 328 327 328 329 329 328 328 330 331 332 331 329 328 327 328 331 335 338 344 344 340 340 341 342 341 340 339 338 338 339
308 308 311 311 311 313 315 315 316 316 317 320 322 325 327 328 329 328 328 329 329 328 328 329 331 331 331 330 328 327 331 333 335 338 340 341 341 339 341 341 340 339 337 337 338
307 311 310 310 313 314 315 316 316 318 317 318 319 322 325 326 326 328 328 328 328 329 328 329 330 333 332 330 329 328 328 331 341 340 338 339 339 339 338 338 338 337 337 337 336
308 309 309 308 311 312 314 315 316 317 318 318 317 319 321 324 327 327 327 328 327 328 329 329 330 333 333 331 330 329 329 329 331 335 343 340 339 338 338 338 336 336 335 335 335
307 311 310 310 311 312 312 314 315 316 317 317 317 317 318 320 323 325 326 327 326 327 328 330 330 331 334 333 330 329 328 328 329 335 335 337 338 338 338 338 337 335 335 336 335
306 309 309 312 313 312 313 316 316 317 316 317 318 318 317 318 320 321 324 326 326 325 328 330 332 332 332 333 332 330 327 327 328 330 333 333 336 337 338 338 337 335 334 334 334
306 308 308 309 309 310 310 312 310 311 314 316 317 319 319 318 319 320 322 325 326 325 326 330 332 333 333 331 331 331 331 329 328 327 329 330 332 335 336 335 336 335 334 334 334
305 306 306 307 309 309 308 309 312 313 312 314 315 318 322 320 320 320 322 322 323 327 328 329 331 333 333 333 333 333 331 332 332 331 330 329 330 331 334 336 337 338 335 335 334

GFSSW_850_thetae_024.txt.gz
Theta_e
310 310 309 310 310 310 311 311 311 312 315 316 317 317 316 317 319 320 322 325 326 324 322 331 338 343 341 341 344 347 349 349 343 340 339 340 340 343 344 344 347 348 348 349 347
309 309 310 310 310 310 311 311 311 312 312 313 315 317 317 317 316 319 320 322 324 325 321 332 337 339 336 339 343 345 347 345 343 342 339 341 340 341 341 342 344 348 348 348 347
307 308 308 309 310 311 311 311 311 312 312 312 312 315 316 317 318 325 325 323 323 322 323 328 333 335 336 339 343 343 346 344 345 341 340 339 340 339 342 343 343 348 349 348 347
307 307 308 308 308 309 310 311 311 312 312 313 313 313 314 315 325 325 323 321 321 321 325 328 331 334 338 341 340 345 343 342 342 340 342 340 339 339 342 341 343 348 349 349 347
306 306 306 307 307 308 309 310 311 312 313 313 313 313 312 322 323 323 323 322 321 320 327 330 332 334 336 340 339 339 344 342 339 339 340 341 341 338 340 342 343 346 348 348 348
305 305 306 306 307 308 309 309 310 312 313 313 313 313 312 320 322 324 323 324 324 326 327 328 331 333 334 338 337 336 338 339 337 337 338 342 342 339 338 341 343 345 346 347 347
305 305 305 306 306 307 308 309 310 311 312 313 313 312 317 319 325 325 324 324 326 327 327 327 328 330 332 334 334 335 337 337 337 337 339 341 343 341 339 340 343 344 345 345 346
306 306 306 307 307 307 308 310 311 311 312 312 313 313 320 320 324 323 323 326 327 327 328 326 327 327 329 331 332 334 336 338 338 338 339 339 346 341 341 340 342 345 345 345 345
308 308 308 308 308 308 309 310 311 311 312 312 315 320 326 325 326 325 324 324 325 325 326 327 326 326 327 329 331 334 336 338 339 338 340 339 346 344 343 341 342 343 344 344 345
308 308 309 308 308 308 310 311 312 315 317 319 319 330 330 328 327 326 324 323 323 325 325 327 327 328 327 329 332 334 336 337 340 340 340 341 346 342 342 341 342 343 344 344 345
309 309 310 310 309 308 309 314 322 325 327 329 329 325 326 329 327 328 326 325 326 326 327 328 328 327 328 329 332 334 337 338 340 342 341 345 348 345 344 343 340 343 342 343 344
309 309 310 311 309 308 311 317 318 314 315 316 319 326 329 329 329 328 327 328 327 327 328 327 327 327 328 330 331 333 336 339 340 343 345 342 350 347 348 346 342 341 342 342 343
309 309 308 311 309 315 313 313 316 314 315 317 318 319 323 329 328 328 327 328 327 327 328 327 327 327 327 329 332 333 335 339 341 341 341 341 342 343 346 346 345 344 342 341 341
308 308 306 308 311 313 314 316 313 313 317 322 324 322 321 322 324 325 327 329 327 328 329 328 328 327 327 328 331 333 335 336 338 342 344 343 345 348 346 349 346 344 344 343 342
304 304 305 305 306 309 314 313 312 314 323 329 327 325 324 323 326 324 324 327 329 327 328 328 327 327 327 327 331 333 335 335 336 339 345 347 345 347 347 349 349 346 344 344 344
302 302 302 306 308 312 312 312 313 318 323 328 327 327 326 325 325 328 324 325 328 329 328 328 329 328 328 328 329 332 333 335 336 338 344 345 345 348 349 346 346 346 345 346 345
302 302 302 303 309 311 311 312 316 320 327 328 329 329 328 326 325 329 327 326 328 331 330 329 328 329 328 328 328 329 331 336 338 342 341 343 349 349 347 346 345 344 343 346 346
304 304 305 308 310 311 311 314 318 323 323 328 329 329 329 329 327 327 330 326 327 329 330 330 330 328 329 328 328 328 330 336 340 341 340 340 342 348 346 344 342 341 342 344 346
305 307 309 310 311 311 312 316 319 322 325 326 327 328 329 329 330 329 330 329 328 328 332 332 331 331 329 329 328 328 329 331 333 337 340 340 340 341 345 343 345 343 342 342 346
305 308 312 312 312 312 314 316 319 319 321 323 325 327 328 329 329 329 330 330 329 328 329 330 332 331 331 330 328 328 330 330 331 338 343 341 343 345 348 345 345 344 342 340 344
307 311 311 312 312 313 316 316 317 317 318 319 319 321 323 328 329 330 329 330 330 329 329 328 332 331 332 331 330 328 328 329 330 334 339 342 343 343 346 348 346 344 341 340 338
307 311 311 313 313 314 315 316 316 318 318 319 320 320 321 322 325 329 330 329 330 330 329 329 329 333 331 332 331 329 329 329 331 338 336 339 342 339 341 344 346 343 340 339 338
307 308 308 310 313 313 314 314 314 316 318 319 320 320 321 321 323 324 327 330 329 330 331 332 330 333 331 331 332 331 330 328 328 330 339 339 339 339 342 340 339 341 339 338 338
306 309 309 310 311 312 313 316 316 315 317 317 319 320 320 321 322 324 325 327 328 330 329 333 330 333 333 334 332 334 331 330 329 330 333 337 340 339 342 343 343 340 337 338 337
305 308 308 310 311 312 313 314 314 315 316 316 318 319 320 321 321 320 322 323 326 331 330 330 335 334 331 330 333 332 331 330 331 332 333 333 338 340 339 343 342 338 338 337 337
305 306 307 308 308 310 309 310 311 311 313 314 315 317 319 321 322 321 320 324 326 329 328 331 333 333 333 330 331 333 331 331 330 330 331 331 333 336 338 338 340 336 337 338 337
305 306 305 308 308 309 309 309 311 310 310 314 314 315 316 316 316 316 316 319 323 326 331 331 331 336 335 332 332 332 333 333 330 330 329 331 333 336 336 336 339 341 337 340 338

GFSSW_850_thetae_027.txt.gz
Theta_e
308 308 309 310 310 310 310 311 311 312 312 312 313 315 316 317 317 316 316 319 320 322 326 325 325 328 344 349 350 342 348 351 347 339 338 341 344 347 350 349 349 349 350 348 350
307 308 308 308 309 310 310 311 311 311 312 312 313 313 313 315 317 317 317 318 324 327 326 325 335 338 341 342 345 347 348 345 343 341 337 341 345 345 348 348 348 348 349 350 350
306 307 307 307 308 308 309 310 311 311 312 312 312 313 312 313 315 319 325 320 325 323 324 325 327 333 339 338 342 345 347 342 342 342 342 338 339 341 341 348 348 349 349 351 351
307 306 306 307 307 308 309 309 310 311 312 312 312 313 312 312 319 325 324 323 323 323 324 324 324 327 331 333 342 343 342 341 341 342 340 338 339 341 341 343 348 348 346 347 352
308 308 307 306 307 308 308 309 310 310 311 312 312 313 311 314 317 321 322 322 321 321 322 323 324 327 330 333 339 343 342 340 340 341 341 339 338 341 342 347 348 348 346 347 348
311 310 309 308 308 308 308 309 310 310 311 311 311 312 311 316 320 321 321 323 322 321 321 324 326 329 332 333 334 342 343 341 338 340 342 340 338 342 343 349 349 349 347 347 346
310 311 311 310 309 309 309 309 309 310 311 311 311 311 311 317 321 324 324 323 323 325 325 326 327 329 331 331 333 333 335 342 340 336 340 341 339 341 342 347 349 349 348 348 347
312 311 311 312 311 310 310 311 310 311 311 310 311 312 313 320 321 322 324 325 324 325 327 326 327 327 328 329 328 330 329 330 333 334 337 340 342 338 342 345 347 348 348 348 347
312 313 312 312 312 311 311 312 311 312 311 311 311 315 324 325 324 323 323 323 324 326 327 328 327 327 327 324 324 325 328 329 332 335 337 338 341 340 340 344 344 346 346 346 347
310 311 312 313 312 312 312 311 315 320 320 319 321 327 323 323 326 326 325 323 324 326 325 325 327 324 323 322 324 325 328 329 332 337 337 339 341 340 339 341 344 345 345 345 345
309 309 311 312 313 312 310 314 317 321 325 329 326 321 320 324 328 327 326 325 324 323 322 325 323 325 324 324 325 327 329 330 332 338 339 342 341 340 340 340 341 344 344 345 345
307 307 309 312 313 311 312 315 314 316 315 315 316 319 327 328 329 329 326 324 323 321 323 324 324 325 326 326 326 327 328 330 332 338 340 345 344 341 338 337 340 342 344 344 345
303 304 305 310 313 312 315 315 315 313 313 314 315 316 317 321 324 329 327 324 324 324 326 324 325 327 327 326 327 327 327 330 333 340 341 345 349 341 339 341 342 342 343 344 344
302 302 302 307 313 313 313 315 314 313 312 317 319 318 317 318 323 328 328 327 327 326 326 325 326 326 325 325 326 326 329 331 332 339 341 344 350 346 342 343 343 341 342 342 344
304 303 302 301 306 312 312 313 313 313 318 325 323 323 320 319 325 328 329 327 327 327 324 325 326 326 325 325 325 326 329 331 331 332 341 342 342 343 345 346 345 341 341 341 342
306 306 305 304 304 311 311 312 313 314 319 324 326 322 320 319 321 324 327 326 328 328 325 324 327 326 325 326 325 326 327 329 330 331 337 341 341 342 341 346 344 343 343 341 341
305 305 306 306 306 308 310 313 312 315 323 327 326 325 322 320 321 321 323 322 323 326 327 327 325 326 327 324 324 324 323 328 330 332 332 340 342 342 341 342 345 345 344 343 342
305 304 306 307 308 310 311 313 315 321 320 323 324 326 325 325 322 322 322 322 322 323 326 328 327 326 326 325 322 323 323 326 329 332 332 331 342 343 342 342 345 343 343 344 344
304 304 304 311 309 310 311 315 316 319 320 320 320 323 326 328 327 323 322 324 323 323 324 327 328 328 327 327 325 324 323 323 323 327 331 333 333 335 341 342 341 341 342 342 342
304 306 305 312 312 311 313 314 316 317 316 316 317 320 321 320 320 327 324 324 326 324 324 325 328 328 329 327 326 325 325 323 323 324 329 330 333 337 340 343 341 341 340 342 342
306 308 306 310 311 313 313 314 315 315 316 317 318 319 319 320 320 320 322 327 327 326 325 324 325 328 329 327 325 323 324 322 322 324 327 329 331 334 342 343 341 341 341 342 342
305 307 304 308 310 313 313 314 313 314 315 316 317 318 319 319 319 319 320 321 326 329 326 325 324 325 327 328 327 327 324 321 324 325 326 325 329 332 333 342 341 341 341 340 341
305 306 305 307 309 311 312 313 313 313 314 315 316 316 317 318 319 320 320 321 322 322 328 327 326 325 326 326 327 327 327 323 323 321 325 329 328 329 330 340 341 339 340 342 341
305 306 306 308 309 310 311 313 313 312 313 313 315 315 316 319 319 321 321 322 322 321 327 334 327 326 326 326 328 330 328 326 324 323 323 324 324 329 335 338 337 340 341 339 340
304 306 306 307 309 308 309 311 311 311 311 311 313 314 315 316 319 320 321 320 319 321 323 323 327 328 326 327 329 329 330 328 326 324 323 323 324 326 329 337 336 339 339 338 338
303 305 306 306 306 308 308 309 308 309 311 311 311 313 313 316 318 318 317 317 318 318 317 319 325 328 328 327 327 327 329 330 327 327 327 327 326 329 329 339 340 340 338 339 338
304 305 305 305 305 305 306 308 309 309 310 310 311 311 312 312 313 314 314 314 315 317 318 319 321 328 329 329 329 326 327 328 330 329 328 327 326 328 328 334 338 340 338 336 336

GFSSW_850_thetae_030.txt.gz
Theta_e
307 307 308 308 308 309 309 310 311 311 311 312 312 312 312 313 317 317 317 317 316 318 318 328 329 345 351 354 353 342 348 347 347 344 345 349 349 350 349 349 347 350 346 345 345
307 307 307 307 307 308 309 309 310 310 311 312 312 312 312 312 314 317 318 317 316 317 324 328 331 334 343 345 350 343 346 346 342 340 341 346 349 349 349 350 349 348 348 348 346
310 308 308 307 307 307 308 309 309 310 310 311 312 312 312 312 313 320 322 324 318 317 325 325 325 338 340 340 345 345 346 342 342 341 342 347 349 348 349 350 348 349 349 349 349
310 311 311 309 309 308 308 308 308 309 310 310 311 311 311 312 314 324 323 323 318 324 324 325 327 325 326 329 340 343 341 341 340 341 339 347 348 349 348 348 346 346 348 348 349
312 311 311 311 311 310 310 309 309 308 308 310 311 311 311 311 316 319 322 321 322 323 322 322 325 323 325 327 337 341 340 342 341 340 340 339 341 348 346 347 348 348 350 349 350
315 315 314 312 312 312 311 311 311 310 309 309 310 310 309 310 320 319 319 321 322 320 321 323 324 324 325 328 335 341 341 341 341 338 340 336 339 341 347 347 348 350 350 350 351
315 315 315 315 313 312 313 313 312 311 310 310 310 309 309 316 320 323 321 320 321 322 322 321 321 325 327 327 330 332 338 342 342 340 338 338 342 348 348 348 347 346 350 351 351
312 312 313 314 315 314 313 315 313 311 311 310 310 309 311 317 318 320 319 322 323 322 323 324 324 324 326 327 326 325 326 327 330 339 339 337 343 348 348 347 346 345 346 348 352
310 309 310 312 314 315 315 316 312 313 316 313 310 312 314 317 320 322 321 323 325 324 326 325 326 326 326 324 321 321 324 325 326 330 339 338 339 346 348 348 347 346 346 347 345
305 306 308 311 312 314 318 314 315 320 322 321 321 321 318 319 325 325 322 324 324 324 324 326 326 322 319 319 322 322 324 324 326 330 340 338 336 342 348 348 348 348 347 347 346
302 302 304 308 311 313 316 314 314 318 316 315 321 318 318 321 321 327 323 323 322 324 322 323 320 322 322 320 322 322 324 324 326 330 339 338 338 338 345 346 347 347 347 347 346
305 304 303 305 309 313 312 313 313 312 310 313 314 316 318 320 324 328 325 324 322 319 318 320 321 321 322 322 322 322 323 324 325 328 337 339 340 337 341 343 345 345 346 346 346
306 306 306 305 309 312 313 314 313 312 310 312 315 314 315 317 321 324 327 325 321 318 319 319 320 322 324 324 324 323 323 323 325 328 340 341 343 342 338 341 343 344 344 345 345
306 306 306 306 308 308 313 313 313 313 308 312 313 315 315 316 316 320 326 324 321 320 319 319 322 323 323 325 324 321 324 325 326 328 337 339 343 344 340 336 336 342 343 344 344
305 305 306 305 306 307 310 313 312 313 319 322 319 319 317 317 320 321 325 324 323 323 321 323 324 324 324 325 325 323 324 325 326 327 333 340 340 338 340 341 337 338 342 343 344
305 304 304 306 306 308 308 311 313 311 316 319 321 317 316 316 320 324 324 327 326 325 323 324 325 323 324 325 324 324 322 322 325 324 333 331 341 337 341 342 341 340 340 342 343
305 304 303 303 305 307 308 311 308 312 317 323 318 317 316 315 317 320 327 326 325 324 325 325 324 322 324 322 322 322 319 320 323 324 327 329 337 338 337 341 342 341 341 341 342
304 303 303 303 303 304 309 308 311 315 316 317 316 319 320 317 316 318 319 328 325 320 322 325 326 324 323 324 323 318 320 320 322 324 325 325 336 337 336 339 342 342 343 341 340
302 303 303 304 305 307 309 311 310 313 314 315 315 318 317 320 318 317 317 320 326 320 320 322 324 325 325 324 323 321 319 319 319 323 325 326 330 331 336 337 342 343 343 341 340
302 304 303 306 308 310 307 311 311 313 314 315 315 316 316 316 317 317 317 319 319 320 319 320 323 324 326 324 323 323 318 320 315 320 322 324 328 331 332 338 338 343 343 343 341
303 305 302 306 305 310 309 309 312 312 313 313 313 313 314 315 316 316 317 318 320 321 321 321 319 322 325 325 325 323 320 318 318 318 322 321 324 324 327 331 336 341 342 342 341
303 302 302 306 303 305 310 309 311 312 312 312 313 313 314 314 315 315 317 318 319 319 319 319 319 321 322 322 325 325 323 318 322 319 319 322 324 328 325 330 336 339 341 341 342
302 304 303 306 303 305 308 310 311 312 311 313 313 314 313 314 316 316 318 319 317 319 320 321 319 320 320 321 322 323 323 323 314 316 322 323 323 323 323 333 338 338 340 340 341
303 302 304 305 306 305 308 310 310 310 311 310 311 313 314 314 313 315 317 318 316 317 319 316 321 320 324 323 322 322 324 322 321 322 321 322 323 323 324 332 336 340 341 341 341
303 302 304 303 305 305 305 307 308 309 309 309 310 310 313 314 315 316 315 315 315 317 314 314 316 320 320 323 324 325 326 325 322 323 322 322 320 320 320 328 334 339 340 339 341
303 303 303 304 304 303 304 305 307 309 309 310 310 310 309 312 313 312 311 311 314 314 313 312 317 316 322 325 324 324 325 326 325 324 322 320 320 319 321 325 330 336 337 338 339
303 304 304 303 302 302 303 305 305 307 308 309 308 310 310 309 309 310 310 311 311 313 313 314 315 316 320 324 324 325 326 326 326 326 324 322 322 321 324 329 330 335 336 338 338

GFSSW_850_thetae_033.txt.gz
Theta_e
310 308 308 307 307 307 308 308 309 309 310 311 311 312 312 313 313 313 316 317 316 316 325 335 344 343 347 351 353 347 345 346 346 350 349 350 350 350 349 348 346 347 344 344 346
310 310 310 310 309 308 308 308 308 308 309 310 310 311 312 312 313 315 319 318 317 316 318 328 346 351 352 353 353 341 342 343 341 341 348 350 350 349 349 347 348 347 344 344 347
315 313 311 311 311 311 310 309 309 308 308 309 310 310 311 312 313 320 321 322 320 317 317 319 337 349 344 344 350 344 347 342 341 340 348 349 349 349 348 347 348 346 345 346 347
316 316 316 314 312 311 312 311 310 310 309 309 309 310 310 310 313 322 321 322 323 316 319 323 338 342 335 336 346 345 343 343 340 342 346 348 348 348 347 346 345 341 343 345 347
315 315 315 315 315 314 312 312 312 311 310 310 309 309 309 310 316 320 320 321 318 316 317 324 326 329 322 323 335 342 340 339 340 342 346 348 348 348 348 348 345 344 345 346 347
314 314 314 315 315 315 317 314 314 313 311 311 310 309 308 307 319 319 318 319 321 319 322 322 325 326 323 324 331 336 337 336 337 339 346 348 348 348 348 348 348 346 347 347 347
309 310 311 313 314 314 317 319 316 315 313 311 310 308 308 313 318 319 319 318 320 321 322 321 322 324 323 323 327 329 333 335 339 340 340 343 343 348 347 347 349 349 348 348 348
305 304 306 309 311 313 316 320 317 316 313 312 311 309 309 314 316 318 318 319 318 319 321 321 321 322 323 325 324 324 325 325 327 334 339 338 340 343 346 347 349 349 349 349 348
306 305 305 305 307 309 315 318 315 314 316 319 313 310 312 314 315 317 319 320 321 321 322 321 325 324 323 322 320 319 324 324 324 330 335 336 338 346 347 347 349 349 349 349 349
306 306 307 307 306 308 315 314 315 320 320 321 320 318 319 318 325 325 323 319 320 321 323 324 325 319 317 319 323 322 322 323 324 328 334 336 338 347 347 347 347 349 350 349 350
307 307 307 308 308 309 313 314 314 315 313 316 321 320 319 320 320 326 326 320 320 322 319 321 320 321 322 319 321 322 322 323 324 331 337 336 337 348 347 346 345 345 346 348 350
305 306 307 307 308 310 310 311 309 308 308 314 316 315 318 318 318 323 325 319 319 318 318 319 321 320 321 321 321 320 322 322 322 325 329 332 338 347 346 346 346 345 345 345 346
303 304 304 305 308 309 309 310 309 309 307 311 315 316 315 316 317 320 322 321 319 318 318 321 321 320 321 321 322 320 320 322 322 325 331 336 339 344 347 347 347 346 346 345 345
302 302 303 304 306 307 310 309 309 311 308 312 312 314 314 316 317 319 323 322 319 320 317 317 319 321 320 321 322 321 321 323 323 324 325 336 342 338 344 347 345 346 346 346 345
302 302 302 302 303 304 307 309 311 311 319 321 315 315 314 316 318 318 320 324 319 319 318 318 318 320 321 322 322 323 323 323 324 323 324 329 337 336 338 343 342 342 344 345 346
303 303 302 303 302 305 305 308 312 310 316 319 317 315 314 315 316 317 322 325 323 320 319 320 321 319 320 322 322 323 324 320 322 319 323 324 331 332 340 339 338 337 342 343 344
303 302 302 302 302 302 303 307 308 311 315 319 315 315 316 314 316 320 319 320 322 321 321 320 320 321 322 321 321 321 318 320 319 320 323 321 327 328 331 338 338 337 337 342 343
303 302 302 302 307 303 304 306 309 314 313 314 315 316 318 316 316 316 322 322 322 321 322 322 324 321 320 321 321 319 320 317 320 320 321 322 326 327 331 334 338 339 339 338 341
303 302 303 306 306 308 308 308 309 310 314 314 314 316 315 315 316 316 314 324 324 319 322 322 323 323 323 321 322 319 320 319 316 320 319 322 324 328 330 331 333 337 339 339 339
303 303 303 305 304 307 306 308 309 312 312 313 314 314 313 314 315 314 316 316 317 322 319 319 322 321 323 322 320 321 316 319 310 320 320 319 324 327 330 331 332 336 339 340 339
303 303 303 304 305 308 307 306 310 311 311 312 312 312 312 313 314 314 315 317 319 319 317 316 317 321 322 321 324 319 319 316 316 314 319 318 321 322 327 330 332 335 339 340 340
302 300 304 304 302 302 306 307 310 310 311 310 311 311 312 314 314 315 314 316 317 318 319 317 312 320 322 321 323 322 320 315 317 317 315 320 320 323 325 324 327 333 339 341 342
303 302 304 306 305 304 305 309 310 310 310 310 311 311 312 313 313 315 316 317 314 315 319 318 317 316 317 317 317 321 321 320 320 314 320 319 319 319 321 324 328 331 333 337 341
302 301 304 304 304 305 304 306 309 308 309 309 310 312 312 313 312 313 314 316 313 314 319 314 313 317 319 318 319 319 321 322 319 320 322 321 321 322 322 321 325 332 335 336 340
303 302 302 301 302 303 303 304 306 310 308 308 308 310 312 312 314 314 312 311 312 315 312 312 315 315 317 318 319 321 321 322 320 322 322 323 319 319 319 321 324 330 334 337 338
302 303 303 302 303 301 302 305 306 306 307 309 309 307 308 310 311 310 310 310 311 312 310 310 315 314 318 319 320 321 321 322 323 323 320 320 318 317 320 321 321 325 327 333 338
303 303 303 304 303 303 301 303 303 304 306 307 307 306 307 308 308 308 308 309 308 311 310 311 314 315 317 318 319 322 322 323 323 323 323 322 319 318 318 318 319 322 325 328 331

GFSSW_850_thetae_036.txt.gz
Theta_e
313 311 310 310 310 310 309 309 308 308 309 309 310 311 312 313 313 314 315 317 316 315 329 333 337 339 346 351 350 346 344 346 348 348 350 349 349 348 348 346 346 346 344 343 342
316 316 315 314 312 311 311 311 310 309 309 309 309 310 310 312 313 316 319 318 316 316 327 337 339 342 349 350 352 342 341 344 339 343 347 349 349 348 348 346 347 346 344 342 342
316 316 316 315 316 315 313 312 311 311 310 310 309 309 309 310 312 318 321 321 318 316 319 331 341 347 350 351 350 343 347 341 341 341 347 349 349 349 347 346 346 345 345 343 342
313 313 313 313 315 315 315 315 313 312 312 311 310 309 309 309 313 319 320 321 321 316 321 337 348 349 341 338 350 346 343 345 343 341 346 348 349 348 346 344 342 345 341 342 343
308 309 308 309 311 313 314 314 316 314 313 312 311 310 308 309 313 319 320 318 322 317 317 334 349 346 331 332 340 346 344 340 341 341 345 348 348 347 347 345 344 343 343 343 344
306 306 305 306 308 310 312 313 314 317 315 314 312 310 308 305 315 316 317 319 319 318 320 327 340 341 327 322 330 333 341 340 335 337 344 347 347 347 348 347 345 343 345 345 343
306 306 307 307 307 307 311 315 315 318 318 316 313 310 308 312 314 317 317 318 320 317 321 324 330 334 325 321 324 326 327 329 335 337 343 346 348 348 347 347 345 345 346 346 344
307 307 307 307 308 309 311 314 317 319 318 315 313 310 309 314 313 313 317 316 319 316 316 322 324 327 323 323 323 322 323 324 326 336 341 346 351 346 347 347 347 345 345 346 346
304 305 306 307 307 309 310 314 316 316 316 317 315 310 312 314 314 315 314 317 317 319 320 321 321 323 322 320 319 317 323 323 325 331 334 343 339 339 346 346 348 347 346 346 346
303 303 304 304 305 310 311 313 315 319 321 319 319 315 317 317 323 322 315 315 317 319 321 321 323 319 316 317 320 321 321 322 326 326 333 335 334 338 346 346 348 348 347 347 347
302 302 302 303 304 309 311 313 312 313 311 320 321 318 318 319 321 322 324 315 318 317 318 322 320 321 319 318 320 321 322 324 324 327 334 331 335 345 345 346 347 348 348 347 347
301 301 301 302 303 308 311 309 306 306 306 313 316 315 318 319 318 323 322 317 318 317 316 316 321 320 320 319 321 320 321 322 321 322 325 324 334 346 345 346 347 348 348 348 348
301 301 301 302 303 305 308 307 305 308 306 310 313 314 314 316 315 318 322 318 316 316 318 321 319 320 321 320 321 319 321 321 322 322 325 334 334 345 346 346 346 346 347 348 348
301 301 301 301 303 302 306 306 304 310 306 311 311 313 313 315 313 319 320 320 318 319 315 317 319 321 318 320 320 318 319 322 322 321 322 331 332 339 347 347 345 344 344 346 347
301 301 302 302 302 302 304 305 306 308 317 319 312 313 315 316 316 316 320 320 317 318 317 319 318 319 320 322 320 321 321 320 321 320 321 325 332 332 342 348 346 345 344 344 344
301 301 302 302 302 304 302 303 309 311 316 318 315 313 313 313 314 318 319 321 321 318 318 318 318 320 319 319 320 320 321 317 316 317 320 321 325 323 337 347 347 345 345 345 345
301 301 302 304 305 307 304 304 307 312 313 316 314 314 314 314 314 316 317 320 320 318 318 319 319 319 318 319 319 320 318 318 319 319 324 319 323 325 330 336 342 344 344 344 346
301 302 303 304 305 305 305 305 309 312 312 313 314 314 316 313 314 314 316 321 320 319 318 319 320 319 318 318 318 318 316 317 319 319 322 317 322 323 325 334 336 339 341 342 343
301 302 303 304 305 304 307 305 308 310 312 313 313 314 313 313 314 314 314 320 322 318 320 318 320 321 319 320 320 317 319 316 315 316 316 318 320 324 325 326 334 336 336 337 339
302 302 303 304 305 305 305 306 307 309 310 310 312 312 312 312 314 312 314 316 318 318 315 319 321 320 319 320 319 317 316 319 311 320 319 317 320 324 327 327 328 330 335 337 337
302 303 303 304 305 306 303 305 308 309 310 309 310 311 311 313 313 313 313 316 316 317 316 315 317 319 319 321 322 317 316 315 317 313 318 317 319 318 325 325 326 328 332 335 337
303 299 303 305 302 301 305 304 309 310 309 309 309 310 311 313 313 313 317 316 314 314 319 318 311 318 319 320 321 322 319 313 317 316 314 314 319 319 320 324 325 326 328 331 334
302 301 303 304 301 301 302 305 307 309 309 308 309 311 311 312 312 314 315 313 312 314 319 316 314 314 318 319 319 320 319 318 317 312 317 318 320 319 318 321 323 327 331 332 334
302 300 302 303 302 302 302 303 306 307 308 308 309 310 310 311 311 312 313 313 311 314 317 313 312 314 319 318 317 317 319 318 319 321 321 320 319 321 319 320 320 323 326 327 329
303 302 302 300 301 303 301 303 305 306 306 307 309 308 307 310 310 311 310 310 310 313 310 310 315 315 316 316 318 319 319 319 319 320 321 321 320 318 318 319 321 323 325 328 329
303 303 302 302 303 303 302 302 305 304 305 306 309 307 305 307 310 309 307 308 309 310 309 307 312 314 316 317 317 318 318 319 319 319 319 320 319 318 320 321 321 323 325 327 330
302 303 302 303 302 303 303 303 303 303 304 306 306 305 305 308 307 307 307 307 307 308 308 308 310 314 315 316 317 319 318 319 319 319 319 320 320 319 318 317 319 323 325 325 326

GFSSW_850_thetae_039.txt.gz
Theta_e
320 319 318 318 317 314 312 311 311 310 310 310 310 310 311 312 313 313 316 318 317 315 324 323 336 338 349 351 350 345 350 351 348 349 350 350 350 348 347 347 346 346 346 345 345
318 318 319 319 319 318 317 316 313 312 311 310 310 310 310 311 312 315 319 318 317 316 318 327 343 346 349 350 350 351 352 349 345 344 348 350 350 348 348 346 346 347 346 345 345
312 313 312 313 317 318 318 317 316 315 313 312 311 310 309 309 311 317 320 320 319 317 315 334 344 345 348 350 351 350 353 346 344 342 346 350 350 349 348 347 346 347 346 346 346
307 307 307 307 308 311 314 316 316 316 316 313 312 311 310 309 316 317 319 320 319 315 315 344 345 345 347 350 350 350 347 347 345 342 345 350 350 349 348 345 344 347 345 346 346
307 307 307 307 308 308 309 311 315 317 316 316 314 312 310 308 311 317 318 318 318 316 328 343 344 344 345 344 346 350 346 343 344 341 341 347 350 350 348 346 346 347 346 346 346
305 305 306 306 307 308 308 310 312 318 318 317 315 313 310 308 313 314 316 316 318 321 338 340 342 342 339 332 341 339 341 338 338 336 343 347 348 349 349 347 347 347 346 345 345
303 303 303 304 304 306 310 309 313 317 319 318 317 314 311 313 313 314 315 316 317 319 335 330 335 340 328 329 328 329 329 328 331 334 338 346 350 351 348 348 347 346 346 346 345
302 302 302 303 303 305 310 310 314 316 318 318 315 312 311 314 312 315 317 316 317 326 327 329 328 335 324 323 324 326 327 330 330 335 338 345 343 348 348 348 347 346 346 346 346
300 301 301 302 303 304 310 311 314 319 318 316 315 312 312 313 312 312 317 318 320 330 323 325 326 327 326 328 325 325 330 329 330 334 342 346 342 343 348 348 348 346 346 346 346
300 300 300 301 302 304 309 313 313 313 319 319 318 313 315 316 314 313 313 317 324 324 322 322 323 325 324 326 325 326 327 328 331 332 337 346 344 340 347 349 348 347 346 346 346
300 300 300 301 301 304 309 312 311 311 310 321 321 317 319 318 323 322 312 317 319 321 322 323 323 325 324 323 324 324 326 329 330 329 331 336 340 339 343 348 349 348 346 345 345
300 300 300 300 301 303 308 307 303 304 307 312 315 315 320 318 318 321 313 315 318 321 321 321 323 323 323 323 322 322 325 328 328 326 327 330 333 335 343 346 348 349 348 347 346
300 301 301 301 302 302 304 306 304 303 308 311 311 312 315 317 316 319 315 317 317 319 320 322 322 322 323 323 324 323 323 327 328 326 326 330 332 338 345 345 346 348 349 348 347
300 300 301 301 302 302 304 306 303 305 312 315 312 313 313 316 317 317 317 317 319 320 320 321 322 323 322 323 324 324 323 323 325 327 331 331 336 338 342 348 348 347 348 348 348
300 301 302 302 303 305 305 304 302 307 314 317 312 312 313 317 317 317 318 319 320 320 321 322 322 323 323 323 324 324 323 324 325 327 328 329 331 334 342 349 349 347 347 348 348
301 301 302 303 304 304 305 303 307 312 316 319 314 314 315 316 316 317 318 320 321 321 321 322 320 323 324 323 324 324 325 324 324 326 328 329 330 333 337 345 347 347 346 346 348
301 301 303 304 304 305 305 303 312 314 315 317 316 316 316 317 315 319 320 321 324 323 323 322 321 322 323 323 323 324 324 326 325 326 327 329 329 331 332 339 339 346 346 346 346
301 302 303 303 304 305 306 307 313 313 314 314 314 315 318 316 317 317 320 322 324 323 324 323 323 322 322 324 323 324 324 324 325 325 325 327 329 331 330 330 335 339 342 345 346
301 302 303 303 303 304 306 305 310 312 311 311 314 316 317 315 315 317 319 322 323 323 324 324 324 322 322 323 324 324 326 324 323 322 324 326 327 328 329 330 335 338 341 344 345
302 302 303 303 305 305 307 307 309 310 311 311 313 313 315 315 317 317 320 318 321 320 320 324 325 323 322 322 323 323 324 323 324 324 324 325 327 329 333 332 333 337 338 339 342
302 303 303 304 304 306 307 307 308 309 310 311 311 312 313 314 315 316 319 317 316 318 321 321 324 324 323 323 323 321 324 323 324 323 323 323 325 328 333 336 334 333 334 336 337
302 304 303 303 304 304 305 304 306 309 309 310 311 312 314 314 315 316 318 316 313 319 322 320 320 327 325 324 325 323 324 324 325 326 324 324 324 326 329 332 333 333 333 334 336
302 301 302 302 304 305 304 304 305 307 309 310 310 311 312 313 314 316 316 314 312 317 319 319 322 327 326 325 322 325 325 324 325 325 329 324 324 328 327 327 327 329 330 331 332
302 303 302 302 302 303 303 304 305 305 307 307 310 309 310 312 314 314 313 313 311 315 316 317 319 324 327 326 322 324 324 325 325 327 326 327 326 326 327 328 329 327 327 330 331
302 303 302 304 303 304 304 303 305 305 304 307 307 308 307 311 312 312 311 311 312 313 313 315 319 318 318 318 318 320 321 322 324 326 329 327 329 327 327 327 329 330 331 328 329
302 303 302 302 303 304 303 304 304 304 304 304 309 307 306 310 309 311 310 311 312 312 313 313 315 318 316 316 317 319 321 321 322 322 323 324 326 326 327 326 327 327 327 328 325
302 302 302 302 303 303 304 304 304 304 303 304 305 305 306 307 305 306 306 307 308 310 311 312 314 316 316 316 318 320 321 321 322 322 323 325 325 326 326 327 327 328 327 329 326

GFSSW_850_thetae_042.txt.gz
Theta_e
317 318 318 317 319 319 319 318 317 315 312 311 310 310 310 311 311 312 314 318 317 315 316 334 344 348 349 351 351 348 351 350 348 348 352 351 352 350 347 348 348 348 349 349 348
309 310 310 311 312 314 318 318 319 318 316 313 312 311 310 310 311 313 317 318 316 316 326 337 340 344 347 348 351 348 352 348 345 345 349 351 351 350 348 348 348 349 348 349 348
308 308 308 308 309 309 311 312 314 318 317 317 314 312 311 310 313 317 317 318 318 316 326 334 336 341 342 345 348 345 350 346 344 343 347 351 351 350 348 349 347 349 348 348 348
304 304 305 306 307 308 309 310 311 313 317 317 317 314 312 310 319 320 319 320 320 319 328 334 337 341 341 346 345 347 344 347 344 342 344 350 350 351 348 346 346 349 348 348 348
302 302 303 303 304 305 306 307 311 313 314 316 317 317 313 315 314 316 318 319 317 328 330 334 338 338 340 341 342 347 343 343 344 342 341 345 350 350 349 346 345 348 348 348 348
301 301 302 302 303 304 304 307 312 313 315 316 318 316 313 316 314 313 315 316 325 331 330 333 336 336 336 339 340 340 341 341 340 341 339 344 347 349 349 349 347 348 348 348 348
300 301 301 301 302 303 304 305 311 314 317 317 317 315 316 318 314 313 320 329 333 332 329 331 334 336 334 338 332 337 337 334 334 337 338 343 347 350 350 350 349 348 348 347 347
300 301 301 301 302 303 304 306 311 314 316 317 317 314 319 317 316 314 320 326 333 332 330 331 332 336 333 329 328 331 332 334 336 336 337 341 346 349 350 351 350 349 348 347 347
300 301 301 302 302 302 304 308 312 313 314 317 315 317 321 315 314 314 324 326 333 333 331 332 331 332 334 331 330 330 334 335 338 335 338 342 344 344 349 350 351 350 348 346 346
300 300 301 301 302 302 305 309 311 312 315 319 318 318 318 319 318 313 321 324 331 332 328 330 328 330 333 334 332 332 333 335 338 336 339 344 344 342 346 348 350 350 348 347 346
301 301 301 301 301 303 303 310 315 319 312 322 326 322 322 320 319 314 318 327 332 328 325 324 326 327 326 329 330 331 332 334 337 336 337 340 342 343 342 347 347 350 349 349 347
301 301 301 301 302 303 306 309 306 305 309 311 312 316 322 321 323 318 319 322 326 327 325 324 326 326 326 325 327 328 330 332 335 334 334 337 338 339 339 344 346 348 349 349 348
300 301 301 302 302 305 307 307 306 306 310 314 314 315 315 318 321 322 317 320 325 326 324 326 325 325 325 326 327 327 329 331 333 334 332 334 336 337 336 339 342 345 348 349 349
300 301 301 301 306 305 307 306 307 306 315 318 316 316 316 319 321 322 316 320 322 325 325 326 325 325 325 326 326 327 327 328 330 332 336 334 340 340 339 341 344 344 347 349 348
300 301 301 302 304 307 306 306 306 308 317 320 317 315 316 321 324 321 320 317 322 322 325 325 325 324 325 325 325 325 326 326 327 329 331 334 336 337 339 340 344 346 345 348 348
300 302 302 306 307 306 305 306 308 315 315 321 316 317 318 319 322 322 321 318 319 323 324 324 323 325 325 325 325 325 325 326 327 328 331 333 335 337 338 340 340 344 344 347 348
300 302 303 303 305 304 304 308 311 314 317 320 320 319 320 320 322 321 323 324 326 325 324 324 325 324 324 326 326 325 326 327 327 328 330 332 333 335 335 336 339 341 343 345 348
301 302 303 304 304 304 306 310 310 315 317 316 316 317 320 321 320 321 323 325 325 326 327 326 326 325 325 326 327 325 326 327 328 327 328 330 331 333 334 334 335 336 338 344 347
302 305 305 304 304 306 307 309 309 315 313 314 316 319 322 320 320 321 322 325 326 327 329 328 328 326 326 325 327 327 329 326 327 328 328 329 329 330 332 334 334 334 335 338 344
303 305 305 304 305 307 309 308 310 310 311 313 315 317 320 320 321 321 322 322 325 326 327 329 330 327 325 326 326 328 327 326 327 328 329 327 329 330 332 332 334 334 336 337 341
305 306 305 304 306 307 308 307 307 307 309 311 313 314 316 317 319 321 323 320 321 325 324 327 329 329 326 326 327 326 327 327 327 327 328 329 329 330 331 333 333 334 335 338 341
305 306 304 304 307 307 307 307 306 307 307 310 311 311 315 317 318 321 322 320 316 321 325 326 328 331 328 326 327 327 327 328 328 330 328 329 329 328 329 330 333 333 334 336 338
305 305 304 304 307 307 306 306 306 307 308 309 312 312 312 315 318 319 319 316 315 320 324 325 327 331 331 328 327 327 327 327 327 328 331 329 328 329 330 330 332 333 333 334 336
305 307 305 305 305 306 306 306 306 306 307 306 308 310 312 312 315 317 317 315 314 316 316 319 327 330 332 331 329 328 327 327 327 330 329 331 330 329 329 330 331 330 330 330 333
305 305 305 306 305 305 305 305 305 306 306 305 308 308 310 313 313 314 315 315 315 314 317 319 327 326 329 325 325 329 328 328 328 329 330 330 330 331 330 330 330 330 330 331 333
305 304 304 304 304 304 304 305 306 306 305 306 308 306 307 311 312 312 312 314 315 315 316 317 324 323 326 324 323 324 326 327 328 329 329 330 331 330 330 329 329 329 328 329 328
305 304 305 304 305 304 305 304 304 304 305 305 305 306 306 307 307 308 308 310 311 312 315 315 319 321 326 324 324 325 326 326 327 328 329 330 330 330 330 330 329 329 329 329 329

GFSSW_850_thetae_045.txt.gz
Theta_e
308 308 309 309 310 311 313 317 319 319 319 318 314 312 311 311 311 311 314 318 318 317 317 330 339 347 347 347 349 349 351 354 349 351 348 345 344 345 347 349 350 350 352 352 351
305 305 306 306 307 308 309 310 313 315 318 319 318 315 312 311 311 315 318 318 317 316 324 332 339 344 345 345 347 349 350 353 347 349 347 348 345 343 346 348 349 350 352 351 351
303 303 303 303 304 304 305 306 309 309 313 316 320 318 315 312 318 320 320 319 318 316 323 331 335 341 342 343 345 347 348 348 344 344 346 346 349 346 343 349 347 350 352 350 351
301 302 302 303 303 303 304 305 306 307 311 313 316 319 317 313 323 329 319 319 318 317 323 329 334 338 341 344 343 347 344 345 344 343 344 346 348 348 346 342 346 348 350 350 350
301 301 302 302 303 303 304 305 306 306 312 314 315 316 316 320 318 319 317 319 320 318 323 327 332 336 341 340 342 345 344 343 346 344 343 346 348 349 347 344 345 347 350 350 350
301 302 302 302 303 303 304 305 305 306 312 315 316 315 315 323 322 319 320 319 321 323 324 327 331 335 338 339 341 341 342 342 344 343 341 344 347 347 348 346 346 347 349 349 349
301 302 302 302 303 303 304 304 305 308 312 316 317 315 320 323 321 316 321 324 326 327 326 329 330 335 337 339 338 340 342 342 344 343 342 341 346 347 348 348 348 349 347 348 348
302 302 302 303 303 303 304 304 306 309 312 315 316 314 323 324 323 318 319 326 330 331 329 329 331 333 335 337 337 340 341 344 342 339 341 341 346 345 349 350 350 349 347 347 347
301 302 302 302 303 303 304 305 308 311 312 316 318 321 327 323 320 322 319 323 331 331 331 329 330 333 334 337 338 336 339 341 341 339 341 340 345 343 348 350 350 350 349 346 347
301 301 302 302 302 303 304 309 311 315 322 321 324 323 323 324 323 320 321 323 328 333 332 332 332 335 336 338 337 335 335 337 339 340 340 341 343 347 348 348 350 351 350 348 346
301 302 302 302 302 303 308 312 314 322 321 324 326 323 326 325 321 318 323 325 328 333 335 332 335 336 332 337 337 335 334 336 338 340 340 342 342 344 346 347 346 349 350 349 347
301 301 302 302 304 307 310 310 310 308 311 311 312 314 322 325 325 320 322 326 331 336 334 332 335 332 331 331 335 335 335 335 335 338 340 341 344 344 344 346 346 347 350 349 349
301 301 302 302 307 309 310 308 308 309 311 312 314 315 316 322 326 325 320 325 331 335 332 329 331 330 327 328 331 335 335 334 335 336 340 339 342 341 342 341 345 344 349 349 350
301 301 301 302 307 308 310 307 308 309 314 317 319 318 317 318 324 326 319 326 331 336 331 328 328 327 327 328 328 328 331 333 333 336 341 338 342 341 340 341 342 342 346 349 349
301 301 301 306 308 310 307 307 308 310 316 321 320 319 319 319 324 325 323 324 327 328 332 328 327 327 327 327 328 328 329 331 332 334 337 338 341 341 341 341 341 342 342 346 348
301 301 301 307 308 308 307 307 309 315 317 322 320 320 321 320 323 326 324 321 325 327 329 329 327 328 328 328 328 328 328 329 330 332 335 337 340 341 340 342 341 342 342 343 348
302 303 304 306 307 306 307 308 312 312 318 322 321 322 322 323 323 327 327 323 324 326 327 328 329 328 328 328 328 327 327 328 329 332 333 333 336 339 338 338 340 341 342 342 346
302 306 308 307 306 306 307 311 311 312 317 317 317 318 320 323 325 326 327 328 323 325 328 328 328 329 327 328 328 328 327 328 331 330 330 332 335 337 337 336 337 339 340 342 344
303 308 308 306 306 306 309 310 310 313 313 313 315 320 322 323 324 326 325 327 327 325 327 330 330 329 328 328 329 329 329 328 329 330 330 330 332 333 335 336 336 336 338 341 343
307 308 309 305 306 308 312 310 310 310 310 311 312 317 321 323 324 325 326 326 328 327 328 330 332 330 328 328 328 330 329 328 329 332 332 331 332 333 334 334 335 336 338 338 342
309 308 308 305 307 309 309 309 309 307 308 309 310 313 316 317 320 324 326 325 325 328 328 330 333 334 331 329 329 329 330 329 329 329 331 333 332 333 334 334 334 336 335 336 338
309 311 307 306 309 309 308 308 307 308 308 308 310 312 313 315 319 322 324 324 319 323 328 329 331 334 332 329 329 329 330 331 333 333 330 332 333 333 333 333 334 334 335 335 337
309 309 308 306 309 309 308 307 308 309 308 308 309 311 313 315 319 320 322 320 318 323 327 329 331 334 335 331 330 330 329 330 330 330 333 331 333 332 332 332 333 334 334 335 337
309 310 309 307 307 308 308 307 307 307 307 307 309 310 311 313 314 318 320 319 317 319 317 322 329 333 336 335 331 330 330 330 331 333 332 333 332 332 332 332 335 335 334 336 338
308 309 308 310 309 308 307 307 307 307 307 307 309 309 309 312 314 315 317 318 319 318 322 324 330 331 332 334 332 331 330 330 331 332 332 332 333 333 332 333 333 333 334 334 335
307 307 306 307 307 307 307 308 307 306 306 307 308 307 308 310 312 311 314 316 317 319 320 322 326 330 333 332 331 330 331 330 330 330 331 331 333 334 333 331 332 332 332 331 332
304 304 306 306 307 308 308 307 307 307 306 307 307 307 307 309 309 310 310 311 313 315 316 319 324 330 333 332 330 331 331 332 331 331 331 332 332 333 333 333 332 331 332 332 332

GFSSW_850_thetae_048.txt.gz
Theta_e
303 303 303 303 304 304 305 306 308 309 313 318 320 319 316 313 312 311 313 317 319 318 316 330 326 337 347 351 348 348 354 356 352 348 345 345 347 348 348 351 353 354 351 351 349
302 302 302 303 303 303 304 304 305 305 307 309 315 319 318 316 313 313 316 318 318 319 318 327 327 334 345 347 345 348 351 350 347 346 347 346 343 346 347 348 351 353 353 351 350
302 302 303 303 303 303 304 304 304 305 305 307 312 314 317 316 317 320 321 320 319 318 318 327 329 335 343 344 345 346 350 344 346 345 345 347 345 345 346 347 353 354 352 351 350
302 302 303 303 303 304 304 305 305 305 305 306 312 313 315 315 325 327 322 320 320 318 319 325 330 337 343 344 343 346 347 345 344 345 344 348 347 343 345 345 350 352 352 351 351
302 303 303 303 303 304 304 305 305 305 306 307 312 315 313 319 321 322 320 319 318 318 320 324 330 334 340 342 342 344 345 346 345 344 346 344 345 345 343 345 349 352 352 351 351
302 303 303 303 303 304 304 305 305 305 307 309 314 317 313 324 325 325 323 319 321 319 319 324 327 333 337 339 341 342 344 344 345 345 344 347 348 344 343 344 348 350 350 351 350
302 302 303 303 304 304 304 305 305 307 308 310 314 316 317 323 326 321 323 324 325 323 320 324 324 331 334 338 339 339 342 343 344 343 344 341 348 348 344 345 346 349 350 349 351
302 302 303 303 303 304 304 304 305 309 313 310 314 315 320 326 326 323 318 321 324 324 322 325 325 329 332 336 339 341 341 344 344 344 344 343 344 348 345 347 347 347 348 348 348
302 302 303 303 303 304 305 307 311 312 314 315 319 319 325 326 326 326 322 322 326 327 327 327 328 329 332 336 340 340 341 343 343 343 343 343 342 346 346 345 349 348 347 348 348
302 302 302 302 303 307 309 312 313 315 325 321 323 325 324 326 326 326 325 321 327 330 331 331 330 331 333 336 342 340 340 340 342 343 341 341 341 345 343 345 348 349 348 347 347
302 302 302 302 304 309 311 312 311 322 313 319 326 323 324 328 325 324 325 322 325 332 333 332 332 333 333 335 336 338 339 337 338 340 341 340 344 345 344 345 346 349 350 347 347
302 303 302 303 306 309 312 311 309 309 311 311 313 314 319 323 324 324 323 323 324 331 334 334 335 333 332 334 335 337 337 336 335 338 340 341 342 349 346 345 346 350 350 350 347
302 302 302 303 307 311 312 310 309 310 311 310 312 313 314 317 321 327 322 324 326 329 335 335 335 334 333 334 333 337 338 336 335 336 341 341 342 345 349 348 341 344 350 350 349
302 302 302 302 308 311 311 308 308 309 312 315 317 317 315 315 320 326 323 326 329 330 332 335 334 333 334 333 332 333 336 337 336 336 337 342 345 346 344 345 347 347 349 349 350
303 303 302 306 307 312 308 308 308 311 316 322 321 320 319 317 321 321 327 324 329 331 333 336 334 332 333 332 331 331 332 334 335 335 335 336 343 342 345 345 343 346 345 349 349
303 302 304 308 310 310 308 308 309 313 313 321 322 322 322 320 319 322 324 324 326 331 333 334 333 330 329 330 328 329 329 330 333 334 337 336 341 342 343 345 342 343 342 348 349
304 304 307 308 309 308 308 309 311 312 314 316 316 318 319 322 322 321 326 327 327 331 334 334 336 330 329 329 328 328 328 329 330 333 335 334 337 342 342 343 342 343 341 342 349
305 306 309 309 308 307 308 311 311 311 313 314 313 314 317 321 323 323 323 329 325 328 330 330 335 333 329 329 329 328 328 331 332 332 331 333 337 339 339 340 340 340 341 342 344
307 310 312 310 308 307 310 312 311 311 311 311 311 313 316 318 320 324 325 327 328 326 331 332 331 331 331 329 330 328 329 329 329 330 330 331 333 334 337 338 339 338 341 343 343
308 311 312 310 308 309 312 311 311 311 310 309 309 311 311 313 315 319 324 326 328 326 327 330 331 330 330 330 329 330 329 328 329 332 334 331 336 336 337 339 339 338 339 340 343
310 312 310 310 309 310 312 310 310 308 308 309 309 309 309 313 314 316 322 324 325 328 328 326 329 331 331 331 330 329 331 329 328 329 332 333 333 336 339 338 339 339 337 337 342
309 314 311 309 310 311 311 310 308 308 309 310 310 308 310 313 316 318 322 323 323 322 327 329 327 331 332 332 330 329 330 331 333 335 332 334 333 335 336 338 337 337 337 336 339
309 311 311 310 311 310 310 310 308 308 309 309 309 308 309 311 314 317 318 319 318 321 324 325 330 332 333 334 331 331 330 329 331 330 336 333 332 334 334 336 336 336 335 337 339
309 312 311 309 310 311 311 309 308 308 308 307 310 309 309 310 310 313 315 316 316 320 321 322 328 333 335 336 335 333 330 330 330 334 332 334 334 333 333 332 335 336 334 337 338
308 310 309 310 310 310 310 309 308 309 309 308 308 309 309 309 310 312 313 314 314 319 321 325 330 331 332 333 335 331 330 331 331 333 334 334 336 335 334 334 336 336 336 336 338
306 307 307 307 308 309 309 309 309 308 307 307 308 309 309 308 310 310 311 312 315 315 318 321 329 330 333 333 333 335 331 331 331 331 332 333 334 336 336 334 337 336 335 336 337
306 304 304 306 308 308 310 309 309 309 308 307 308 308 308 308 308 309 309 310 312 314 315 320 324 328 332 333 334 335 334 332 332 332 332 334 336 337 337 337 337 335 334 333 333

GFSSW_850_thetae_051.txt.gz
Theta_e
302 302 303 303 303 303 304 304 304 304 305 305 306 311 319 320 317 314 313 317 316 316 318 327 321 326 344 352 353 354 351 354 350 350 349 346 350 353 353 353 352 351 350 346 342
303 303 303 303 303 304 304 304 304 305 305 305 305 309 313 317 319 318 316 316 316 318 317 317 330 326 334 349 351 352 351 354 346 345 347 346 346 348 353 353 352 351 349 343 344
303 303 303 303 304 304 304 304 305 305 305 305 306 308 312 313 317 321 322 320 317 318 318 317 323 326 329 340 346 347 349 349 345 345 345 344 343 346 351 354 352 350 349 346 346
303 303 303 304 304 304 304 304 305 305 305 306 307 309 313 313 324 326 322 321 318 318 318 319 321 328 329 336 344 346 344 344 345 344 343 341 344 346 346 354 352 350 349 348 349
303 303 303 304 304 304 305 305 305 305 305 307 308 310 316 313 319 325 321 320 320 318 318 319 321 327 329 337 342 343 343 345 345 344 342 341 344 346 352 354 351 351 350 350 350
303 303 303 304 304 304 305 305 304 305 305 309 309 311 316 318 322 325 323 322 319 319 318 319 322 326 331 336 340 341 341 343 345 345 345 344 344 345 354 353 351 350 350 349 350
303 303 303 304 304 305 305 307 308 309 310 311 313 311 316 315 323 326 325 325 320 319 318 319 323 325 330 332 335 339 339 340 345 346 346 345 346 349 349 353 352 351 351 350 350
303 303 303 303 304 306 310 312 313 311 312 312 314 314 318 314 322 325 325 325 323 322 318 319 322 323 324 332 334 336 337 340 339 344 346 346 351 346 348 352 352 352 351 351 350
303 303 304 304 304 308 311 311 310 312 316 321 318 318 321 322 323 325 322 323 324 325 324 321 321 323 324 328 331 332 338 339 339 341 342 345 350 346 346 347 348 350 352 351 351
303 304 305 305 304 308 311 312 309 321 316 319 322 321 320 320 326 326 322 321 321 324 324 323 323 323 323 327 331 333 337 337 338 340 342 342 348 346 346 344 345 348 349 350 351
303 304 304 305 304 309 312 311 309 312 311 309 310 320 315 322 325 327 326 324 322 325 326 326 326 326 326 327 330 334 337 338 337 338 340 341 347 346 346 342 344 347 346 348 348
304 304 304 305 305 309 313 310 308 308 309 309 310 311 312 318 315 323 326 326 321 325 328 330 330 329 329 329 330 333 335 337 337 336 337 341 346 347 346 346 346 348 348 347 348
304 304 304 304 306 311 312 308 308 308 308 309 311 310 312 312 313 316 322 326 322 323 331 331 332 332 330 329 331 332 333 334 336 334 333 337 347 345 342 344 343 346 341 346 346
307 305 304 304 306 309 311 308 308 308 308 313 315 315 317 313 314 317 321 324 325 322 326 332 332 332 332 330 330 332 332 334 336 335 333 335 340 347 344 346 344 344 341 342 343
308 307 305 306 306 310 309 308 308 309 312 316 315 315 313 314 315 316 324 321 324 324 324 328 334 333 332 333 331 332 331 332 335 335 333 335 338 344 348 349 345 344 344 343 344
308 309 306 307 308 309 308 308 309 310 313 313 313 313 312 313 316 320 319 321 323 324 325 326 331 333 332 332 332 332 331 329 331 333 334 332 335 338 347 350 347 342 342 342 346
309 309 307 308 308 309 307 308 309 310 312 312 311 311 310 312 315 315 317 320 324 323 327 329 329 332 333 332 331 330 328 328 329 331 332 329 330 331 338 341 344 344 343 347 349
310 310 309 311 309 310 308 309 311 311 311 311 310 310 310 312 313 313 313 319 323 323 325 328 332 330 333 330 329 330 327 324 326 327 328 326 330 331 333 336 341 344 347 349 349
308 312 312 313 311 310 309 311 311 310 310 309 308 308 308 309 311 312 313 317 322 326 323 327 329 332 331 331 327 326 326 324 324 327 325 325 327 328 329 331 335 338 341 349 349
305 311 313 311 310 309 309 311 311 310 309 308 307 309 309 309 310 310 314 316 319 320 319 323 324 329 332 333 328 325 324 324 324 325 327 327 327 328 328 329 331 332 338 343 348
305 311 312 312 310 310 310 311 310 309 308 309 309 308 309 309 312 312 313 314 318 317 317 320 322 324 327 332 332 325 325 324 323 323 325 329 329 328 329 329 330 331 337 340 348
306 310 312 311 311 311 310 310 309 309 308 309 308 308 309 309 310 311 312 313 314 314 316 317 322 324 324 326 330 327 326 325 325 323 324 323 327 332 331 330 331 332 335 340 345
307 310 311 310 311 311 310 310 310 309 308 308 307 308 308 309 312 312 313 313 313 313 314 317 322 326 324 324 325 329 326 326 323 324 325 325 326 331 329 331 332 333 335 337 343
308 309 310 309 309 309 309 310 310 309 309 308 308 308 309 308 309 311 311 311 311 311 314 317 320 322 327 325 326 328 328 326 324 326 325 327 329 331 331 332 332 334 335 336 336
308 309 308 308 308 307 309 309 311 310 309 308 308 308 309 309 308 310 310 310 310 311 312 313 317 323 328 328 329 330 329 328 326 325 328 326 332 333 333 334 338 335 335 338 339
307 307 306 305 306 308 308 309 310 310 309 309 309 307 308 309 308 309 309 309 310 311 310 311 317 321 331 330 330 332 330 329 328 327 327 327 327 331 334 338 336 337 339 342 340
306 307 305 305 306 307 308 309 310 309 309 309 309 308 307 307 308 307 308 308 309 312 311 310 314 318 330 331 332 334 332 329 328 328 327 328 328 334 335 336 335 336 333 336 337

GFSSW_850_thetae_054.txt.gz
Theta_e
303 303 303 304 304 304 304 304 305 305 305 305 305 306 306 313 319 320 317 317 316 316 319 319 323 331 339 348 353 354 355 356 351 350 348 349 350 353 353 351 351 350 346 342 347
303 303 303 303 304 304 304 304 304 305 305 305 305 306 306 312 315 321 323 319 315 315 315 323 320 337 343 349 352 353 353 354 347 344 346 347 351 353 352 352 350 347 346 343 346
303 303 304 304 304 304 304 304 304 304 304 305 306 306 307 310 314 323 321 319 317 314 315 320 327 326 329 335 348 350 354 349 348 345 345 345 344 351 352 353 349 345 348 343 346
304 304 304 304 305 304 305 305 305 305 305 305 306 308 309 314 322 324 320 320 319 314 316 316 321 323 324 328 335 346 346 348 347 345 345 343 344 352 352 352 349 347 347 342 345
304 304 305 305 305 305 306 307 309 310 308 309 308 310 312 313 314 324 321 321 319 315 317 317 317 318 323 326 328 337 342 345 345 344 344 343 344 347 349 351 348 344 342 344 347
304 304 305 305 305 305 308 311 312 310 310 310 311 310 312 316 318 321 322 323 320 316 317 318 318 321 323 326 329 337 338 342 343 344 344 343 343 352 352 350 348 344 343 345 348
304 304 305 305 305 305 308 311 311 309 313 310 312 312 315 311 317 326 324 324 322 319 317 318 319 321 324 327 329 330 337 339 340 345 345 343 346 356 352 350 349 347 346 347 349
304 305 305 305 306 305 309 312 310 312 316 316 319 317 316 312 313 315 323 324 324 321 319 319 318 321 320 323 323 331 331 335 335 345 345 344 349 352 351 351 350 349 348 348 349
305 305 306 305 306 305 310 312 309 311 317 310 319 321 318 316 320 323 320 323 325 322 319 318 318 319 320 320 320 324 330 333 335 344 346 346 351 352 353 351 350 350 349 349 348
308 307 307 307 305 306 311 311 308 309 320 310 320 320 317 318 320 323 323 324 325 322 320 319 319 315 316 317 322 325 331 332 335 343 345 348 348 351 351 352 351 350 350 349 348
308 309 309 308 306 307 312 309 307 307 307 307 307 310 310 310 310 320 322 324 325 324 320 321 318 318 319 319 322 327 329 332 335 336 345 348 348 349 351 351 352 351 351 350 349
307 308 309 309 306 310 312 308 308 308 307 309 310 309 310 311 309 318 321 324 323 322 321 322 322 320 322 322 322 325 328 332 333 335 335 346 348 347 348 348 350 349 348 350 351
307 308 310 310 307 307 308 308 308 308 306 308 312 312 312 311 310 312 315 321 323 320 322 324 327 324 325 325 325 326 326 330 333 333 333 347 350 347 345 342 345 347 348 348 349
307 309 310 310 307 308 307 307 308 308 304 309 312 312 311 312 312 314 314 316 322 322 320 324 326 327 328 328 327 326 327 329 332 332 334 334 355 348 346 344 346 346 348 347 347
305 308 310 307 307 307 307 308 309 309 308 313 311 311 309 310 312 314 314 315 319 320 318 321 328 328 330 330 329 328 327 329 331 331 331 333 343 348 347 346 346 346 347 346 346
304 306 310 308 308 308 308 308 309 306 311 311 310 308 308 308 309 312 311 313 316 320 319 321 323 329 330 330 330 328 328 328 329 326 331 332 331 342 349 347 345 344 345 345 340
304 305 311 310 310 310 309 309 305 307 309 309 307 307 307 308 308 311 310 311 313 319 321 323 323 322 330 331 330 330 326 330 328 329 329 328 328 330 344 344 344 343 345 345 341
304 307 312 310 310 310 310 305 309 309 307 307 307 307 308 309 308 309 309 310 315 317 319 321 323 323 323 330 331 329 329 326 330 327 329 324 327 328 339 341 343 343 344 344 342
303 312 312 312 312 311 310 306 308 308 307 307 307 307 307 308 309 310 308 312 314 315 316 317 322 325 326 326 330 330 330 323 320 320 322 323 324 325 326 339 343 344 343 343 342
303 311 312 312 312 311 304 307 309 308 307 307 307 307 306 306 310 309 310 312 312 314 313 315 320 322 325 327 328 329 323 325 317 325 323 322 323 326 325 324 334 340 344 343 343
303 309 312 312 311 310 305 305 308 308 308 308 307 307 306 306 306 307 311 311 312 313 312 313 315 322 322 326 329 325 327 324 322 318 323 323 324 322 323 323 323 332 343 343 344
304 305 311 309 308 307 306 308 309 308 308 307 307 306 307 307 308 310 310 312 311 312 312 313 317 320 321 322 324 330 322 322 324 320 318 320 325 327 325 324 325 325 340 343 347
305 308 309 309 305 305 306 308 309 309 308 307 307 306 306 308 309 311 311 311 310 311 313 313 319 318 322 320 321 322 328 320 317 316 320 324 325 323 322 325 327 327 332 345 348
307 304 308 307 306 306 306 308 309 309 309 308 307 306 307 306 307 310 310 310 309 309 311 310 313 317 319 322 320 322 323 323 322 322 321 322 323 324 324 326 326 327 331 341 347
307 304 306 304 305 305 305 307 309 309 309 308 308 308 307 307 307 308 308 309 308 309 310 309 313 311 313 315 318 322 327 325 322 322 323 323 324 324 323 328 327 330 333 339 347
306 307 306 305 306 305 306 307 309 310 309 309 309 309 309 304 306 307 307 307 308 309 308 308 311 310 312 321 324 327 329 328 324 323 324 321 324 323 326 332 333 333 333 341 346
306 306 306 306 306 306 307 308 308 307 308 309 308 308 308 307 306 307 307 306 308 310 310 309 308 309 315 323 329 330 329 330 325 323 324 324 322 329 334 330 329 335 337 339 346

GFSSW_850_thetae_057.txt.gz
Theta_e
303 303 303 304 304 304 304 304 304 304 304 304 305 306 306 307 309 317 321 318 315 315 321 318 320 325 343 349 353 354 353 354 353 351 349 348 350 350 351 349 350 347 342 343 346
303 304 304 304 304 304 304 305 305 306 305 305 305 306 306 307 308 312 323 323 317 315 320 318 323 333 347 348 350 351 353 355 350 345 347 349 350 353 351 350 348 345 342 345 346
304 304 304 304 305 305 305 308 309 311 311 310 307 306 308 308 310 319 320 323 321 315 315 320 323 338 341 346 350 351 354 350 349 344 346 348 348 352 351 351 347 343 344 346 347
304 304 304 305 305 305 306 309 311 311 310 309 310 310 308 308 316 321 321 320 322 314 314 320 325 329 325 332 338 348 348 351 350 348 345 346 346 352 352 352 349 346 343 346 347
305 305 305 305 305 306 306 309 310 310 310 314 310 310 310 311 311 317 321 321 321 316 314 324 325 326 323 324 331 338 342 342 345 345 344 344 348 352 352 351 349 343 345 345 347
305 306 306 306 306 306 306 310 311 310 312 311 311 310 311 311 312 320 317 321 320 317 314 321 326 325 322 322 330 332 333 335 338 340 343 344 348 351 351 349 345 343 344 344 346
309 309 309 308 307 306 306 310 310 308 311 312 311 314 313 311 313 323 321 323 321 316 314 316 317 323 321 324 325 326 329 330 334 339 344 343 347 354 349 346 344 343 342 345 346
308 308 309 310 308 307 306 308 310 308 311 318 310 317 316 313 311 313 316 324 321 315 315 317 317 318 320 322 321 327 326 329 332 337 344 343 347 352 348 344 343 343 343 344 346
307 308 308 310 309 307 307 309 308 308 315 309 314 320 318 318 315 318 317 319 322 323 317 317 318 318 319 319 318 319 327 331 332 337 344 344 351 352 349 347 344 342 343 345 346
306 307 308 310 310 307 309 308 308 308 308 310 314 316 313 311 312 315 317 320 322 325 321 318 318 314 312 315 325 321 326 328 331 340 344 346 347 353 350 349 347 345 344 346 347
306 306 309 311 310 307 309 307 308 308 308 308 309 307 311 311 313 312 316 320 323 322 316 317 314 316 316 317 320 322 327 331 332 338 345 346 348 354 351 350 349 348 347 346 348
305 305 307 310 309 306 308 307 308 307 306 309 311 310 310 310 310 313 314 320 322 320 318 317 317 316 316 317 318 320 321 324 328 332 343 345 347 352 352 350 350 349 349 348 347
304 304 306 310 308 307 307 307 308 308 305 308 311 310 309 310 311 312 313 314 319 320 321 321 321 319 319 318 320 319 321 322 327 331 337 340 348 352 351 351 351 350 349 349 348
304 304 306 310 307 307 307 308 308 308 303 308 310 309 308 311 311 311 311 314 316 321 321 320 322 322 320 320 320 320 322 323 326 329 332 342 351 349 349 351 346 350 351 351 349
303 304 308 310 308 309 308 309 309 308 307 311 308 308 308 308 308 310 310 313 314 314 316 321 322 322 322 322 322 323 324 324 325 327 328 335 348 346 346 350 348 344 349 349 350
303 305 311 311 309 310 310 309 309 305 308 309 307 307 307 308 309 309 310 314 314 318 316 316 320 322 323 324 325 326 325 325 326 324 329 329 332 330 347 346 345 344 344 346 348
303 308 311 311 310 310 311 309 304 305 307 307 306 306 306 306 308 309 310 314 315 318 319 319 320 320 323 324 326 327 323 325 326 326 330 326 329 331 342 343 343 343 343 344 346
303 310 312 311 311 311 311 305 308 310 307 306 306 306 307 307 307 308 308 311 313 314 316 317 322 320 321 324 327 327 323 324 328 328 328 325 327 328 333 342 343 343 343 343 344
304 310 311 312 311 311 310 304 307 308 306 306 306 306 305 306 309 307 308 312 314 313 315 317 319 316 318 322 326 328 329 324 323 317 325 328 323 324 328 337 341 342 342 343 343
304 307 312 311 312 310 304 306 307 307 306 307 307 306 306 305 307 305 309 310 313 312 312 314 316 315 317 320 322 328 323 328 321 325 323 321 322 328 326 331 336 340 342 342 342
304 308 310 309 310 308 304 304 308 309 308 307 306 306 306 306 306 307 308 310 310 310 311 312 315 317 318 320 322 323 328 325 326 322 330 321 323 319 323 326 334 338 341 342 342
305 302 308 309 307 304 305 306 308 308 309 307 306 305 305 306 307 308 309 311 310 310 310 313 315 319 319 320 318 319 324 320 331 325 317 321 327 322 321 321 324 336 340 341 342
305 307 308 308 304 303 304 306 307 309 309 307 306 306 305 307 307 308 310 311 311 311 311 312 316 315 320 318 318 319 324 326 323 317 319 328 327 320 320 322 321 323 330 339 342
306 303 306 306 305 305 305 307 308 308 309 308 307 306 306 306 305 307 310 310 309 309 311 311 313 313 317 317 314 315 316 318 322 326 321 323 325 322 321 321 321 324 326 328 338
306 303 306 304 303 305 306 305 307 308 309 308 308 308 308 306 305 305 306 307 309 310 310 309 313 311 311 312 312 313 315 316 318 321 324 324 319 320 319 321 322 330 332 327 336
306 306 306 306 306 306 306 307 308 310 308 309 309 309 308 306 304 305 304 304 307 307 309 308 312 312 311 311 312 314 316 318 320 322 319 319 320 319 321 330 332 330 328 329 339
306 306 306 307 307 307 307 308 308 306 306 308 309 308 308 308 307 306 306 305 306 307 308 309 312 310 310 315 320 324 322 322 325 323 324 321 323 321 337 339 338 338 331 333 342

GFSSW_850_thetae_060.txt.gz
Theta_e
304 304 304 304 305 305 305 307 308 309 309 309 308 306 306 307 307 307 314 322 317 314 314 317 328 328 344 349 351 353 351 352 352 350 350 348 350 352 350 345 348 344 342 343 342
304 304 304 305 305 305 305 307 310 310 310 309 309 309 307 307 308 310 314 315 320 314 320 315 321 330 346 348 351 351 351 351 348 345 346 350 349 351 351 348 346 344 342 342 342
305 305 305 305 305 305 305 306 309 310 310 309 313 310 309 307 309 317 321 320 318 314 319 320 317 336 344 347 349 350 352 351 349 344 346 350 351 351 350 350 345 344 343 343 342
307 308 308 307 307 307 306 306 309 310 310 310 311 311 309 309 315 322 321 320 320 314 320 318 326 337 333 337 346 348 348 350 350 349 346 346 349 351 350 351 350 346 342 342 344
308 308 309 310 309 308 307 306 308 310 308 308 311 311 309 310 309 311 318 321 320 318 319 321 333 328 328 331 333 343 343 344 348 347 343 344 348 352 351 351 348 344 343 344 346
307 307 308 309 310 310 308 307 308 309 308 309 314 311 311 309 310 318 319 317 321 318 317 320 329 330 326 324 331 334 338 338 338 339 339 343 346 351 350 350 345 344 343 344 346
306 306 307 309 310 311 309 307 308 308 308 312 309 311 312 312 313 315 316 322 320 318 315 318 322 323 322 321 324 328 325 326 329 335 341 344 352 353 348 348 343 344 344 344 346
305 306 306 309 310 310 308 308 308 307 309 308 310 314 315 317 316 314 315 316 323 317 315 319 321 321 320 320 319 323 324 327 328 331 338 343 345 351 347 345 343 344 344 344 346
305 305 305 307 309 310 308 308 307 308 308 309 314 314 314 313 312 313 315 316 323 317 315 316 319 317 318 317 318 316 326 327 330 331 342 341 344 350 345 345 343 343 343 344 345
304 304 305 307 310 308 307 307 308 308 308 311 311 313 312 310 311 312 314 317 320 318 317 318 317 313 311 315 321 322 321 327 332 333 340 344 345 350 344 343 344 342 342 344 345
303 304 305 308 308 307 307 307 308 308 308 307 308 309 309 310 312 312 313 320 323 322 318 316 314 315 316 316 319 321 324 327 329 333 343 344 344 352 348 344 343 342 342 342 344
303 303 305 307 308 306 307 308 308 308 307 308 310 309 308 309 310 310 313 320 320 318 314 314 315 315 315 315 318 319 321 322 325 330 340 342 344 351 349 348 345 342 342 343 344
303 304 305 309 308 307 308 309 310 308 305 308 310 308 309 309 310 309 311 313 315 319 316 316 316 316 315 315 315 316 320 320 325 328 341 342 345 352 351 350 348 347 344 343 344
303 304 306 312 308 309 309 310 309 308 301 307 308 308 308 310 308 308 310 312 313 319 320 318 319 318 316 315 316 313 317 321 321 325 332 338 341 346 351 352 349 349 348 347 345
303 303 311 311 308 309 309 310 309 307 305 309 307 308 308 308 308 308 311 313 312 313 314 321 320 321 317 317 317 317 318 319 321 323 328 332 343 341 348 353 352 349 349 348 348
304 304 311 311 309 310 310 309 308 304 306 307 307 306 305 306 308 309 312 314 315 316 315 314 316 319 321 320 318 319 323 320 321 321 326 325 336 329 346 348 348 349 349 349 349
305 304 311 311 310 311 310 309 303 305 306 306 306 305 305 305 307 307 313 313 314 316 316 317 319 318 318 320 320 320 320 322 324 324 327 323 327 329 331 342 343 345 347 347 350
306 304 311 311 311 310 311 305 307 309 305 305 306 306 306 305 306 307 307 312 313 313 314 316 319 318 315 318 321 321 320 322 326 325 324 321 327 328 328 335 340 342 344 345 347
305 305 311 310 311 311 310 304 306 307 306 305 305 305 305 305 307 306 307 313 313 312 314 316 318 314 315 317 318 323 324 321 321 319 322 325 323 324 325 328 333 339 341 342 344
305 306 310 310 310 310 304 305 306 306 307 306 306 306 305 305 306 306 307 310 313 311 310 313 312 314 315 317 318 318 322 327 320 327 324 323 322 331 326 326 329 336 341 341 342
306 307 308 309 309 308 304 303 307 308 308 306 305 305 304 306 305 306 306 310 309 311 310 310 312 312 315 318 319 319 321 323 325 323 327 322 323 319 324 327 328 331 339 340 341
306 300 307 309 306 302 304 304 307 307 309 306 305 304 304 304 305 305 307 309 310 309 310 311 312 314 315 315 316 317 318 321 329 327 322 321 328 322 322 323 326 329 333 336 340
305 305 306 309 303 302 302 305 306 306 308 308 307 305 305 305 306 306 309 310 311 310 310 310 313 313 314 315 314 315 315 315 317 319 325 330 327 321 319 319 321 322 330 335 337
305 302 306 306 304 305 306 305 306 307 307 308 307 306 305 305 304 306 309 310 309 311 312 310 309 312 313 313 311 313 313 314 313 320 326 327 326 321 324 320 320 322 323 326 336
305 302 304 305 304 306 306 306 306 307 308 308 308 307 308 307 305 305 305 307 309 311 310 308 309 307 309 310 311 312 312 313 314 315 318 325 323 322 321 322 322 322 325 327 326
306 306 305 305 306 307 306 308 308 309 308 307 309 309 308 308 305 306 305 304 307 307 307 307 305 311 311 311 312 313 313 313 315 316 317 319 320 321 323 322 334 336 337 336 331
306 306 306 307 307 307 308 307 307 307 306 306 308 305 306 307 307 307 306 305 304 305 305 307 307 311 310 310 311 315 314 318 321 319 321 320 322 322 335 335 331 333 337 339 336

GFSSW_850_thetae_063.txt.gz
Theta_e
305 306 306 306 306 306 306 306 307 309 309 309 309 311 309 307 307 308 310 313 319 314 316 329 336 334 344 348 348 351 355 357 354 351 352 350 352 354 349 345 346 344 344 344 344
308 308 309 308 308 307 306 307 307 308 309 309 310 310 311 309 308 309 311 312 318 315 313 323 339 341 345 349 350 352 355 352 349 347 347 349 351 353 349 347 347 345 344 345 345
307 307 308 309 310 310 308 308 307 308 309 308 309 310 309 309 309 319 321 322 315 316 316 330 336 339 341 347 349 350 353 350 348 345 348 351 350 352 350 351 348 346 345 345 346
306 307 307 308 309 311 310 309 307 308 309 308 309 311 311 309 315 318 319 321 318 316 319 328 334 334 337 343 347 350 348 351 351 350 347 348 352 352 351 351 349 347 345 345 346
306 306 306 307 309 310 310 309 308 308 308 308 312 312 310 310 309 313 315 320 318 316 322 327 330 329 329 334 338 347 345 345 347 347 345 345 350 353 352 351 348 346 345 345 345
305 306 306 306 308 310 310 309 309 309 308 309 311 311 311 311 310 315 319 318 317 317 325 327 327 327 327 332 332 334 336 342 341 341 343 343 344 351 352 348 347 346 345 345 345
304 305 305 306 308 309 309 309 309 308 308 309 311 313 313 314 312 314 315 319 317 319 326 327 326 325 325 324 328 330 333 331 330 332 340 342 348 351 350 348 347 346 345 346 345
303 304 305 306 311 309 309 308 308 308 308 309 312 314 315 313 313 311 315 315 320 326 324 322 322 324 321 321 321 323 324 325 329 331 338 343 349 351 349 348 347 346 345 346 345
303 304 305 306 311 309 308 307 307 308 309 312 311 313 311 311 312 311 314 315 323 328 318 319 321 320 319 323 324 324 322 323 326 333 341 344 346 350 348 348 348 346 345 345 346
303 304 305 306 310 307 307 307 308 308 308 312 310 312 310 309 310 312 312 316 322 319 317 317 320 319 320 322 321 323 323 327 325 333 340 345 345 351 348 348 348 347 345 345 345
303 303 305 306 309 307 307 308 309 309 307 308 308 309 309 309 311 309 313 320 320 317 317 318 317 320 319 320 321 323 326 324 330 330 339 343 344 350 348 348 347 347 346 345 345
302 303 304 309 308 307 308 309 309 309 309 308 308 308 308 309 310 309 316 321 322 322 318 317 318 318 318 317 319 320 324 326 328 331 340 342 344 344 350 349 348 346 346 345 345
305 303 304 311 309 309 309 310 310 309 307 308 309 308 308 309 309 308 310 313 321 322 322 322 320 318 317 317 318 320 320 323 327 327 335 340 342 347 351 349 347 347 346 344 345
308 304 304 311 308 309 309 310 309 308 309 309 309 308 308 309 309 308 310 312 315 322 322 323 323 319 319 318 318 319 320 321 323 326 332 338 344 346 350 353 351 348 346 345 344
308 305 306 310 308 309 310 310 308 307 310 309 308 308 308 308 308 308 310 313 315 316 319 324 323 322 320 319 318 319 318 319 321 324 327 330 340 340 346 354 354 351 349 346 345
308 305 306 310 310 310 310 310 308 309 309 309 308 308 308 307 308 308 313 314 315 318 318 319 317 322 324 321 319 319 321 320 320 320 322 329 334 339 345 349 352 351 350 349 348
307 304 307 310 310 311 310 308 310 309 309 308 308 308 307 308 308 309 314 315 317 317 319 319 320 319 320 323 321 319 320 322 324 323 321 323 329 331 336 344 344 349 350 350 350
306 305 309 309 310 311 311 310 310 310 308 307 307 307 308 307 307 308 312 312 313 316 318 319 319 320 317 321 323 323 323 323 325 325 323 322 328 331 331 330 341 344 347 350 350
306 308 310 309 310 310 310 311 310 309 308 307 308 308 308 307 308 307 311 313 314 312 316 319 320 316 317 318 321 324 324 323 324 325 327 324 325 327 330 332 332 335 343 347 349
308 309 308 310 309 309 311 309 308 308 309 307 309 308 308 307 308 307 307 312 313 311 311 313 308 311 316 317 319 322 324 325 325 326 327 327 327 326 329 332 333 334 336 341 346
308 309 307 309 309 309 311 309 309 308 309 308 308 308 308 307 307 307 307 311 312 311 311 311 311 308 311 317 323 322 323 326 327 327 327 327 328 329 329 332 333 334 333 338 341
307 307 308 311 310 306 309 307 306 308 309 309 307 308 307 307 307 307 308 309 310 311 311 312 312 310 309 310 315 316 321 324 328 330 331 329 329 328 330 330 332 332 333 335 338
305 305 307 309 310 308 306 306 306 308 308 309 309 307 306 307 307 308 308 311 310 311 312 313 313 310 310 314 316 316 318 319 320 324 330 332 329 330 330 329 328 330 331 334 339
305 309 307 307 305 308 307 307 308 307 308 309 309 309 308 308 308 308 309 311 311 311 312 312 312 310 307 310 310 313 315 316 317 324 326 329 332 331 330 331 331 329 327 326 336
306 306 305 309 308 307 307 307 307 308 308 307 310 310 309 310 308 308 307 310 309 310 312 311 311 310 309 308 308 310 311 313 316 318 324 327 329 330 332 332 333 332 328 330 329
307 307 306 306 306 307 307 309 307 308 307 308 308 308 308 308 309 308 307 307 309 311 312 310 310 310 309 308 310 310 312 313 315 317 318 321 325 326 327 336 332 335 337 338 339
307 306 306 307 308 308 308 308 308 309 307 307 307 307 308 308 307 307 307 308 308 309 311 309 310 309 307 309 313 315 313 315 316 320 320 324 325 329 331 338 332 331 332 334 338

GFSSW_850_thetae_069.txt.gz
Theta_e
306 306 306 307 307 308 310 311 309 308 308 309 309 308 310 310 310 308 315 318 319 316 322 332 336 339 342 345 346 346 358 358 354 355 357 353 356 356 354 353 352 351 353 351 349
305 306 306 306 307 308 309 310 310 308 308 309 309 308 310 311 309 319 319 315 316 314 324 335 337 339 342 344 345 347 358 355 352 350 355 354 354 356 354 353 352 352 351 350 349
304 305 305 306 307 308 308 309 309 309 309 309 309 309 311 310 323 323 320 310 312 314 334 335 336 340 340 341 345 344 351 351 351 350 351 353 353 353 353 353 352 352 352 349 348
304 304 305 306 306 309 309 309 309 310 309 309 309 310 311 312 326 322 319 320 314 315 336 336 336 338 339 342 343 346 344 346 350 350 351 352 354 353 352 352 351 352 351 349 348
304 304 304 305 306 309 310 309 309 310 310 309 309 310 314 322 319 318 315 318 320 317 336 335 336 336 337 336 339 343 344 342 345 350 350 350 352 350 349 351 351 351 351 350 349
304 304 304 305 306 309 311 310 310 310 310 309 310 313 320 322 316 318 324 320 325 321 329 333 333 334 333 332 334 335 340 341 343 350 348 349 351 351 351 352 353 351 351 350 349
304 304 304 305 306 309 311 309 309 309 309 309 313 316 322 320 317 317 323 326 325 323 329 331 330 332 329 329 329 332 334 336 339 348 349 348 351 351 353 352 353 352 351 350 349
304 304 304 304 306 310 310 309 309 309 310 313 315 324 321 315 316 315 321 325 327 328 330 331 329 328 329 327 326 329 332 336 336 343 345 347 353 349 354 352 353 352 350 350 349
307 308 306 305 307 310 310 309 309 308 312 312 319 325 319 315 315 315 318 326 327 331 329 328 327 327 328 327 328 326 329 333 335 339 341 344 351 344 354 353 353 353 351 350 349
309 309 308 304 309 310 311 312 309 310 311 315 320 321 315 316 314 316 316 324 327 330 327 327 327 328 329 328 328 326 326 329 332 335 336 341 349 347 352 352 353 353 351 350 349
309 309 307 305 309 310 313 316 320 319 316 315 316 315 314 315 315 317 319 324 326 329 326 326 329 327 329 329 327 327 327 326 330 333 337 338 348 355 351 351 353 353 352 349 350
309 308 307 305 309 312 314 315 313 313 317 313 313 314 313 314 316 318 322 324 324 330 329 327 326 327 326 327 327 326 327 328 328 331 333 339 344 351 352 351 352 352 353 351 350
307 307 306 306 309 313 314 314 313 313 316 316 314 314 314 314 316 315 318 324 326 326 328 329 327 326 326 326 326 326 327 327 328 329 332 333 344 348 351 351 350 352 353 352 349
306 306 306 309 312 314 316 314 313 312 319 317 315 314 314 314 315 313 315 319 322 326 324 326 326 326 326 325 326 327 326 327 326 328 332 333 338 347 348 353 351 350 352 352 351
306 306 304 307 314 316 314 314 312 313 318 316 315 313 313 315 315 315 314 317 319 322 324 326 325 325 326 326 325 326 326 326 325 326 329 333 336 341 349 351 353 350 350 351 352
306 306 304 314 315 314 314 314 312 317 319 315 314 315 315 314 315 314 315 315 317 320 322 323 325 326 325 326 326 326 325 326 326 326 326 327 332 337 344 350 349 349 349 350 351
310 308 306 310 315 313 314 315 319 320 318 316 316 315 316 317 316 315 317 318 318 319 319 319 321 324 326 326 326 326 327 328 328 328 327 327 326 333 337 341 346 349 348 349 350
311 308 312 312 313 313 315 319 321 320 318 315 315 315 316 317 317 316 316 317 318 318 320 319 321 321 323 325 327 327 327 329 332 330 328 327 327 327 332 336 339 344 347 348 349
311 313 314 314 313 313 316 322 322 319 317 316 316 316 317 316 315 316 317 318 318 318 318 319 319 323 323 323 325 328 328 327 329 331 331 329 328 328 329 331 336 341 345 348 348
312 314 314 314 313 314 319 321 319 316 316 317 318 318 318 318 316 317 317 317 317 316 315 318 320 322 322 323 325 326 328 329 328 331 334 332 331 329 329 328 333 339 343 345 348
314 317 314 314 314 317 321 321 318 315 314 316 317 318 317 317 317 317 317 316 316 316 314 315 316 318 319 322 323 324 327 329 329 329 331 332 332 332 331 329 330 334 339 342 345
316 319 314 314 319 318 320 316 312 315 314 315 315 316 316 316 316 316 316 317 314 315 316 316 315 317 317 317 319 320 324 326 331 331 329 331 332 333 332 331 330 331 332 335 338
317 317 314 315 321 318 315 315 313 314 314 315 315 314 315 315 315 315 315 315 314 313 315 317 316 317 317 317 317 320 322 323 325 329 332 331 331 334 332 332 332 330 331 333 335
317 321 316 314 314 316 316 315 314 311 313 312 313 313 314 314 314 314 314 313 312 312 313 313 317 317 317 318 317 317 318 322 325 327 328 330 331 332 333 333 332 333 332 331 333
316 316 314 316 315 314 315 314 313 313 312 311 312 312 313 313 314 314 314 314 313 312 313 314 315 315 316 316 315 315 317 320 323 327 329 329 331 333 333 333 332 333 335 334 335
316 315 313 313 312 312 311 310 311 311 312 311 311 311 311 313 312 314 313 314 315 314 314 314 316 315 316 316 315 314 314 314 316 319 322 324 327 329 329 330 333 334 336 337 339
312 312 314 312 312 313 312 311 310 310 311 310 310 311 311 311 310 310 311 311 312 314 315 315 316 316 317 314 315 315 314 314 315 316 317 319 323 326 328 329 330 333 339 339 339

GFSSW_850_thetae_072.txt.gz
Theta_e
305 305 305 306 306 307 308 309 310 310 309 309 309 309 309 310 309 310 310 318 320 320 317 324 330 335 341 346 345 346 349 359 357 357 358 349 354 355 354 353 352 354 351 350 349
304 305 305 306 306 307 309 308 309 310 309 309 309 309 309 311 310 315 318 318 319 320 315 328 331 335 339 342 345 347 351 359 352 354 349 346 351 357 353 352 352 354 352 351 349
304 304 305 305 306 307 309 309 308 309 310 310 310 309 310 312 322 326 322 319 315 318 318 333 333 336 338 340 343 346 348 350 350 352 349 356 352 347 353 353 351 354 352 350 349
304 304 304 305 306 307 309 310 309 309 309 310 309 309 310 313 330 325 323 317 313 318 319 334 335 336 339 341 341 346 345 344 347 349 352 352 355 355 353 352 352 353 351 350 349
304 304 305 305 305 306 309 310 310 309 310 310 309 309 312 325 323 320 319 319 313 318 325 337 336 337 339 339 340 342 344 344 345 344 351 351 352 353 350 344 352 353 351 350 349
304 304 305 305 305 306 309 311 310 310 310 310 309 311 313 326 319 320 322 328 323 319 327 337 336 337 337 336 336 339 340 342 343 342 350 349 353 352 353 350 353 352 350 350 349
305 307 308 307 305 306 310 311 310 309 310 309 312 313 327 324 319 319 321 327 326 324 325 336 335 335 335 334 332 332 336 336 339 341 351 348 352 353 353 353 351 352 350 349 350
309 309 309 308 305 307 310 310 309 309 312 313 314 323 330 318 317 317 321 326 327 328 324 331 333 332 333 332 329 330 332 335 335 339 344 350 353 354 353 353 352 352 351 351 350
310 309 309 308 305 308 311 312 310 309 312 313 320 326 328 317 317 317 320 325 328 326 328 332 333 332 329 333 330 329 328 331 334 337 340 349 353 355 353 350 353 351 352 351 350
309 309 308 308 306 310 312 314 313 311 314 316 320 323 321 318 316 317 317 323 327 329 331 330 329 329 330 331 331 329 328 328 332 335 338 344 348 349 342 343 347 352 350 351 350
309 308 307 307 306 312 315 317 322 325 320 320 320 320 317 317 316 318 319 323 327 330 330 330 331 331 331 329 330 328 328 327 327 331 334 340 347 347 343 342 347 351 350 350 350
307 306 306 306 307 314 316 317 316 316 317 317 316 315 315 316 318 319 322 326 327 330 329 328 331 331 328 329 329 330 329 328 329 329 332 335 341 347 345 345 344 345 350 349 350
305 305 306 305 309 315 316 316 316 316 317 319 316 316 316 316 318 318 321 325 327 326 329 329 327 327 328 328 329 329 329 328 328 329 329 332 338 351 346 346 349 346 351 348 350
306 305 305 306 314 316 318 316 316 315 319 320 316 316 315 315 317 316 316 320 325 326 326 329 329 329 327 327 328 328 328 327 328 328 328 330 333 351 356 355 351 352 352 350 349
307 307 305 304 314 318 317 316 315 315 320 319 317 315 316 316 317 316 316 317 320 323 325 326 325 327 328 328 327 328 328 328 327 328 328 328 331 332 347 351 348 345 351 350 348
310 310 307 317 316 317 315 316 316 318 319 318 317 316 316 316 317 317 316 316 319 320 322 323 323 326 326 326 327 327 326 327 328 327 329 327 329 334 340 355 346 342 346 349 349
311 310 307 311 317 316 315 318 320 320 321 318 318 317 317 318 318 317 317 318 318 319 319 319 321 323 326 327 326 327 327 327 329 329 328 327 327 332 333 349 349 344 346 350 351
312 311 315 314 315 315 316 320 323 323 320 318 317 317 317 319 318 318 317 318 319 319 319 320 322 320 322 325 328 326 327 329 330 329 328 328 330 330 330 331 347 343 347 344 349
313 316 316 317 316 315 318 323 324 321 319 319 319 319 319 319 317 318 318 318 319 320 320 320 319 321 323 322 325 327 328 327 328 329 330 330 330 330 331 330 332 345 343 345 345
313 318 317 316 317 316 320 322 321 319 318 319 320 320 320 321 319 318 318 319 319 319 319 319 319 320 321 323 323 324 325 327 329 331 333 331 334 332 333 332 331 334 344 347 347
317 320 318 316 317 319 322 323 321 318 316 318 319 319 320 320 320 319 319 319 318 318 317 317 317 318 319 322 322 324 326 326 328 330 331 332 332 334 336 333 332 331 334 346 345
320 321 317 316 320 321 322 318 315 317 317 317 317 317 318 318 318 318 319 319 317 317 317 318 318 318 318 320 322 323 324 324 331 332 332 332 332 334 336 333 331 330 330 338 344
321 320 317 318 321 321 318 317 315 316 316 316 316 317 316 316 317 317 317 316 316 316 316 317 318 319 318 318 319 318 319 322 323 326 334 332 331 332 334 333 331 330 330 332 340
320 321 319 317 316 318 318 316 316 313 314 313 314 314 315 316 316 315 315 315 314 315 315 314 316 318 320 320 319 320 318 320 321 325 326 331 331 332 334 336 336 333 331 331 334
318 317 316 318 316 316 317 316 316 316 313 313 315 313 313 315 314 314 314 315 314 315 314 315 316 315 316 318 318 318 318 318 320 323 326 326 331 332 332 333 335 334 335 336 335
317 318 315 315 315 315 314 314 313 313 313 314 312 312 312 313 313 314 313 313 314 314 316 316 317 316 316 317 317 318 318 317 318 320 323 326 327 329 329 329 332 333 335 341 341
315 316 317 314 315 316 314 313 313 311 313 312 311 312 312 312 311 311 311 311 313 314 315 316 318 318 318 315 317 318 318 317 317 318 320 322 324 326 324 329 330 331 330 332 340

GFSSW_850_thetae_075.txt.gz
Theta_e
304 304 304 305 305 306 307 308 308 309 310 309 309 309 309 309 310 310 310 313 319 320 321 323 319 330 334 348 351 350 351 353 357 358 352 344 350 352 354 351 351 352 350 347 347
305 305 305 305 305 306 307 308 309 308 309 310 310 310 309 310 311 311 312 313 317 320 319 321 324 331 334 341 344 346 349 352 352 352 353 347 347 349 355 353 351 350 351 347 349
304 305 305 305 305 305 306 308 309 309 309 309 310 309 309 310 323 326 315 314 318 318 320 319 326 331 334 337 339 342 347 348 349 350 351 352 342 345 352 352 352 350 350 349 350
304 304 305 305 305 305 306 308 310 309 309 309 310 309 309 311 329 326 323 323 320 316 318 320 327 332 333 336 338 341 343 345 346 350 351 350 354 355 350 352 352 350 348 349 348
304 305 306 306 306 306 306 308 310 310 309 310 310 309 310 323 322 321 319 318 315 316 317 321 333 336 335 336 337 339 340 342 344 350 351 355 355 347 350 352 352 351 348 349 347
306 307 308 309 308 306 306 309 311 310 309 309 309 309 311 320 319 320 320 324 319 314 317 324 336 338 336 336 336 337 339 339 341 342 348 354 354 346 348 350 351 351 349 348 347
308 309 309 309 308 307 307 310 310 309 309 310 310 313 319 323 320 320 319 324 326 318 318 334 336 337 336 334 335 335 331 330 334 336 341 351 355 355 352 349 352 351 350 348 347
309 310 309 309 308 306 307 311 311 309 310 312 314 320 327 319 318 318 318 323 328 326 320 327 333 335 336 334 334 328 326 328 330 332 336 348 360 355 352 353 351 351 350 348 347
310 309 309 308 308 306 309 311 313 309 311 312 321 328 329 319 318 318 320 324 328 327 328 324 327 331 332 329 329 329 324 325 328 329 334 343 359 352 346 346 350 351 350 350 348
310 308 307 307 307 306 312 314 316 310 315 314 317 323 324 321 316 317 318 320 326 326 325 325 329 330 328 326 329 330 325 324 324 327 330 336 358 353 348 348 340 350 349 349 349
307 305 305 305 307 308 315 318 319 323 318 326 323 323 319 317 317 318 319 320 325 328 328 331 329 329 327 327 327 328 329 326 325 325 327 335 355 356 352 350 351 343 345 350 349
305 305 305 305 306 311 316 317 316 316 316 316 318 319 316 316 317 319 320 320 326 327 330 328 330 329 329 328 328 327 327 328 327 327 323 328 351 350 343 343 345 345 345 350 349
306 306 305 305 309 314 316 317 317 317 316 317 317 315 316 315 316 320 322 324 326 327 329 327 327 329 329 329 328 326 326 327 327 327 325 325 349 347 344 344 344 348 350 348 350
309 309 308 307 315 317 318 317 317 315 314 319 316 316 315 315 315 317 317 317 322 325 324 325 328 328 327 327 327 324 326 328 327 325 323 325 325 349 345 346 347 348 347 350 347
310 310 308 305 310 317 316 316 317 315 319 318 316 315 316 315 316 316 316 316 317 319 322 323 325 327 328 327 325 324 326 325 325 324 323 325 323 328 347 349 346 346 345 345 348
311 311 308 315 317 318 316 316 317 315 320 317 316 315 315 315 317 316 316 316 317 318 318 319 321 321 323 324 325 326 325 324 323 322 322 323 324 325 353 349 347 346 336 338 344
312 311 311 311 316 316 315 317 318 319 319 316 316 316 315 315 316 316 316 316 315 316 316 317 318 319 321 321 324 323 322 322 323 322 324 323 323 324 327 349 350 347 339 339 346
313 314 316 314 316 316 316 317 323 323 319 318 317 317 317 318 318 317 316 316 317 317 315 316 317 317 319 319 324 325 321 322 325 324 324 323 324 325 325 341 346 346 339 340 348
313 316 318 317 317 316 316 321 320 319 319 319 320 319 319 318 318 317 317 316 317 316 318 317 318 318 319 319 319 321 323 322 322 322 324 325 325 326 326 325 344 342 341 342 347
316 317 319 317 317 317 318 321 319 317 318 318 320 320 320 320 319 317 318 318 318 317 316 316 316 317 318 317 318 319 322 322 321 324 326 325 326 327 328 325 332 343 342 347 349
318 321 318 317 317 318 321 322 319 317 317 317 317 318 318 318 317 318 318 316 317 317 316 316 315 315 317 317 316 317 320 320 320 322 325 325 325 325 328 330 329 331 342 345 346
320 322 317 318 320 321 319 317 316 316 316 316 317 317 316 316 317 316 317 317 316 316 316 315 314 315 316 317 317 316 316 319 320 322 324 326 328 328 327 331 332 328 344 345 344
319 321 318 318 318 319 318 316 314 314 314 314 315 315 314 315 315 316 316 315 315 315 316 314 314 315 315 315 316 317 317 317 318 317 319 326 328 328 329 329 330 332 334 345 342
320 319 318 316 315 317 318 316 315 314 313 313 314 313 312 313 313 315 315 315 314 315 315 314 312 314 316 316 315 316 317 317 314 314 317 321 323 327 327 327 328 332 333 338 348
319 316 316 315 314 315 315 315 314 313 313 312 315 312 312 313 313 313 313 313 313 314 315 313 314 313 313 314 314 314 316 317 316 315 318 318 322 328 326 325 327 332 331 331 344
316 317 316 315 315 314 314 314 312 312 313 313 313 312 312 312 312 312 311 311 312 313 314 315 316 315 316 315 315 314 316 316 317 317 316 316 318 324 323 323 323 327 329 330 328
317 317 317 315 315 314 313 313 313 313 313 312 312 312 312 312 312 311 311 311 310 310 311 315 315 314 315 315 315 316 315 315 316 317 316 316 316 318 318 320 321 319 324 324 328

GFSSW_850_thetae_078.txt.gz
Theta_e
304 304 305 305 305 305 306 307 308 309 308 309 310 310 310 309 309 310 311 311 317 320 318 320 320 319 329 342 348 351 355 354 354 357 353 350 351 350 352 352 350 351 349 346 347
304 304 304 305 305 305 305 306 308 309 309 308 309 309 309 309 310 312 313 311 317 320 320 323 320 326 331 334 343 349 352 352 350 350 352 346 349 352 353 351 350 350 349 347 347
305 305 305 306 306 306 305 306 307 309 309 309 309 309 309 309 314 326 318 312 318 319 319 318 323 330 331 334 339 340 346 345 350 350 351 346 347 351 352 353 351 349 349 348 348
305 306 307 308 308 307 306 306 308 310 309 309 309 310 309 310 325 324 320 320 317 318 318 318 321 323 330 333 335 337 338 341 343 352 350 344 347 349 351 351 351 345 347 348 346
305 307 309 309 309 309 307 306 308 310 310 309 309 309 309 315 315 321 319 320 320 320 317 317 319 327 332 331 334 335 336 337 340 346 350 349 348 349 349 352 351 348 348 348 348
307 309 309 309 309 309 308 306 309 310 309 309 309 309 309 313 319 319 320 320 320 315 318 317 328 331 335 334 333 335 335 336 336 351 352 354 351 343 346 350 350 349 348 349 347
309 310 310 309 309 308 308 306 310 310 309 310 311 312 313 313 320 319 319 319 326 318 316 318 329 330 336 334 335 335 332 327 328 349 355 352 349 346 349 351 350 348 348 349 346
309 310 309 309 308 308 308 307 311 312 309 311 314 319 319 322 321 319 318 318 321 327 318 318 323 330 330 335 331 330 324 325 325 329 353 350 356 351 351 349 351 349 348 348 345
310 309 307 306 306 307 307 310 312 313 309 312 316 326 325 323 317 317 317 321 324 327 327 321 323 323 326 328 325 324 329 328 324 325 343 348 356 351 352 352 351 349 349 347 347
308 306 305 305 305 307 308 315 315 316 311 317 317 322 321 319 317 317 317 320 327 326 326 325 324 322 324 324 327 329 329 324 323 324 326 354 356 351 350 352 352 350 349 348 347
305 305 305 305 305 306 315 317 316 320 316 320 325 321 320 317 316 317 318 319 320 325 323 325 325 327 328 326 325 326 326 326 326 326 323 335 354 349 345 349 350 350 349 349 348
308 309 307 306 305 307 315 317 316 316 315 316 316 316 319 319 316 317 319 320 324 325 325 327 328 327 326 327 326 326 326 325 324 326 324 349 356 351 346 342 348 345 348 349 348
309 310 309 305 309 313 316 317 316 315 314 315 316 316 317 315 315 318 321 321 324 325 328 327 327 328 329 327 328 326 325 324 324 326 324 350 356 355 349 344 343 343 346 348 348
310 310 310 310 315 316 316 315 316 315 309 313 317 315 315 315 315 318 318 317 318 324 325 326 328 327 327 327 326 326 325 325 326 323 322 322 329 352 351 348 348 346 346 347 348
311 311 310 305 312 317 316 315 316 315 318 317 314 315 315 315 315 315 316 315 316 316 315 316 323 326 327 326 325 325 325 323 324 321 321 322 320 325 345 345 344 346 349 348 349
312 312 310 313 316 315 315 316 317 311 318 315 315 314 314 314 315 316 316 316 316 316 316 316 319 319 321 322 322 324 323 321 318 318 320 320 321 328 347 346 345 345 348 348 350
313 312 314 309 316 316 315 316 313 316 317 315 314 313 312 312 314 315 314 314 313 314 314 314 316 316 317 318 318 322 317 319 321 320 320 319 320 320 342 342 344 345 348 347 348
314 316 316 317 317 316 316 313 319 318 317 317 317 315 314 315 314 315 315 313 313 313 311 313 314 315 316 315 316 317 317 318 323 322 321 320 322 322 325 337 343 344 346 344 345
315 317 317 317 317 317 316 316 315 316 316 317 317 318 316 317 315 315 313 313 314 312 315 314 316 316 316 316 315 316 319 317 319 318 320 321 322 323 323 323 341 343 340 339 338
317 318 318 317 317 317 314 319 316 316 316 315 316 316 315 315 316 314 314 314 315 314 312 312 314 313 316 315 315 313 314 318 315 323 323 322 324 323 324 330 333 346 344 339 340
320 320 317 317 317 317 318 320 315 314 314 315 314 314 313 314 314 313 314 315 315 314 313 311 311 312 314 313 315 313 312 311 313 316 320 321 321 321 326 327 329 330 332 343 340
321 313 317 317 316 315 311 313 314 313 313 313 313 313 313 312 313 313 314 315 315 314 314 312 309 312 314 314 314 314 313 311 313 316 318 319 322 326 326 325 328 330 332 335 344
320 320 315 317 312 311 311 312 313 312 310 312 311 310 310 311 312 312 313 313 315 314 314 312 309 311 312 311 312 314 313 312 311 309 315 317 319 322 324 326 329 330 337 340 342
317 311 314 314 314 312 311 312 313 313 312 311 309 310 309 309 308 311 311 312 313 316 316 313 307 310 312 312 312 313 314 312 312 310 312 313 316 320 322 325 327 329 328 343 342
316 313 314 311 310 309 309 310 311 311 311 311 311 310 310 310 308 310 310 309 311 312 313 309 311 312 313 313 314 314 315 314 312 313 314 313 313 320 317 321 324 325 325 333 335
316 316 316 312 313 309 307 310 312 312 311 310 311 311 310 309 310 310 308 308 309 308 308 309 313 312 313 313 312 313 313 314 314 314 314 314 314 316 323 324 326 323 321 328 336
317 317 316 312 310 308 310 312 312 312 311 312 311 310 310 311 312 311 311 310 309 308 307 309 310 310 311 312 312 312 312 313 313 314 315 316 313 321 323 325 325 327 327 324 328

GFSSW_850_thetae_081.txt.gz
Theta_e
304 305 305 305 305 305 305 305 306 308 308 308 308 308 309 310 310 310 310 311 314 320 318 322 321 321 321 342 348 351 354 354 354 355 355 353 352 351 352 351 350 350 348 348 347
304 305 306 306 307 306 306 305 306 307 309 309 308 309 309 310 310 311 316 311 313 320 319 321 319 321 328 337 347 348 353 353 350 350 349 351 351 349 347 350 351 349 347 347 346
304 305 307 308 308 308 308 307 306 307 309 309 308 309 309 310 311 324 316 311 318 320 320 321 320 326 330 333 337 344 349 347 348 351 348 348 350 345 347 351 351 348 346 347 346
305 306 308 309 309 309 308 308 306 307 310 309 308 309 309 309 320 322 316 312 317 319 318 321 323 326 328 332 334 336 338 342 342 350 346 348 351 349 348 351 351 348 347 347 347
308 308 309 310 309 309 308 308 306 308 310 309 308 309 309 311 312 320 319 317 317 318 318 318 322 325 328 329 332 333 335 336 337 348 345 348 349 349 349 350 351 349 347 347 347
309 310 310 310 309 309 308 308 306 309 310 308 309 309 309 312 320 319 319 320 319 319 317 318 323 326 329 332 332 333 334 335 334 337 346 348 347 345 346 351 351 348 347 347 347
310 310 310 309 308 307 307 307 306 310 311 308 311 311 311 312 320 320 319 318 324 318 319 317 324 329 334 334 334 334 333 330 340 350 351 347 349 347 349 351 351 348 348 346 346
310 309 308 306 306 306 306 307 307 311 312 309 313 317 316 323 321 321 320 319 320 325 314 317 323 325 328 332 329 328 323 324 334 352 354 348 354 348 350 350 350 349 348 348 346
306 305 305 305 305 305 306 306 311 313 311 311 314 324 324 325 320 317 318 318 319 321 324 318 317 324 324 326 324 323 330 329 326 350 354 348 352 351 347 350 350 349 348 348 346
305 307 308 307 305 305 306 313 316 316 311 315 315 321 320 320 317 317 317 317 319 321 325 323 321 319 321 324 330 329 329 326 325 331 338 353 352 350 350 351 350 349 348 348 344
309 309 309 308 306 306 313 315 316 318 316 316 321 317 320 319 316 316 317 317 324 326 322 323 321 324 326 325 326 326 325 325 324 324 325 342 353 349 349 352 350 348 348 348 346
309 309 309 309 305 308 315 316 315 315 314 315 316 316 317 317 318 316 317 319 323 324 323 324 325 325 326 326 326 326 326 325 324 323 322 346 353 349 346 350 350 348 348 348 347
310 310 309 307 310 314 316 316 315 315 312 314 315 315 316 316 316 316 318 320 323 323 325 326 328 327 328 328 327 325 324 325 325 323 340 350 353 351 348 345 346 349 348 348 347
311 311 310 312 315 316 316 315 315 314 308 312 315 316 316 315 314 316 320 318 317 323 324 326 326 327 326 328 325 326 324 326 325 321 322 326 322 350 350 348 346 343 343 344 348
312 312 310 309 315 315 315 315 316 315 315 316 314 314 315 314 315 315 315 315 316 316 316 321 319 326 326 325 324 325 324 323 323 320 319 321 322 326 350 352 348 345 345 344 347
313 312 311 312 315 315 315 315 316 310 317 314 314 313 313 313 314 315 316 316 315 315 314 316 317 319 320 324 323 324 323 317 314 316 320 319 319 320 348 351 347 344 344 345 345
313 315 313 311 315 315 315 317 312 315 315 317 313 313 311 312 313 314 314 311 312 312 312 313 314 314 315 316 316 316 316 318 321 320 320 316 319 320 332 342 345 344 345 344 345
316 316 316 317 316 316 317 312 316 317 316 315 316 313 315 313 312 313 312 311 312 310 310 312 314 314 315 315 316 315 315 317 322 320 320 316 321 321 320 329 341 343 344 343 346
317 317 317 317 317 317 316 313 314 315 314 315 315 316 315 315 315 313 313 312 313 311 312 313 315 314 315 314 314 315 314 316 315 315 319 319 320 322 327 329 337 340 342 343 346
318 317 316 317 317 317 313 314 314 313 313 314 315 314 314 314 315 313 313 313 314 313 310 313 314 313 314 314 314 313 312 315 312 321 323 320 322 321 327 328 327 329 335 339 344
318 317 315 317 317 317 316 314 313 313 314 313 313 313 312 313 312 312 312 313 313 313 311 310 310 312 312 313 314 311 311 310 309 313 318 320 321 322 326 326 326 327 334 340 335
317 311 315 317 314 309 308 311 313 311 312 311 311 310 311 311 310 311 312 312 314 312 313 310 307 311 313 311 312 311 312 309 312 314 312 315 319 321 321 324 327 331 339 342 340
317 314 314 317 310 307 310 311 312 310 309 310 310 310 309 309 311 310 312 312 314 313 313 311 308 310 311 310 310 310 312 310 307 306 311 313 316 315 316 321 326 332 335 339 343
315 309 313 313 311 309 310 309 312 311 310 310 309 308 308 308 306 310 310 310 311 314 316 311 306 308 310 312 311 313 313 311 309 309 311 312 313 314 314 318 321 324 336 339 343
315 311 311 309 309 307 307 309 311 311 310 310 310 309 309 309 308 309 308 307 309 310 311 307 310 312 311 310 312 312 313 313 312 312 313 313 313 313 313 318 325 326 330 337 339
317 315 312 310 309 307 306 309 311 311 310 310 310 310 309 309 310 311 309 308 308 308 306 306 311 312 311 311 311 311 310 311 312 312 312 312 313 318 322 323 322 323 326 332 328
317 316 313 310 308 309 309 311 312 311 311 311 310 309 310 311 311 311 311 310 309 308 306 307 307 307 310 310 309 306 312 312 312 315 313 314 317 318 318 319 320 319 322 329 328

GFSSW_850_thetae_087.txt.gz
Theta_e
314 311 308 308 308 308 308 308 307 306 306 307 308 308 308 308 309 310 311 311 311 317 323 327 323 325 343 348 347 350 354 356 354 353 353 350 352 353 350 350 350 350 347 345 342
319 315 313 310 309 309 309 309 308 307 306 307 308 308 308 309 310 311 311 311 311 317 322 322 324 332 332 341 347 349 355 353 350 350 351 351 353 351 352 351 350 349 348 344 341
319 317 316 314 311 310 309 309 308 308 306 307 309 309 308 309 310 320 318 314 311 318 321 323 321 324 326 335 344 348 353 350 349 350 350 352 351 346 350 350 350 349 347 344 341
314 312 312 313 313 310 309 308 308 308 306 307 309 308 308 309 318 321 313 315 312 319 322 322 323 325 328 333 339 344 344 347 346 349 349 352 349 347 348 352 351 349 346 343 341
310 309 309 309 309 309 308 307 307 307 306 308 309 308 308 309 311 318 315 311 320 319 319 322 322 326 326 331 335 343 339 338 339 346 348 350 348 348 351 351 349 348 345 344 343
307 306 305 306 306 306 306 306 306 307 306 309 308 309 308 311 313 317 311 313 319 320 321 321 321 326 326 331 336 336 337 337 335 338 345 350 350 350 349 349 350 348 346 345 346
304 306 307 308 307 307 306 305 306 306 306 310 308 310 308 310 319 318 314 318 320 320 321 321 320 327 330 334 334 334 334 332 346 337 346 348 351 349 349 349 349 349 348 347 346
308 308 308 309 308 308 306 305 306 306 308 311 309 312 312 311 320 319 316 317 318 318 319 320 320 325 329 330 328 332 328 332 349 345 348 348 354 348 351 350 349 348 347 345 345
309 309 309 309 309 308 306 305 308 308 311 310 312 319 321 318 321 319 318 319 318 318 318 318 319 323 325 333 332 330 339 330 348 349 350 350 352 350 352 352 350 348 346 346 346
310 310 310 310 309 307 305 314 313 312 311 310 314 320 320 322 321 320 320 321 321 317 319 317 318 324 326 333 335 336 333 329 339 351 351 351 351 350 352 352 351 349 348 345 346
310 311 311 310 308 305 310 316 317 317 310 314 314 316 319 317 317 316 320 322 322 322 322 318 322 325 332 330 330 330 331 332 331 337 334 332 333 344 349 352 351 350 348 347 346
312 312 311 309 308 314 313 314 314 314 315 315 315 316 317 317 314 317 321 322 323 324 322 320 322 324 327 329 330 330 332 332 328 326 327 329 340 349 350 351 352 350 349 348 347
313 312 310 311 313 314 314 314 315 314 314 313 314 315 316 316 315 314 320 321 325 325 324 321 322 324 328 329 331 331 333 330 330 327 343 338 343 351 350 349 351 350 349 348 348
313 312 309 314 315 315 314 314 315 314 314 313 314 316 315 316 314 315 316 321 323 326 326 325 325 327 330 331 331 334 328 328 329 329 330 329 332 337 351 352 350 351 350 349 348
314 313 309 314 315 315 314 314 315 314 316 315 314 314 314 314 315 316 316 317 323 326 326 327 329 328 331 332 329 333 327 329 329 328 326 325 328 328 347 350 352 351 351 350 348
315 312 309 313 315 315 315 315 315 316 316 317 313 313 314 313 314 314 315 315 315 322 322 319 318 326 330 327 329 325 324 322 322 325 329 327 327 328 338 338 335 346 350 350 349
316 316 316 315 315 316 316 316 317 319 317 317 316 313 314 314 315 315 316 316 317 324 325 317 317 316 316 324 323 326 327 327 327 328 329 322 326 335 333 333 336 334 345 349 349
316 316 316 316 316 316 316 316 320 317 316 315 315 316 316 315 315 315 316 317 316 315 317 319 318 317 316 318 324 327 328 327 329 328 327 322 329 333 330 331 335 338 343 346 348
317 317 315 316 316 316 315 317 315 314 314 315 316 317 317 316 316 316 316 316 315 315 320 318 318 315 315 316 316 319 323 320 323 320 327 325 325 327 327 330 333 335 338 339 343
317 317 315 316 315 315 316 314 314 312 313 314 317 316 318 316 317 316 315 315 316 314 312 315 318 315 315 315 316 318 316 323 324 328 328 326 329 328 326 327 332 335 337 342 342
316 317 315 317 315 313 315 314 313 311 312 314 314 315 314 315 315 315 314 315 314 315 313 314 317 317 317 315 315 318 319 317 322 323 327 327 328 319 323 326 333 334 334 339 344
315 316 314 316 314 310 313 312 311 311 310 312 312 313 313 312 315 316 315 315 312 313 315 313 316 317 316 313 313 314 316 316 326 325 321 326 325 320 324 327 329 330 331 334 342
315 313 313 315 315 313 312 312 311 312 311 311 311 311 310 311 315 314 314 311 313 317 315 314 314 317 316 316 315 316 315 314 314 317 324 326 323 320 325 327 327 328 329 335 338
313 314 313 311 308 312 312 312 312 310 310 311 311 310 311 312 312 313 313 311 310 316 314 313 314 315 317 317 316 316 315 314 316 321 321 321 320 320 327 327 325 326 327 333 334
313 312 309 312 312 310 311 312 312 312 310 310 312 311 311 313 313 312 311 312 312 310 312 314 316 315 314 314 314 314 314 314 315 316 319 318 318 322 324 324 322 324 326 328 325
315 313 310 309 309 312 311 312 312 312 311 311 312 312 312 313 312 313 312 311 312 311 310 311 316 313 313 312 312 312 312 312 312 313 314 314 316 318 319 319 319 320 323 321 320
313 312 312 309 311 313 313 312 312 311 311 311 311 312 313 312 311 310 309 309 310 311 311 313 314 313 313 312 311 312 313 312 313 316 317 315 318 316 318 316 315 315 317 315 314

GFSSW_850_thetae_093.txt.gz
Theta_e
320 320 319 318 317 315 311 310 309 309 308 306 306 307 308 308 308 309 313 317 315 318 329 331 337 339 343 347 352 353 359 360 354 356 353 351 353 349 353 354 353 353 349 343 342
315 316 315 314 315 316 315 311 310 309 309 308 306 307 308 308 308 317 317 315 312 318 329 334 337 337 343 345 351 352 359 355 351 351 354 352 352 351 354 353 353 351 346 343 343
311 309 310 311 311 312 313 313 310 309 309 308 307 307 309 308 319 319 318 311 311 318 333 333 331 336 339 342 350 350 356 350 349 351 352 351 353 350 353 356 353 348 345 343 343
305 305 306 306 307 308 310 311 310 309 309 308 307 308 309 309 327 331 319 313 311 318 334 330 330 334 333 336 344 351 352 348 347 346 351 354 353 353 353 354 353 349 345 343 343
306 307 307 307 307 307 307 308 309 308 308 308 307 309 308 320 319 322 318 317 311 327 332 328 330 331 330 332 338 348 349 346 345 346 350 353 351 352 353 354 353 350 344 343 342
308 308 309 309 308 308 308 308 307 307 307 308 307 309 313 320 320 321 318 316 318 330 330 327 328 328 329 331 336 337 348 345 344 343 349 350 351 352 353 354 353 348 344 343 342
309 309 309 309 309 309 308 308 307 306 307 307 308 309 319 318 323 324 324 320 324 329 328 326 326 326 328 331 333 339 349 346 342 341 347 351 353 355 353 354 351 347 344 342 341
311 310 310 310 310 309 309 307 306 306 307 307 310 315 322 317 323 326 326 323 324 327 325 324 324 325 328 331 332 340 346 348 345 342 345 352 356 354 353 353 350 347 344 343 341
312 312 312 311 310 309 307 306 307 306 306 310 313 323 320 317 324 326 324 323 324 324 324 323 323 325 329 333 336 339 348 346 347 344 347 354 358 353 353 353 350 347 344 344 343
312 313 312 311 309 307 307 313 309 309 310 312 323 321 324 319 323 325 323 322 322 323 323 322 323 326 330 335 337 340 347 345 348 347 347 356 359 355 353 353 352 348 346 346 345
314 313 312 309 307 306 314 317 323 323 318 321 320 322 322 321 323 323 323 322 322 323 326 323 324 326 328 329 334 336 344 346 344 346 347 351 354 358 354 353 354 352 349 348 348
312 311 309 313 313 314 317 321 318 319 321 317 319 320 322 323 324 323 324 325 325 324 324 326 326 326 327 329 330 335 340 344 343 345 344 349 352 352 354 354 352 353 352 350 348
313 310 310 314 314 315 319 317 317 317 320 320 318 319 322 323 323 323 323 325 325 324 324 326 327 327 326 329 332 337 339 342 344 339 339 339 345 348 348 350 354 353 352 349 346
310 310 312 315 316 318 318 317 317 317 323 320 319 319 321 321 321 323 323 324 326 325 325 326 326 326 326 333 334 335 336 339 338 339 343 339 345 348 348 349 352 353 353 350 347
316 309 313 314 318 319 317 317 316 317 324 318 318 320 320 320 320 322 322 324 327 326 326 326 326 326 328 332 332 332 332 337 336 336 339 339 340 344 348 350 352 350 352 351 349
316 316 313 316 315 317 317 317 317 320 323 319 319 321 321 320 320 323 323 323 325 328 327 327 325 327 328 330 332 334 333 336 336 336 337 337 338 344 345 347 346 348 350 351 350
316 317 316 316 319 317 317 319 321 323 322 320 319 320 321 320 321 321 324 322 325 327 330 329 329 327 329 332 333 335 335 335 334 336 336 334 334 345 343 342 341 340 348 349 351
317 317 319 318 319 318 320 323 325 324 322 320 319 319 319 320 321 321 322 323 324 327 329 329 329 328 330 333 334 334 335 334 334 333 333 333 339 343 341 341 343 344 346 348 349
317 321 321 319 318 319 322 326 325 321 320 320 320 319 319 320 321 322 323 324 324 326 328 328 328 325 327 331 331 334 335 332 332 332 331 337 341 339 341 343 344 346 349 350 347
318 322 320 319 318 320 324 321 321 319 319 319 320 320 321 320 321 322 324 323 323 323 324 327 327 324 324 325 327 329 332 334 332 335 333 336 340 341 343 344 344 347 350 349 351
320 321 320 319 319 321 323 321 320 318 318 320 321 320 320 320 321 321 322 321 321 323 323 325 327 324 323 325 326 329 331 333 332 332 334 336 340 339 342 341 344 345 344 345 347
320 322 318 318 322 321 322 320 316 318 318 320 319 320 321 320 321 322 322 322 320 322 325 324 325 325 324 324 325 326 329 332 333 333 331 333 335 337 339 338 343 341 339 339 340
319 319 317 319 322 320 318 317 317 319 319 319 319 318 320 321 322 322 321 318 320 322 325 324 324 327 325 324 324 325 326 328 330 330 333 333 337 336 338 337 340 339 339 336 336
319 321 318 318 318 320 319 318 316 315 317 317 317 320 320 321 322 322 320 318 318 319 315 320 323 325 326 327 324 325 325 326 327 330 331 332 337 338 338 338 338 336 336 335 335
317 318 319 321 318 318 318 317 316 317 316 317 319 320 321 322 322 322 321 319 319 316 321 323 323 323 324 322 324 325 325 324 325 327 329 335 337 336 335 335 335 334 333 332 331
319 318 317 318 318 318 315 318 317 316 318 317 318 318 320 323 322 323 322 322 322 320 322 322 324 324 322 320 320 322 322 321 322 324 327 334 333 331 328 327 328 328 328 328 328
317 317 318 316 319 319 318 318 317 317 316 316 317 318 318 318 318 318 319 319 321 322 322 322 324 324 323 322 320 320 321 321 321 322 324 331 330 327 327 324 325 325 324 324 324

GFSSW_850_thetae_096.txt.gz
Theta_e
315 315 315 315 316 317 317 315 311 310 309 308 307 306 307 308 308 308 310 314 317 318 319 327 326 330 339 344 351 354 358 360 354 353 353 353 353 350 352 354 353 354 345 342 343
311 311 309 310 311 312 314 316 314 310 309 309 308 307 307 308 308 310 313 314 316 316 320 329 329 334 340 343 348 354 358 357 352 352 352 352 348 350 352 355 353 346 343 342 342
306 306 306 306 306 308 309 312 314 311 310 309 308 307 308 308 316 320 322 315 314 313 328 333 335 338 339 344 348 353 359 351 352 352 352 352 349 346 353 356 352 345 343 342 342
306 307 307 307 307 307 307 308 310 312 310 309 308 307 308 308 329 329 322 319 312 313 331 335 335 335 340 343 344 354 345 347 352 352 352 353 351 352 353 353 351 345 342 343 342
308 308 308 309 309 308 308 308 308 310 310 309 308 307 308 321 318 325 321 316 312 316 333 335 333 333 338 336 338 348 344 349 347 351 352 353 351 354 346 347 351 345 344 343 342
310 310 309 309 309 309 309 308 308 308 308 308 308 308 308 322 322 322 318 318 314 322 336 332 330 333 334 332 335 344 350 350 345 349 353 353 352 354 351 354 349 346 344 343 342
312 311 310 310 310 309 309 308 308 307 307 307 307 309 322 320 323 326 322 319 317 325 334 330 328 331 331 331 333 338 344 349 345 347 352 351 354 355 354 353 350 346 344 342 341
313 313 312 312 311 310 309 308 306 306 306 307 307 310 322 319 320 326 325 321 320 325 331 329 328 327 329 330 334 337 344 353 346 344 350 351 359 354 353 352 349 345 344 342 341
313 313 313 311 310 309 307 306 308 306 306 307 310 316 322 321 320 325 326 323 325 328 329 326 325 325 327 331 336 336 346 348 347 343 352 353 358 354 353 351 348 345 344 342 341
314 313 312 310 308 306 309 311 307 307 308 312 325 323 320 323 321 325 326 325 325 327 327 325 324 326 327 332 336 338 341 347 349 345 350 353 357 354 353 351 348 346 344 343 342
312 311 310 309 310 311 314 321 323 326 318 320 322 323 324 324 323 326 324 323 324 326 327 325 325 326 327 330 336 338 341 348 346 346 352 346 343 353 353 351 349 347 345 344 344
312 309 308 314 314 316 318 324 320 320 322 319 321 320 322 322 324 325 324 323 324 326 326 327 326 326 326 328 330 335 337 347 346 344 351 347 350 352 353 352 350 348 346 347 345
309 309 312 315 315 316 319 320 318 318 320 323 319 320 323 324 325 324 324 324 324 325 325 327 326 326 327 327 329 331 334 347 347 345 349 353 354 340 354 351 352 351 350 348 347
315 310 314 315 317 320 321 318 318 318 322 324 320 320 323 324 326 324 324 324 327 326 325 325 327 327 327 327 329 331 334 338 347 346 343 344 355 359 357 352 346 353 353 351 350
316 311 313 315 315 321 320 317 318 318 326 321 320 320 321 322 324 325 323 325 327 325 325 325 326 327 327 327 330 332 335 341 342 343 338 339 349 349 350 355 341 345 353 351 348
316 316 315 315 317 318 317 318 318 320 324 320 320 321 323 322 322 323 324 324 325 327 326 326 326 327 327 328 333 333 333 334 339 340 339 340 340 350 353 349 347 343 353 350 350
317 317 317 317 320 319 318 319 321 322 324 321 320 322 322 322 322 324 325 325 326 328 328 328 328 326 327 328 331 332 335 334 341 338 337 338 341 351 348 344 348 350 352 347 341
318 318 319 320 320 319 320 324 327 327 324 322 321 321 322 322 322 325 325 326 325 327 329 329 330 329 327 329 332 332 335 334 339 336 335 335 346 346 344 342 340 346 348 350 342
318 319 322 323 321 320 323 329 326 325 323 322 321 320 321 321 322 322 324 325 323 326 329 330 329 329 328 330 332 333 335 334 332 332 333 342 345 342 343 344 345 353 353 352 353
318 322 324 320 320 321 324 323 323 320 320 320 322 322 320 321 321 322 323 325 324 326 326 329 329 329 328 329 331 334 333 334 336 337 336 344 346 347 344 352 353 352 351 352 351
317 324 323 320 320 321 324 322 321 319 320 322 323 322 322 322 322 323 325 325 324 324 325 326 328 327 326 328 331 331 332 333 334 334 336 346 344 343 346 351 351 346 345 346 347
324 324 319 318 323 323 322 321 318 320 319 319 320 322 323 322 323 324 325 324 321 323 325 326 326 327 326 325 326 327 332 332 335 337 336 344 345 340 345 347 344 343 342 341 341
323 320 318 320 324 323 320 319 319 320 320 320 319 319 319 322 324 324 324 320 321 322 326 327 326 328 326 326 325 326 328 329 331 333 338 338 343 341 344 343 342 341 340 340 339
322 321 320 319 319 321 320 319 318 317 319 320 319 320 318 319 320 322 322 320 320 320 317 323 325 327 328 329 326 325 327 328 329 332 333 337 338 342 341 341 339 339 338 337 337
319 318 320 320 319 319 320 318 317 318 318 320 320 321 320 322 320 322 321 320 320 318 321 322 324 325 326 325 324 325 325 326 327 329 339 339 343 341 340 338 336 335 335 334 333
320 321 318 319 320 320 317 319 318 318 319 319 321 321 321 323 324 323 321 321 321 322 322 322 324 325 325 323 323 324 325 325 326 326 333 335 339 335 335 334 334 333 332 332 331
320 320 320 318 320 320 318 319 318 319 317 317 318 319 322 321 320 321 321 322 323 323 323 324 323 326 324 323 322 322 323 323 323 324 335 338 335 331 332 331 330 329 328 327 327

GFSSW_850_thetae_102.txt.gz
Theta_e
305 305 306 308 308 308 309 312 314 316 316 312 310 308 307 307 307 308 310 312 312 320 321 323 323 320 329 336 345 350 354 357 354 354 356 352 352 348 349 345 344 344 345 344 344
306 306 307 307 307 306 307 307 309 312 315 315 310 309 308 307 307 309 312 311 312 317 319 324 322 318 323 328 332 349 349 352 350 350 354 352 351 350 347 349 349 343 343 344 345
311 309 308 308 308 308 308 307 307 309 312 315 312 309 308 307 308 314 319 313 311 315 317 318 324 323 323 328 339 346 351 345 349 351 352 350 349 349 346 348 347 343 343 347 347
312 312 311 310 309 309 309 309 308 308 309 312 312 309 308 307 320 326 323 321 312 314 316 318 326 325 328 330 339 347 346 346 349 351 350 349 348 344 344 345 346 343 343 347 347
312 312 312 311 310 309 309 309 308 308 308 310 311 309 308 308 310 326 320 318 313 315 316 322 324 329 328 333 347 350 350 345 350 349 347 347 349 353 347 347 346 343 344 346 347
314 313 312 312 312 311 310 309 308 308 308 309 309 308 307 311 316 320 322 320 316 313 315 320 332 332 333 334 338 344 347 348 349 351 348 351 350 348 348 348 343 342 343 345 347
313 312 313 312 312 310 309 309 308 308 307 308 308 307 308 310 325 324 325 323 317 314 315 333 334 334 334 327 331 332 343 347 349 352 351 348 348 350 347 350 344 342 342 342 346
312 312 310 310 309 309 308 307 306 306 306 307 307 307 310 314 319 322 323 320 317 312 318 335 334 333 334 330 326 331 346 346 351 352 352 351 352 345 346 348 347 342 342 342 346
312 310 308 308 308 306 306 308 307 306 306 306 307 309 312 317 318 321 325 323 315 315 321 333 330 330 326 323 321 324 329 348 355 352 352 351 347 347 346 348 349 345 342 342 345
315 309 308 313 311 310 312 310 307 307 307 306 319 318 319 320 320 320 325 323 317 317 319 322 326 320 318 318 323 325 332 338 351 354 350 350 350 348 347 349 351 346 342 342 345
315 309 313 314 313 313 317 321 322 323 310 313 315 319 320 321 320 321 323 323 320 320 321 326 319 321 321 320 321 323 326 351 354 351 351 349 347 348 347 349 351 344 342 342 345
316 310 313 314 315 315 316 317 318 320 318 318 319 319 319 319 321 322 324 324 322 322 323 320 320 320 321 322 322 323 328 352 350 349 350 351 353 352 349 350 349 343 342 342 344
316 315 311 314 316 319 319 320 320 320 318 318 318 319 321 320 320 323 324 325 322 322 322 321 322 323 323 323 322 321 323 348 350 348 347 349 350 351 348 348 345 344 342 342 344
316 316 316 314 312 314 318 318 320 319 311 315 318 321 321 321 322 324 325 323 321 321 321 322 323 324 323 323 321 319 321 341 349 350 355 347 348 347 345 349 347 344 342 341 342
317 317 316 317 317 319 319 320 319 318 318 321 320 320 320 323 324 325 323 323 320 321 320 321 322 322 323 323 322 322 323 336 346 344 349 351 350 345 346 352 351 348 344 342 341
313 318 317 317 318 319 319 321 319 313 322 324 320 318 319 322 322 324 324 324 323 322 322 320 323 320 320 322 322 324 336 338 338 340 345 344 349 351 351 353 351 348 345 345 344
312 316 317 318 319 320 321 322 317 325 323 324 322 321 317 320 322 322 322 321 320 322 321 323 323 321 322 322 321 324 323 327 341 347 343 343 347 343 348 350 350 351 349 346 346
312 314 318 320 320 321 322 318 325 325 324 322 322 319 317 318 319 322 322 321 320 319 320 323 323 323 324 322 322 325 324 326 336 337 337 341 349 348 343 343 347 347 349 349 349
314 315 319 323 322 322 319 318 322 323 321 322 319 318 319 321 320 321 321 321 320 318 321 323 324 325 324 325 322 324 325 323 327 327 336 344 345 341 345 344 343 342 345 345 350
318 321 323 324 323 322 317 320 321 321 322 320 320 320 322 322 321 320 321 320 321 322 319 323 325 324 326 324 324 323 325 330 324 332 339 345 346 346 346 354 351 345 346 347 346
319 323 323 321 322 320 318 318 320 321 322 319 319 319 322 323 323 324 323 321 320 318 321 320 321 323 323 324 324 326 327 325 324 324 334 346 346 349 351 350 350 349 347 347 345
320 318 322 321 319 318 318 319 320 317 319 317 318 317 321 322 323 324 323 320 319 318 323 322 318 321 323 323 323 326 327 324 327 329 338 338 350 345 343 343 344 345 345 344 344
318 321 320 321 316 317 317 318 316 317 317 317 317 316 320 321 321 322 322 320 319 318 318 319 319 324 323 319 319 321 322 319 319 326 331 336 345 343 342 341 341 343 343 343 344
320 313 319 317 316 314 315 315 316 317 318 319 317 317 317 318 318 321 321 320 319 318 321 321 316 321 324 321 322 321 320 322 318 323 335 340 345 345 342 341 340 339 338 339 339
322 315 318 313 314 314 313 315 316 316 316 317 318 319 318 320 321 321 320 320 319 321 319 318 320 319 319 321 321 320 321 321 323 327 329 342 344 345 342 337 334 332 331 331 334
322 323 324 320 317 313 313 315 316 316 316 315 318 318 318 320 321 321 318 317 321 320 318 315 319 320 320 321 320 320 321 328 332 338 339 340 341 337 334 332 330 329 327 327 327
319 321 324 322 313 311 313 315 318 318 317 317 318 317 316 316 316 317 318 317 317 319 317 319 319 321 323 320 319 319 320 324 336 336 339 341 338 334 332 330 329 328 327 326 325

GFSSW_850_thetae_105.txt.gz
Theta_e
308 306 306 306 306 306 306 307 309 312 314 316 314 310 308 307 307 308 309 311 311 320 321 322 321 322 331 338 344 348 351 354 354 356 355 348 348 348 345 344 343 344 343 343 341
311 311 309 308 307 308 308 308 307 308 311 314 315 312 310 308 308 309 311 311 311 320 321 321 322 321 324 330 339 347 349 350 348 348 354 349 348 347 346 345 344 344 344 343 341
312 312 312 311 310 308 308 309 308 308 308 311 313 312 310 309 307 312 317 311 311 319 322 324 319 321 322 327 335 346 350 346 347 349 350 349 348 346 347 350 344 344 343 344 343
312 312 312 312 311 310 309 309 309 308 308 309 312 311 310 308 310 325 321 318 311 314 317 319 323 322 325 327 335 345 345 347 348 351 351 349 348 346 346 346 344 344 344 344 344
313 313 313 312 312 311 310 310 309 308 308 308 311 310 309 308 310 325 320 319 311 315 316 318 323 325 326 328 343 346 348 346 351 349 349 348 348 346 347 344 343 344 344 344 344
312 311 311 312 312 311 310 309 308 308 308 308 310 310 308 307 311 314 320 317 312 314 316 318 326 327 330 331 341 345 347 348 350 349 348 350 348 349 346 349 344 346 346 345 345
311 310 309 309 309 309 309 308 308 307 307 307 309 309 308 314 322 323 322 320 316 313 315 318 330 333 333 330 330 333 348 348 350 350 349 347 349 350 347 348 344 345 346 346 346
314 308 307 308 308 306 306 306 307 307 306 307 308 307 310 312 322 324 323 320 317 315 313 315 327 331 333 334 327 330 342 354 350 352 348 348 351 348 346 348 346 343 345 346 347
315 308 312 312 308 309 310 307 306 306 306 306 306 306 312 313 317 325 319 320 318 316 314 322 323 330 329 321 320 320 332 348 353 352 351 348 349 346 346 347 347 342 341 344 346
315 309 313 312 312 317 318 317 314 312 306 306 312 317 319 320 317 317 321 322 316 314 315 318 323 319 316 318 324 325 327 344 355 353 352 350 348 347 346 348 349 345 340 343 346
315 311 313 313 314 315 314 315 319 320 314 314 315 317 318 320 321 319 322 322 318 318 317 320 320 320 320 320 320 322 324 355 353 348 346 347 349 348 347 348 349 349 340 343 345
315 316 311 314 317 317 318 317 318 319 318 319 319 317 318 318 318 319 319 321 319 318 321 319 320 319 320 320 321 322 339 352 350 349 349 346 350 348 347 348 349 349 341 343 345
316 316 316 315 313 318 317 317 318 318 317 317 317 318 319 320 320 320 320 322 321 321 321 321 322 321 322 322 322 320 325 348 351 348 349 350 351 350 347 346 348 349 341 343 345
313 317 316 316 314 317 318 319 319 319 311 316 318 320 321 320 320 321 322 324 320 321 320 321 322 323 322 323 321 321 320 343 348 347 348 347 351 348 350 350 348 347 340 344 344
312 314 317 317 317 318 318 319 320 316 321 321 320 320 319 321 322 322 324 323 319 321 319 322 322 322 322 322 320 321 321 337 346 347 348 352 346 344 350 352 350 347 340 342 344
312 312 315 318 317 319 320 322 319 314 325 323 320 320 317 321 322 323 323 323 322 321 320 320 321 320 320 321 321 323 336 338 336 338 344 348 347 348 349 350 349 347 343 340 344
312 312 317 319 319 320 321 322 318 322 321 323 320 320 318 317 321 322 321 320 320 320 320 320 322 320 320 320 320 322 330 336 344 344 345 339 346 340 345 346 347 347 345 341 341
312 314 320 320 320 321 320 316 323 325 322 320 321 318 317 317 319 321 320 320 319 319 317 321 323 321 320 320 319 319 324 326 340 342 339 340 343 343 343 344 346 348 346 345 342
318 317 318 321 322 322 319 315 319 321 321 321 318 319 318 321 320 321 320 319 319 317 319 320 323 323 322 320 320 322 323 321 324 324 339 342 342 341 344 342 346 347 347 347 344
319 322 323 323 322 322 315 318 318 319 321 318 320 318 321 321 321 319 320 319 319 319 318 319 323 323 324 322 325 320 321 326 322 328 340 344 347 346 350 347 341 346 346 347 347
319 321 323 322 322 319 316 315 318 319 320 318 318 319 320 322 321 322 318 320 318 318 318 319 320 323 322 321 323 326 327 322 320 323 338 344 345 347 348 350 348 346 344 347 347
318 317 322 322 318 314 316 318 319 316 317 315 317 318 321 321 321 323 319 319 318 319 321 319 316 321 323 321 319 323 325 323 325 331 332 338 347 344 346 345 345 344 343 345 346
319 321 322 321 313 315 315 318 317 315 315 316 316 316 318 318 321 322 322 319 317 318 318 319 317 322 322 319 319 318 318 319 319 324 332 339 346 343 343 343 343 343 342 343 342
320 311 317 321 314 311 313 313 315 317 316 315 315 315 315 317 317 320 321 321 319 321 322 318 315 319 321 320 320 320 319 318 317 321 332 337 349 347 344 340 338 340 340 340 342
320 314 318 312 313 311 312 314 315 315 315 317 318 317 317 319 318 319 318 318 320 320 317 316 319 319 320 319 319 320 324 321 320 323 329 343 347 345 343 339 334 335 338 337 336
321 320 323 317 313 312 309 314 316 314 314 316 317 316 316 319 319 320 316 316 319 318 318 315 319 321 322 321 319 320 319 330 335 339 338 342 344 340 338 332 330 330 329 332 333
320 322 323 316 310 312 312 315 317 315 315 317 317 316 315 315 315 315 316 315 314 315 315 319 318 319 324 319 319 320 319 320 336 336 340 344 341 335 332 330 328 327 326 327 328

GFSSW_850_thetae_108.txt.gz
Theta_e
312 311 310 308 307 307 308 307 307 308 311 313 315 315 312 309 308 308 308 310 311 317 320 322 320 323 329 342 345 347 350 353 355 356 352 348 348 347 344 342 344 344 343 341 340
312 312 312 311 310 308 308 308 308 308 308 311 313 315 313 311 309 309 310 310 311 320 319 321 320 325 329 333 341 346 348 350 346 349 349 347 347 347 345 344 344 343 342 340 339
313 312 312 311 311 310 309 308 308 308 308 309 312 314 313 311 309 310 316 310 311 319 321 321 321 323 323 326 334 345 349 347 348 349 346 348 348 346 346 345 342 344 343 340 336
312 311 312 313 312 311 310 309 309 309 308 308 310 313 312 310 310 324 319 311 311 320 322 323 321 322 323 326 334 346 345 346 347 351 350 349 347 346 347 345 341 336 336 336 334
311 310 310 309 312 312 311 310 309 308 308 308 309 312 311 310 311 321 318 318 311 322 323 323 319 323 325 327 340 343 346 348 350 351 350 348 347 346 347 344 342 338 337 337 339
314 309 308 307 308 308 308 308 308 308 308 308 308 310 310 309 311 311 319 318 311 318 317 319 320 326 328 330 339 341 346 350 350 349 349 348 346 345 345 345 343 343 341 341 343
314 308 308 310 308 306 306 306 306 306 306 307 308 309 309 315 315 320 318 315 311 313 316 317 325 326 332 331 331 337 347 348 349 348 349 347 348 350 347 345 344 344 343 343 344
314 308 312 310 307 308 308 307 307 307 306 306 307 308 311 312 317 322 316 312 311 314 315 316 325 329 332 333 323 335 345 353 351 349 348 346 353 349 347 346 346 345 345 344 344
315 309 312 312 313 316 317 315 314 307 307 307 307 307 311 313 313 323 321 319 315 315 314 317 316 327 329 321 320 319 342 350 354 349 348 348 349 345 347 348 345 346 345 345 345
315 311 312 313 314 315 315 316 318 318 308 309 310 316 318 319 317 323 321 320 316 316 314 316 323 320 315 318 326 324 325 347 354 351 351 350 349 347 346 347 345 345 346 346 346
315 316 311 314 315 314 316 316 318 318 317 318 317 316 317 319 319 317 317 318 315 315 314 319 321 323 319 319 320 322 348 353 352 346 348 347 346 347 347 347 347 342 343 345 346
313 315 316 315 315 315 317 315 317 318 317 318 318 318 318 317 318 318 319 321 318 316 318 318 322 321 320 319 321 330 349 352 350 349 344 346 348 348 347 347 347 347 339 343 345
312 313 316 316 314 315 316 318 317 317 316 316 316 317 318 318 319 318 320 321 317 319 321 323 324 319 320 320 320 320 342 349 349 349 346 347 350 350 348 346 347 347 342 341 344
312 311 314 317 316 317 318 318 318 318 312 318 318 319 319 319 319 320 319 323 319 319 320 322 322 321 321 322 320 321 321 347 349 344 349 344 350 351 349 348 347 347 346 343 343
312 312 312 317 317 318 318 318 320 316 320 320 320 319 318 319 320 320 321 322 319 320 319 322 320 322 322 322 319 321 321 345 344 344 345 351 344 341 349 350 348 346 345 342 343
311 311 313 317 318 318 319 320 319 315 323 321 320 319 317 318 321 321 322 323 321 319 319 320 320 320 320 321 320 328 338 337 336 339 345 345 345 347 351 349 347 344 345 342 343
310 314 316 318 319 319 321 321 316 319 319 320 320 318 318 317 320 322 320 320 319 319 319 320 321 320 319 319 318 323 332 340 343 344 343 336 346 340 342 346 346 345 344 343 343
314 316 319 319 319 321 321 314 320 324 321 319 319 317 317 317 318 320 319 319 318 317 316 319 321 320 318 319 319 321 327 335 343 343 341 340 346 339 342 342 345 344 345 344 342
318 318 319 319 320 322 319 314 318 319 320 320 317 318 318 320 319 320 319 318 318 316 319 318 321 321 318 317 319 320 326 323 327 322 339 340 341 339 343 345 345 345 346 342 341
319 322 322 322 321 322 314 316 316 317 319 318 318 318 320 320 321 319 319 318 319 317 316 318 320 321 323 322 323 320 318 324 320 328 336 343 345 344 348 346 347 347 348 345 342
319 321 322 321 321 319 315 314 317 319 319 318 317 319 320 322 321 320 318 318 317 318 316 317 318 321 320 320 323 325 324 319 320 323 339 343 343 346 346 343 347 346 347 345 343
318 316 321 321 317 312 314 317 317 315 316 315 316 318 320 320 321 321 318 318 316 318 321 318 314 320 323 320 318 322 324 321 324 333 332 335 342 346 346 347 343 344 345 346 344
320 320 321 321 314 312 314 316 316 314 314 314 315 315 316 318 321 321 320 319 320 317 318 317 316 320 321 317 317 317 317 318 319 326 334 337 341 344 344 344 344 342 342 343 345
319 312 318 320 312 312 313 313 315 315 315 316 315 314 316 317 316 321 321 321 320 323 321 318 315 318 320 319 318 320 320 317 317 321 328 333 345 348 344 344 343 343 343 343 342
320 314 316 312 312 310 311 313 314 313 314 316 316 314 317 318 317 318 317 319 320 318 317 316 319 318 319 318 318 318 321 325 320 321 329 333 343 344 343 340 340 340 342 342 342
321 319 319 314 311 311 308 313 314 314 314 315 317 315 313 317 317 318 315 314 317 316 318 315 320 320 322 320 318 318 326 321 336 333 337 340 343 341 338 335 337 337 336 336 337
320 323 320 312 310 311 311 315 316 314 314 314 315 315 315 314 314 314 314 313 312 312 314 317 318 319 323 319 321 323 324 320 333 335 339 341 339 337 334 334 331 331 333 332 335

GFSSW_850_thetae_111.txt.gz
Theta_e
312 312 312 312 311 309 307 308 308 308 308 311 313 316 316 313 309 308 308 310 311 315 322 321 320 321 344 346 347 347 351 353 354 354 354 347 349 347 344 343 344 344 343 343 342
312 312 312 311 311 311 309 308 308 308 308 308 311 314 316 315 312 310 310 310 310 315 320 323 323 320 331 338 345 348 352 351 347 349 350 346 347 344 344 346 345 344 344 342 342
311 311 310 312 312 311 310 309 308 308 308 308 309 312 315 314 311 309 314 310 310 315 320 322 321 324 326 330 337 346 350 348 350 347 347 346 346 347 345 347 344 344 344 344 343
313 309 309 309 310 312 311 310 309 309 308 308 308 310 313 312 311 322 318 311 310 319 318 321 320 323 327 332 337 349 346 347 350 348 345 348 345 347 347 346 343 343 342 343 342
314 309 307 307 307 308 309 309 308 308 308 308 308 310 312 311 313 319 316 310 310 318 320 322 321 325 330 331 339 346 346 348 350 347 349 347 346 346 345 344 343 343 343 342 340
314 308 310 310 308 306 306 307 307 307 307 307 307 309 311 312 313 312 316 314 310 320 322 322 321 326 329 331 337 339 347 350 349 347 348 346 346 346 346 343 343 342 341 341 340
313 310 311 308 307 307 307 307 306 306 306 306 307 309 311 314 314 316 319 318 310 321 322 321 320 327 331 333 332 342 350 349 350 349 349 346 349 348 346 343 343 341 341 342 342
314 311 312 313 316 317 316 314 309 307 307 307 308 309 312 312 316 320 315 311 312 322 316 317 323 327 332 333 324 343 347 353 351 350 347 347 354 348 346 344 343 342 343 344 345
315 311 312 313 314 315 315 316 317 310 307 307 308 308 312 314 314 319 312 311 313 315 316 316 321 326 330 331 327 333 343 350 354 349 349 348 352 348 347 344 345 345 345 345 345
314 315 312 312 313 314 315 316 318 316 311 314 310 316 317 318 314 320 317 318 313 314 315 316 321 328 328 329 335 330 334 350 355 352 350 350 349 345 347 344 345 346 345 345 345
312 314 315 315 314 314 316 316 317 318 317 318 317 316 317 318 318 320 319 316 315 315 317 320 326 332 333 329 325 328 340 353 352 349 351 349 346 347 347 346 346 346 346 346 346
312 311 315 316 315 314 316 317 317 318 318 317 317 318 318 317 317 316 318 319 316 315 319 323 324 329 327 323 326 350 351 354 351 346 347 347 350 348 347 347 346 346 346 346 347
312 312 312 316 315 315 317 317 317 317 318 317 316 317 317 318 319 318 317 319 315 317 322 324 325 327 326 324 325 333 342 352 351 348 346 350 352 352 348 347 347 345 344 345 346
310 312 311 315 316 317 318 317 318 318 320 322 320 318 318 318 320 318 320 319 320 319 324 327 323 328 324 326 325 328 330 348 348 346 352 345 352 348 350 349 347 346 345 342 345
309 311 311 316 317 317 318 319 320 315 323 322 321 318 318 319 320 319 321 322 321 322 324 327 324 324 325 326 324 327 327 347 345 348 347 347 349 346 349 352 349 347 346 343 343
310 311 314 317 317 318 319 320 316 320 323 322 320 321 318 319 321 320 320 322 321 322 323 324 321 325 326 324 324 331 344 345 345 348 340 343 348 350 352 350 349 346 346 345 343
310 313 317 318 318 318 320 319 322 323 321 321 321 321 320 320 322 322 323 324 323 325 326 325 323 322 322 323 324 332 336 343 346 348 338 342 350 343 348 347 347 347 346 345 345
315 316 318 319 319 319 321 320 324 323 323 320 321 320 320 320 321 323 324 325 320 322 324 327 326 324 322 324 324 338 333 334 337 339 340 346 350 347 346 344 346 346 345 345 345
318 319 320 320 319 321 318 321 320 321 321 322 320 322 323 322 321 323 324 325 324 322 324 324 324 322 322 323 324 324 327 331 337 335 342 348 346 344 347 345 346 346 345 344 344
319 322 321 322 321 320 320 319 319 318 320 320 321 321 324 324 322 323 322 321 321 320 320 322 325 323 323 322 322 325 326 327 329 343 341 348 349 350 351 350 346 347 345 345 344
320 322 321 321 320 318 321 319 319 318 318 320 319 321 322 324 324 322 321 319 319 321 319 322 324 326 323 324 325 325 326 327 329 332 338 346 349 346 349 349 349 347 347 346 344
319 323 321 320 320 315 320 319 316 316 315 316 317 320 322 322 323 322 320 319 319 320 323 321 323 326 326 323 321 326 327 330 329 338 342 346 349 346 348 347 348 347 348 346 345
320 320 321 320 320 319 317 316 317 318 318 318 318 317 319 321 325 323 321 321 321 319 322 322 323 327 326 324 322 325 323 327 333 338 345 340 345 346 347 346 347 345 345 345 345
317 319 318 318 312 317 316 316 317 315 317 317 317 316 320 321 320 323 322 322 320 324 322 319 321 326 327 326 324 325 326 326 328 332 339 340 348 348 347 349 344 344 343 344 344
319 318 314 319 316 314 315 316 317 317 316 317 319 317 320 322 320 320 319 320 321 318 320 322 324 323 322 322 325 329 328 326 325 329 332 338 346 347 347 346 345 343 342 342 343
321 321 315 313 311 316 314 317 316 317 316 314 319 317 318 320 319 319 318 318 319 318 324 322 326 324 325 323 322 329 330 333 334 332 340 341 346 345 343 343 342 341 340 339 339
321 321 316 312 314 316 316 317 317 316 315 314 316 318 318 316 315 315 314 314 313 316 319 324 326 328 327 324 323 327 334 336 336 338 341 344 343 343 342 341 339 337 336 334 335

GFSSW_850_thetae_114.txt.gz
Theta_e
312 312 312 312 311 311 310 308 308 308 308 309 313 315 317 317 312 309 309 311 310 313 321 331 328 336 344 347 349 350 356 356 355 355 354 349 349 348 348 347 345 345 343 345 346
311 310 310 311 312 311 311 309 308 308 308 308 310 313 316 317 316 314 310 309 310 312 325 326 326 333 338 343 348 351 354 353 350 350 351 348 347 346 347 348 346 344 345 345 344
313 309 308 308 309 312 311 310 309 308 309 308 308 311 314 316 316 313 315 310 309 313 325 325 326 327 330 339 346 348 353 350 351 350 348 347 348 346 347 349 346 346 345 344 343
313 308 307 307 307 308 311 311 310 309 309 308 308 309 313 315 318 321 319 311 309 314 325 324 325 325 330 340 343 350 349 348 349 349 345 347 346 348 347 346 345 344 344 343 342
311 310 310 309 307 307 307 308 308 308 308 308 308 308 313 318 317 317 317 312 309 320 324 323 324 325 329 339 343 349 348 349 348 346 346 346 348 347 347 345 344 343 342 341 340
310 311 309 308 307 307 306 306 306 306 307 307 307 308 314 319 316 311 314 311 323 324 322 323 323 325 333 340 344 341 346 349 347 346 347 347 346 347 346 344 343 342 340 340 339
312 311 314 316 316 316 314 312 307 308 307 306 307 309 316 318 315 315 323 321 322 321 322 323 322 326 336 340 338 342 347 350 348 348 347 345 346 349 344 343 341 340 341 341 341
315 311 313 314 315 315 316 317 317 309 310 308 308 310 318 314 315 321 323 319 321 320 322 321 322 328 337 337 335 343 345 352 351 347 347 345 353 348 343 340 340 341 341 343 342
314 315 312 313 314 315 315 316 318 315 313 311 311 315 317 314 317 320 317 316 319 319 318 319 322 326 335 339 336 343 346 351 355 348 347 348 352 347 345 340 340 341 342 344 345
312 314 315 314 314 315 316 317 318 317 314 317 311 320 319 320 318 318 317 316 317 318 317 318 322 326 338 341 341 340 340 352 356 351 349 353 351 347 346 345 342 342 343 345 346
312 312 314 316 315 314 317 318 321 323 321 321 320 319 319 319 318 319 319 317 315 316 320 319 324 327 336 339 333 335 337 352 352 351 352 351 349 350 347 346 344 343 344 345 345
310 312 311 315 315 315 316 319 319 318 322 320 319 319 319 319 319 321 319 320 318 318 320 322 324 326 334 337 330 338 338 352 352 352 351 352 352 350 348 345 345 345 344 345 345
309 311 311 314 315 316 317 318 317 318 322 321 319 320 320 320 320 321 320 321 320 319 321 323 323 328 334 333 331 345 344 349 351 351 349 350 355 354 348 346 345 344 345 345 345
308 310 311 315 316 317 319 318 319 319 325 323 322 321 320 321 320 321 321 321 318 319 320 323 326 328 334 335 332 336 336 346 352 351 354 351 353 355 352 351 347 345 345 345 344
308 310 313 315 317 318 318 319 320 318 325 322 322 320 321 322 321 320 320 322 321 319 322 324 326 330 334 336 331 333 335 343 346 346 349 350 346 351 353 354 349 347 344 343 343
309 312 315 317 317 318 319 320 318 323 324 323 322 323 321 322 323 320 322 323 323 322 324 328 327 331 331 331 329 329 336 340 341 344 343 345 348 355 356 354 352 347 346 343 342
313 315 318 318 320 318 319 319 326 325 323 323 323 323 323 324 324 323 323 324 325 324 322 327 328 328 329 331 330 333 339 341 341 342 343 341 342 346 347 347 349 348 346 346 342
316 317 318 319 318 319 320 324 324 323 323 323 323 323 322 323 325 324 324 325 325 324 324 327 328 328 326 327 330 332 337 338 342 343 342 344 344 346 344 344 345 347 347 347 345
318 319 321 322 321 321 322 321 323 322 322 323 323 323 323 323 325 326 325 326 325 324 325 326 328 326 326 326 326 331 335 335 337 338 341 344 345 346 347 347 346 347 348 347 347
320 323 322 321 320 320 322 319 321 321 321 322 323 324 324 323 324 325 326 326 326 325 324 326 326 325 325 325 326 327 333 336 336 340 342 344 343 350 352 350 348 348 348 347 346
320 323 321 319 319 320 321 320 320 320 319 322 321 324 325 325 324 325 325 324 324 324 324 326 326 325 325 325 326 326 328 330 332 334 339 341 343 350 353 351 350 348 346 346 346
322 323 320 319 321 320 321 320 318 319 320 320 320 323 325 326 325 324 324 323 322 323 325 325 326 329 326 325 326 326 326 328 332 335 335 340 354 349 350 350 348 349 348 346 346
323 322 320 319 322 321 320 319 319 319 321 322 321 321 324 325 326 325 323 322 322 324 327 327 326 329 328 327 327 327 327 328 329 331 335 335 341 350 350 350 350 351 350 349 347
321 322 321 319 319 321 320 319 319 318 319 321 321 321 324 325 324 323 322 323 322 324 320 322 328 329 329 328 327 328 328 328 329 332 332 335 345 352 352 351 348 348 348 349 349
322 322 319 321 320 319 320 319 319 318 318 320 323 322 324 324 325 324 323 323 323 321 325 326 329 328 327 328 328 328 328 328 329 329 331 332 334 345 350 351 346 346 348 348 348
324 323 319 320 319 320 317 319 317 318 318 317 323 322 323 323 323 323 321 323 323 324 327 326 328 328 327 325 330 330 330 329 330 330 331 332 342 347 347 348 347 345 345 345 346
321 318 321 317 320 319 318 317 318 318 318 317 316 323 322 320 319 319 318 318 318 321 325 326 328 329 329 327 326 333 335 334 335 336 338 332 345 346 347 346 344 342 340 340 339

GFSSW_850_thetae_117.txt.gz
Theta_e
311 310 310 310 312 311 311 310 308 308 308 309 311 314 316 318 315 311 315 315 315 314 325 331 333 333 340 345 348 351 358 358 356 355 355 351 350 351 351 347 347 347 345 344 344
313 309 308 308 309 312 311 310 309 308 308 309 309 312 314 317 318 320 318 312 311 312 323 331 329 333 341 342 347 352 358 356 352 353 353 351 349 349 350 349 348 346 346 344 344
312 308 307 307 307 308 311 311 310 309 309 309 308 309 313 316 323 321 319 311 310 312 326 328 328 333 337 336 348 349 354 350 352 351 349 348 347 349 350 351 348 348 345 344 343
309 310 310 309 307 307 308 309 309 309 309 309 308 309 313 316 325 323 315 312 310 313 327 326 328 329 331 341 347 351 349 353 352 350 349 348 348 349 348 349 347 347 344 343 342
310 310 309 307 307 306 306 307 307 307 307 307 308 308 313 323 322 319 319 315 310 320 327 327 327 328 332 340 347 349 349 352 351 345 346 346 349 348 350 346 346 345 343 341 340
310 312 316 316 316 315 312 309 308 308 307 307 308 308 314 324 320 322 325 313 315 320 326 326 327 328 331 342 347 348 349 349 348 348 348 348 349 348 345 344 345 344 341 340 339
314 312 315 315 315 316 316 317 315 310 310 307 307 308 320 322 318 325 326 318 321 322 325 325 325 326 334 344 344 344 351 350 348 347 347 345 345 348 345 344 344 342 339 339 339
314 313 312 314 315 315 316 316 318 312 315 309 309 315 323 318 318 325 323 322 322 323 325 325 325 326 336 342 342 347 349 356 349 346 346 345 348 347 344 343 341 339 339 339 339
312 314 315 314 315 316 316 317 318 317 313 311 318 322 321 316 318 323 323 322 321 322 324 324 323 326 335 344 345 346 348 358 353 347 346 348 349 347 343 341 339 339 340 341 341
312 312 314 315 315 315 317 318 319 318 318 317 319 321 321 322 322 321 320 321 321 320 321 322 323 328 335 343 348 345 347 354 355 350 348 349 351 347 346 340 340 340 341 342 342
310 312 312 314 315 315 317 321 325 327 324 323 322 322 321 321 321 321 318 318 320 320 322 322 324 328 333 342 341 340 342 354 354 352 349 350 351 347 345 343 342 340 341 342 343
311 310 311 313 315 315 317 322 321 321 325 322 321 321 321 320 322 322 319 318 318 321 322 323 324 327 330 340 341 338 340 357 353 350 347 351 353 348 340 340 346 341 341 343 343
310 310 311 314 315 316 319 321 321 321 325 322 322 322 322 321 322 323 321 322 320 320 321 325 325 326 329 338 341 338 344 354 356 352 348 350 356 353 343 338 341 345 343 343 345
309 310 312 315 318 320 322 321 321 322 327 325 324 323 322 322 323 323 321 323 322 322 322 323 326 325 328 336 339 339 345 349 352 357 359 351 361 357 353 344 343 345 344 344 345
308 311 314 315 320 322 321 321 322 322 329 324 324 322 323 324 323 323 322 323 323 321 322 323 326 326 330 336 337 337 336 346 349 351 353 353 353 358 353 346 344 343 345 344 344
310 314 316 316 318 321 321 321 322 326 326 325 324 325 324 324 323 322 322 323 324 322 322 325 325 328 329 333 337 334 334 342 345 346 354 350 349 362 353 348 344 346 345 344 345
314 316 318 318 323 321 321 323 329 326 324 324 324 324 324 325 325 324 323 324 327 324 323 325 329 328 330 332 335 334 336 345 347 346 346 349 345 353 353 349 349 347 345 343 341
316 318 318 319 320 321 322 327 326 323 324 324 324 323 324 326 326 325 325 326 326 325 326 324 329 329 330 332 334 335 338 345 348 344 345 343 343 352 349 348 348 346 347 344 344
318 320 324 324 322 323 325 327 324 323 322 323 324 324 324 323 327 326 325 326 326 326 326 325 327 328 328 329 331 334 339 341 342 342 343 348 352 349 346 348 348 349 347 345 345
323 325 322 321 322 323 326 320 323 321 321 323 324 324 326 325 323 327 327 326 327 326 326 328 327 329 328 327 328 329 334 339 341 344 342 348 349 352 350 349 348 348 349 348 347
321 326 321 321 321 324 324 321 321 320 320 323 323 324 324 326 325 326 329 328 328 328 325 327 328 329 327 327 328 327 329 334 337 337 339 341 348 352 351 350 349 348 348 349 349
324 327 322 320 324 321 323 321 318 320 321 322 322 324 326 327 327 328 328 325 324 325 326 326 327 328 328 327 326 328 327 332 337 341 337 336 347 351 350 349 348 348 350 349 348
325 323 320 321 326 324 321 321 319 320 322 323 324 323 325 326 327 326 327 324 324 325 327 328 327 329 331 327 326 326 328 328 330 332 335 335 353 345 351 350 349 349 348 348 347
323 324 322 320 319 323 322 321 321 319 320 321 323 322 324 326 326 325 325 324 324 326 322 325 328 328 331 330 329 327 328 328 328 330 331 335 354 354 353 355 354 352 351 349 349
322 324 322 324 322 321 321 320 320 319 319 320 324 323 324 327 327 326 325 325 325 324 327 327 329 330 330 331 330 327 326 328 328 330 331 332 340 351 352 354 351 352 352 350 350
326 323 320 322 320 322 317 321 319 319 320 320 324 323 324 326 328 327 325 325 327 327 328 329 331 331 331 329 330 328 327 327 328 329 330 332 335 349 350 350 350 349 351 350 351
325 322 321 320 322 321 321 319 319 319 318 317 318 323 324 323 322 322 323 322 323 325 326 328 331 332 330 328 330 330 330 330 329 329 331 338 346 347 352 350 348 347 346 348 348

GFSSW_850_thetae_123.txt.gz
Theta_e
310 309 309 307 307 307 309 311 310 309 308 308 309 310 312 316 317 318 312 312 314 317 316 324 319 333 334 335 344 352 352 357 355 354 352 351 352 348 346 343 342 342 342 348 348
310 309 308 307 307 307 307 310 310 309 309 308 309 309 310 314 317 318 315 314 315 316 316 328 327 330 331 337 340 350 352 356 351 352 354 352 352 350 347 347 342 342 345 347 346
310 312 310 309 308 307 307 307 307 308 309 309 309 309 309 313 317 321 319 315 316 316 315 328 330 333 335 334 343 351 354 352 353 351 350 351 351 352 349 348 343 342 344 346 345
312 316 316 316 315 313 312 310 309 308 307 307 308 308 309 312 328 326 323 320 315 312 314 326 328 330 330 333 345 352 351 353 352 350 349 351 349 351 349 347 343 341 342 346 345
311 315 315 315 316 316 317 317 313 311 309 308 308 308 309 320 320 323 320 317 319 314 313 326 328 330 329 336 349 352 353 352 349 348 348 348 350 350 350 345 343 342 343 345 345
314 312 315 314 315 316 316 316 317 314 315 310 308 308 310 321 325 323 324 314 313 312 317 324 328 329 330 332 348 349 350 349 349 347 348 350 350 348 350 346 344 343 342 342 344
313 314 313 315 315 316 316 316 317 317 314 314 309 307 311 318 321 322 325 323 312 312 319 327 329 329 330 331 349 349 351 348 348 348 349 347 350 349 348 345 344 342 342 340 339
311 312 314 314 315 316 316 316 317 318 315 313 311 310 318 323 322 322 323 325 314 315 322 327 328 328 327 328 348 351 351 353 348 348 346 347 352 346 346 345 343 341 341 340 340
311 311 312 314 314 316 316 317 318 319 318 313 322 325 325 321 320 320 326 325 318 317 320 323 326 327 327 326 348 351 353 354 350 347 347 349 349 347 346 344 342 340 340 339 342
312 310 311 312 314 314 316 317 323 322 322 319 317 322 323 323 320 323 325 323 321 322 323 325 326 324 323 323 329 352 352 353 354 348 347 348 348 346 346 344 341 340 340 340 342
311 311 310 311 314 313 316 318 325 325 325 326 326 324 323 322 323 324 324 323 323 323 323 325 323 323 323 325 328 343 350 354 352 348 348 348 347 345 344 346 341 340 340 340 341
311 310 310 312 314 313 317 320 323 323 323 326 326 321 323 322 323 322 321 323 323 320 322 322 322 323 324 327 330 347 351 353 351 348 347 348 348 347 345 344 345 340 339 340 341
310 309 311 314 314 316 319 322 323 323 324 326 325 321 322 322 323 323 320 321 322 320 320 320 322 324 323 323 329 347 352 350 352 348 345 346 348 347 344 343 344 343 342 341 341
309 309 313 315 321 323 324 323 324 323 325 327 323 323 323 322 323 323 319 320 320 319 320 320 321 323 322 323 325 347 349 348 350 347 351 346 354 349 346 344 342 341 344 343 341
309 311 315 314 316 321 323 323 323 324 330 325 323 323 324 322 324 324 323 322 321 322 319 318 320 321 323 323 324 349 340 350 349 348 348 348 352 350 346 347 345 340 344 344 342
311 315 315 316 319 324 323 323 323 326 327 324 324 324 323 324 325 324 323 322 322 323 323 321 323 321 323 325 331 344 347 347 347 346 350 348 350 353 347 347 345 340 342 345 343
314 317 317 317 321 322 323 324 326 332 327 323 323 324 323 324 324 324 324 321 321 324 323 322 320 321 324 327 331 345 343 347 349 351 348 344 346 347 346 344 344 339 340 345 344
316 318 319 320 320 321 323 324 332 324 322 321 322 323 324 326 325 324 323 322 322 322 323 320 319 321 327 326 326 331 339 343 352 353 354 346 352 348 346 348 345 339 340 343 345
316 318 321 324 325 322 324 328 325 322 320 320 321 327 327 326 327 327 323 321 322 322 322 325 324 323 326 326 326 327 336 335 341 348 348 352 350 351 350 349 346 343 341 345 346
318 319 326 325 326 324 326 328 323 321 320 320 323 325 326 326 327 326 328 328 327 327 326 324 326 327 327 327 327 328 330 332 329 348 354 351 352 353 353 347 344 342 342 344 344
318 322 326 321 323 324 327 325 320 321 321 322 322 323 323 327 328 329 329 328 327 325 325 325 325 325 327 327 326 326 327 328 326 332 340 347 349 350 348 347 344 343 343 342 344
322 325 326 321 323 325 325 322 319 321 322 323 323 323 324 324 329 329 330 328 326 325 326 326 325 325 326 328 326 325 325 326 327 329 332 340 345 348 346 337 337 340 343 344 345
321 324 328 321 323 325 324 322 321 320 319 321 322 323 323 323 331 330 330 327 326 325 325 325 326 326 325 326 327 325 324 324 322 322 325 335 345 341 345 340 338 340 340 343 348
322 328 323 321 321 321 324 323 322 321 320 320 321 322 323 325 328 330 328 326 325 325 327 326 323 325 329 328 328 330 329 324 323 322 323 328 341 341 340 341 340 341 344 347 349
323 325 326 327 326 323 322 322 322 321 319 321 323 324 323 326 329 329 328 327 326 327 328 327 325 326 331 328 329 329 330 331 323 323 325 340 347 346 346 339 335 334 342 347 348
322 325 329 327 323 324 321 323 321 321 320 320 321 320 322 326 327 325 324 326 327 326 326 326 329 333 333 332 331 331 334 337 337 346 343 347 344 339 342 336 333 337 339 343 348
328 327 329 328 325 323 323 323 322 321 321 320 319 318 320 325 324 323 323 324 325 326 326 328 332 332 335 334 333 334 334 337 338 346 347 349 338 336 335 333 329 332 331 346 351

GFSSW_850_thetae_129.txt.gz
Theta_e
314 312 309 307 307 306 307 308 309 309 309 308 308 309 311 313 315 317 316 312 313 318 319 319 321 322 322 331 333 345 352 351 349 350 349 347 345 344 343 346 345 345 346 344 345
315 315 315 314 313 312 311 309 308 307 307 308 309 309 309 311 314 316 318 313 312 317 317 319 320 320 328 327 330 344 349 350 346 346 347 349 348 343 346 345 346 346 346 345 346
315 314 315 315 315 315 315 315 313 311 309 307 307 308 309 311 314 320 320 317 312 315 317 320 325 326 327 329 333 348 353 347 346 344 347 348 345 342 344 348 346 346 346 347 345
312 315 314 314 315 314 315 315 315 315 314 311 308 308 308 311 321 322 321 319 312 315 316 318 322 329 327 329 332 352 352 347 350 343 346 350 347 342 342 346 345 346 346 346 345
313 313 314 314 315 315 315 315 316 317 314 315 310 308 308 313 319 322 323 319 314 315 316 316 324 328 327 329 347 351 350 348 350 347 347 349 348 346 345 344 346 346 346 346 345
311 312 313 313 315 315 315 315 316 317 316 315 311 309 308 314 323 324 324 321 317 314 314 314 323 329 327 336 338 351 349 347 348 349 349 350 348 348 343 344 347 347 347 346 346
311 311 311 313 313 314 315 315 316 318 317 313 312 313 310 317 324 324 323 323 319 315 315 313 323 321 326 343 347 347 349 348 346 347 349 348 351 349 346 344 346 346 347 346 345
311 311 310 312 312 313 314 315 316 320 320 317 317 321 319 318 321 321 321 322 320 313 313 313 317 320 323 347 348 349 348 350 346 347 346 345 348 347 347 346 346 345 346 345 345
311 311 310 311 312 312 314 316 319 323 322 322 318 319 322 322 321 321 321 321 321 313 312 316 317 318 327 343 343 342 351 351 350 347 347 348 347 346 345 344 345 345 344 344 343
310 311 310 311 312 312 315 319 321 323 323 323 322 321 322 323 321 320 319 320 322 316 317 317 316 318 317 322 333 342 348 350 351 347 346 346 348 346 346 346 341 343 344 344 344
309 310 310 312 312 313 319 320 321 322 322 323 322 323 324 322 321 324 324 323 322 319 319 320 319 320 320 321 325 336 345 349 350 347 346 347 347 345 346 345 341 339 343 345 344
309 309 310 313 313 316 320 322 321 321 320 323 323 323 323 324 323 323 323 324 320 318 319 318 320 320 321 322 325 324 337 349 347 345 346 346 348 347 345 344 342 338 343 344 344
309 309 313 313 316 321 322 322 322 322 320 323 325 325 321 321 322 321 322 321 319 318 318 319 321 321 323 324 334 331 346 348 348 341 344 347 346 348 345 343 343 341 342 344 344
308 311 314 314 320 322 322 322 322 322 318 321 323 324 322 321 321 322 320 320 318 319 318 317 318 320 320 322 326 330 345 341 341 344 351 345 347 345 346 344 341 342 341 343 345
310 313 314 313 318 320 323 322 323 323 323 324 322 323 322 321 322 322 321 320 318 318 317 318 318 318 319 319 333 342 343 342 344 348 348 349 348 344 345 346 342 341 342 340 344
311 314 316 316 318 321 322 322 323 321 324 322 322 321 320 321 321 321 319 319 320 319 318 318 320 316 323 335 339 342 341 345 344 345 349 345 349 349 347 344 342 339 341 341 341
313 315 317 318 319 320 320 324 321 318 319 318 319 320 320 320 321 321 320 319 318 321 319 318 321 326 340 342 340 332 332 343 343 348 349 345 349 346 343 340 341 339 340 341 340
315 315 317 319 319 319 322 319 322 323 316 316 316 320 321 321 320 320 320 318 318 317 316 319 320 317 324 339 340 334 333 340 346 347 349 345 350 344 339 340 340 342 339 340 341
315 317 321 322 323 321 324 321 322 316 317 316 318 319 322 323 323 323 320 323 321 318 322 319 320 320 321 329 333 337 337 334 343 343 347 347 344 342 341 342 342 340 340 340 341
316 319 322 323 324 323 319 322 322 318 317 318 319 319 322 324 325 323 325 325 325 322 319 321 321 322 322 325 333 330 329 336 334 346 346 348 342 341 346 350 344 342 339 340 342
318 321 323 324 325 325 319 319 322 318 319 319 319 319 319 325 325 326 326 325 323 322 321 320 320 323 322 323 322 321 323 322 327 334 343 349 345 338 340 347 345 341 340 340 342
317 315 323 323 323 314 316 319 323 318 318 317 318 320 319 325 326 325 325 325 326 322 323 320 317 321 324 321 320 321 322 320 323 326 333 339 333 343 343 343 342 340 339 340 343
316 318 320 322 318 313 314 318 320 317 316 317 317 317 321 324 325 326 326 326 324 326 325 323 318 321 321 323 322 323 328 326 314 315 321 322 323 339 339 338 339 339 340 340 344
316 316 323 321 321 316 318 317 318 318 317 318 316 318 319 324 323 326 324 325 325 327 325 322 316 319 321 325 324 332 337 338 319 318 318 320 323 343 340 339 339 341 340 341 341
316 318 322 322 323 321 316 316 319 317 317 318 316 318 321 324 326 323 321 321 323 323 322 320 324 321 320 326 333 335 336 339 344 344 319 322 332 343 338 336 337 338 343 342 342
316 326 327 325 325 319 314 318 317 317 316 316 315 315 321 322 321 322 321 321 322 321 320 319 325 326 331 331 332 331 332 336 341 340 343 340 342 339 335 333 336 338 341 344 343
319 323 325 324 322 323 323 325 318 317 319 317 315 314 319 317 319 320 320 320 320 321 320 321 322 324 328 328 331 332 331 331 341 336 337 339 335 333 335 337 337 339 339 341 345

GFSSW_850_thetae_132.txt.gz
Theta_e
315 314 314 313 313 311 310 308 307 307 308 308 308 308 309 312 313 316 316 313 312 318 321 320 321 328 338 335 335 340 351 351 349 350 350 347 346 344 345 345 345 346 342 339 338
314 314 314 314 314 314 315 314 312 311 309 307 308 309 309 310 313 315 317 315 312 318 318 319 323 322 326 327 329 344 350 350 346 346 348 346 348 346 345 346 346 344 343 339 337
314 314 314 314 314 314 315 315 315 315 314 312 308 307 308 310 314 320 320 315 312 317 316 320 322 323 328 328 331 342 350 347 346 346 344 346 347 344 346 347 345 344 344 343 343
312 313 314 314 314 314 315 315 316 316 315 314 312 308 308 311 320 321 319 319 312 314 316 320 326 328 327 329 331 349 349 345 347 346 347 348 347 344 344 346 342 343 343 344 344
311 312 312 313 314 314 315 315 316 317 316 314 312 309 308 313 319 322 321 319 313 314 316 317 325 328 328 327 345 347 349 347 349 345 346 347 347 346 344 344 344 344 345 345 343
311 311 311 312 312 313 314 315 316 317 318 313 313 311 309 316 322 323 322 319 314 313 316 315 325 326 327 343 339 350 347 347 347 346 346 346 347 344 343 345 346 345 346 345 343
311 311 310 311 312 312 313 315 316 318 320 318 317 320 312 319 323 323 324 322 318 316 314 315 325 322 324 344 346 347 349 347 345 346 348 348 351 348 345 345 346 346 346 345 344
311 311 310 311 311 312 313 314 318 320 322 321 320 320 320 321 322 321 321 321 321 316 317 314 319 320 324 345 347 348 346 349 346 347 346 346 354 347 347 346 346 346 346 345 345
310 310 310 311 311 312 313 317 320 321 323 322 322 321 322 322 320 321 321 321 319 312 313 316 319 318 333 341 339 339 349 350 349 346 346 346 347 346 346 346 346 346 345 345 345
309 310 310 311 311 312 316 320 321 323 322 322 323 321 322 323 322 319 320 320 320 313 314 315 316 316 315 328 327 340 346 349 350 348 346 347 345 346 345 346 346 345 346 345 345
309 310 310 312 312 315 320 321 321 322 321 323 322 322 323 323 322 321 319 321 319 317 316 318 318 318 319 320 328 337 344 349 349 345 347 347 348 347 345 346 345 345 344 344 344
309 309 311 312 314 318 322 322 321 320 319 322 323 323 322 322 322 321 322 322 320 318 318 316 320 319 320 320 323 324 341 348 345 343 344 347 348 346 345 345 343 344 344 344 344
308 310 313 313 317 322 321 321 320 321 319 322 324 325 322 321 321 321 322 321 318 318 318 318 321 320 322 324 332 331 340 347 345 343 340 345 344 348 346 344 343 338 344 344 344
309 312 313 314 320 322 322 321 321 322 316 320 323 323 322 321 320 321 321 319 317 319 317 317 317 319 320 322 331 335 341 341 343 341 343 344 349 344 347 345 342 341 342 343 344
309 313 314 315 319 320 321 321 322 321 320 322 322 322 321 321 320 320 321 321 317 317 316 317 318 318 318 319 323 330 340 340 342 346 346 346 348 342 346 348 345 341 340 342 343
311 313 316 316 318 320 321 320 322 315 320 320 321 320 320 320 320 320 320 319 319 317 316 316 319 316 320 333 328 341 342 340 339 344 347 344 345 343 347 347 345 341 341 341 343
312 313 316 317 318 320 319 322 315 314 316 317 316 316 319 319 320 320 319 318 317 318 317 317 319 335 337 339 337 332 331 337 338 344 348 342 348 346 340 342 344 342 341 341 342
314 314 316 318 318 318 320 315 316 320 317 314 316 320 320 320 319 320 318 319 317 316 315 317 317 337 331 337 339 332 326 332 341 345 344 345 347 342 338 339 341 342 342 341 340
315 316 320 321 321 322 323 318 316 317 316 316 318 319 321 323 322 321 320 321 320 317 322 319 321 319 321 333 334 335 336 332 341 342 345 345 342 339 337 337 339 340 340 340 341
316 318 320 322 323 323 317 319 321 320 316 317 318 319 322 323 324 323 324 322 322 321 319 320 323 321 321 329 332 331 329 337 335 347 347 345 343 344 341 342 339 339 339 340 341
317 320 322 322 324 324 317 317 320 321 317 319 318 319 319 324 324 324 325 324 322 321 320 319 319 322 320 320 323 320 324 323 330 334 342 346 343 339 337 344 345 344 342 339 340
316 316 322 323 323 312 316 318 321 320 317 317 318 319 319 324 324 323 323 323 325 322 323 319 316 321 323 320 318 320 322 318 324 325 334 339 330 339 341 342 344 341 340 341 340
314 318 322 321 317 314 313 316 319 316 315 316 317 317 321 323 324 325 326 324 324 326 324 321 317 320 321 322 323 330 334 330 314 317 327 326 324 339 338 339 339 339 339 339 341
314 315 321 320 319 316 318 318 317 317 316 316 317 317 322 324 322 324 321 323 324 325 324 320 314 318 320 322 324 335 335 336 318 318 318 320 340 343 340 340 340 340 340 340 342
315 315 320 320 320 320 317 315 318 316 316 317 315 319 320 324 324 321 320 320 322 322 321 318 322 321 320 319 332 334 335 340 342 340 324 329 340 342 338 336 336 338 342 341 342
319 325 325 323 323 320 316 322 317 316 315 316 314 316 320 320 320 319 319 319 320 321 320 318 324 324 329 330 331 333 332 337 339 338 341 340 341 338 333 334 338 339 340 343 342
313 319 323 322 321 322 323 325 324 316 317 316 314 318 318 319 321 319 319 318 318 321 318 319 319 322 325 326 329 328 331 332 338 336 336 339 335 334 336 337 337 337 339 341 345

GFSSW_850_thetae_135.txt.gz
Theta_e
314 314 314 314 314 314 314 313 312 310 308 307 308 308 309 311 313 315 315 314 312 317 319 321 321 330 338 335 336 346 351 353 351 349 348 346 347 347 346 343 344 346 342 343 338
314 314 314 314 314 314 314 314 314 314 314 312 308 308 309 309 312 314 316 315 312 318 320 320 323 330 329 328 330 347 352 349 346 345 347 347 347 346 344 346 346 345 344 342 339
313 314 314 314 314 314 315 315 316 316 315 314 312 308 308 310 314 321 321 315 313 316 317 319 323 325 330 329 332 339 350 347 347 344 344 346 347 346 344 347 345 341 343 343 343
312 312 313 314 314 314 315 315 316 317 315 314 313 309 308 313 323 321 319 317 312 315 316 323 323 328 332 334 332 342 348 347 347 346 346 346 347 346 343 345 342 341 338 343 344
311 311 311 312 312 313 314 315 316 317 318 313 312 310 310 315 318 321 320 319 312 314 316 322 327 329 331 329 338 339 349 349 346 346 346 342 346 346 345 346 343 343 343 344 345
311 311 310 311 311 312 313 315 316 319 320 318 317 316 311 320 322 322 319 317 312 315 316 320 327 328 327 345 343 349 348 349 347 347 347 346 346 343 345 346 345 345 345 345 345
311 311 310 310 311 312 314 315 317 319 322 321 319 317 316 322 323 323 322 318 314 313 315 318 325 326 324 347 347 348 350 348 348 347 347 345 346 346 346 346 345 345 345 345 345
310 310 310 310 311 312 314 316 318 320 322 322 322 318 319 323 323 320 320 321 318 317 315 317 321 322 335 345 347 349 348 351 347 347 347 344 346 344 344 347 345 346 346 346 345
309 310 310 311 311 312 316 320 321 322 322 323 322 321 322 321 320 320 320 321 312 314 316 314 316 320 341 346 346 345 350 351 351 346 345 346 350 346 344 346 345 346 346 346 346
309 310 310 311 312 314 321 321 321 323 322 322 322 320 322 322 321 319 321 320 313 313 314 315 317 323 333 338 336 347 348 349 352 347 346 348 346 346 346 347 345 346 346 347 346
309 309 311 312 313 320 322 321 321 322 321 322 321 322 322 323 321 318 319 320 314 317 320 319 325 327 326 334 335 339 346 350 347 339 342 341 347 345 345 346 345 344 346 346 346
308 309 312 313 316 321 322 321 319 321 321 322 323 322 322 322 320 320 320 321 321 321 320 324 327 324 323 324 326 338 341 349 345 341 340 342 343 346 346 346 346 346 345 346 346
308 311 313 314 318 322 321 320 319 321 321 321 323 324 322 322 321 320 322 320 321 320 321 326 325 322 324 325 327 328 334 347 343 342 342 339 348 349 346 345 345 345 345 345 345
309 312 313 315 320 321 321 320 320 322 323 323 323 324 321 320 321 320 320 320 319 321 320 323 319 322 323 325 330 331 333 343 341 341 342 342 346 346 348 347 345 344 342 345 344
309 312 314 314 319 320 320 319 321 321 323 321 322 321 320 321 320 321 319 320 319 320 320 322 320 320 321 322 327 335 341 341 341 346 344 344 345 345 347 350 346 344 343 342 344
310 312 315 315 318 319 320 318 322 322 321 320 321 321 322 320 321 319 320 319 318 320 320 320 318 320 323 335 325 340 340 339 341 346 347 345 345 347 349 349 348 344 344 341 343
311 313 315 316 317 318 319 321 323 320 318 320 318 318 321 321 322 321 321 320 321 323 323 322 321 332 337 338 339 341 338 343 344 346 346 342 347 346 343 344 345 346 345 342 342
312 313 315 316 318 318 319 322 321 320 320 317 319 322 323 322 321 321 322 322 320 320 322 324 323 335 338 337 337 338 332 335 341 345 343 344 347 340 340 340 341 343 344 342 341
314 316 318 320 320 320 323 322 320 320 317 319 320 324 326 325 324 324 324 326 324 322 327 327 326 323 330 337 338 339 338 334 339 343 345 345 342 339 338 338 341 343 343 343 341
315 317 319 321 323 322 323 321 324 322 318 319 322 322 327 327 327 327 327 324 324 323 321 324 328 325 324 330 333 337 336 340 343 341 341 346 343 337 340 341 341 341 343 342 343
316 319 321 320 323 323 325 323 323 321 320 320 321 322 323 326 326 327 327 326 325 324 323 323 325 328 324 327 335 332 336 333 335 340 341 345 343 343 346 346 342 339 342 342 343
316 322 321 322 325 316 323 321 321 321 316 319 320 321 322 326 326 325 326 326 324 324 326 323 325 328 327 323 322 323 328 330 334 333 337 343 338 342 343 343 345 344 341 340 341
312 319 322 322 325 323 318 319 319 321 318 318 319 321 323 326 328 327 327 325 325 327 326 325 325 328 328 328 328 335 338 334 324 325 334 331 332 342 342 343 342 342 341 339 343
314 321 320 320 318 322 323 324 320 317 316 317 320 321 326 327 325 328 324 324 323 326 322 322 323 326 327 327 328 335 337 337 327 328 328 329 329 345 343 343 342 340 342 341 341
314 318 320 325 324 324 322 319 319 318 317 317 319 321 326 328 327 324 322 322 323 321 324 326 326 325 327 327 326 336 336 340 340 344 332 331 336 340 343 341 339 341 342 344 343
319 325 324 324 323 323 317 320 319 318 319 319 320 322 323 327 326 326 323 323 323 324 324 325 327 330 330 332 333 335 335 338 341 341 344 344 343 341 337 337 339 339 339 343 345
310 316 321 322 324 324 327 326 326 318 316 318 319 321 323 323 323 319 319 319 321 324 325 328 327 329 328 330 334 335 334 338 339 338 340 345 341 338 338 338 337 336 337 339 345

GFSSW_850_thetae_141.txt.gz
Theta_e
314 314 314 313 314 315 315 315 315 315 314 313 308 308 309 311 313 316 320 319 319 316 320 327 327 336 344 343 348 350 357 357 351 352 354 350 350 348 347 346 344 345 344 343 343
313 313 313 313 313 315 315 316 316 316 314 314 312 308 309 310 313 320 319 316 313 316 322 327 327 336 341 340 343 351 357 353 347 347 350 349 348 346 346 344 345 345 343 344 344
311 311 312 312 313 314 315 315 316 318 315 313 313 309 309 312 325 325 320 316 313 317 324 326 327 336 339 340 342 349 353 350 348 345 347 348 347 346 345 346 344 343 345 345 344
311 311 311 311 312 314 315 315 316 318 320 316 312 309 313 318 329 326 319 316 313 321 321 324 328 335 338 343 341 350 349 349 347 345 343 348 347 344 343 345 343 344 345 344 343
311 311 311 311 312 314 315 316 317 318 321 320 315 311 318 326 326 327 319 315 315 321 321 325 329 337 340 339 343 349 349 348 346 344 346 346 349 346 345 342 344 344 344 343 342
311 311 311 310 312 314 316 316 319 320 322 320 314 315 323 327 326 327 325 315 319 320 321 325 329 335 337 339 346 347 349 348 348 348 345 347 347 348 344 341 343 343 342 342 342
310 310 310 311 313 315 316 321 321 321 322 317 315 321 327 327 326 321 320 319 317 319 321 325 329 332 335 343 345 347 348 349 349 348 346 343 345 347 345 341 341 341 342 344 344
309 310 310 311 314 315 321 322 322 322 323 319 321 325 324 324 324 324 323 320 317 318 320 321 325 329 333 344 343 345 347 354 352 349 347 344 347 344 346 343 341 342 343 345 346
309 310 310 312 315 320 321 322 322 322 323 322 325 327 325 321 322 324 324 324 319 318 319 319 324 329 335 343 345 342 351 354 355 349 346 345 348 343 346 347 343 343 344 343 344
309 310 311 312 315 322 322 322 322 323 322 321 322 328 325 325 323 323 324 318 320 319 319 321 326 330 338 340 344 346 347 350 356 350 346 346 345 344 343 346 346 343 342 343 344
309 310 312 312 317 322 323 325 328 330 328 323 324 324 324 322 321 323 322 318 318 319 322 323 328 330 334 338 339 342 345 349 350 348 348 345 346 345 344 344 344 345 345 343 344
309 310 312 313 320 322 324 326 324 324 327 324 324 324 323 324 322 322 321 319 320 322 324 325 327 329 332 337 336 336 342 345 344 347 347 349 349 345 342 343 344 345 345 344 344
308 310 313 315 320 323 324 325 323 324 329 326 325 325 324 325 324 323 324 322 323 324 324 327 327 331 331 334 333 333 337 342 344 343 343 345 351 348 344 342 339 342 344 345 345
308 310 313 316 321 324 325 324 323 325 331 328 328 324 325 323 324 323 324 324 325 326 325 327 329 329 329 331 332 333 333 334 338 342 350 342 349 351 349 347 344 342 343 346 348
308 310 313 314 324 325 324 323 322 325 334 326 326 324 324 325 323 323 322 323 325 325 326 328 327 327 329 330 331 334 336 336 339 339 343 344 342 348 350 350 347 344 343 345 344
308 310 313 316 317 322 323 323 324 329 329 326 326 326 327 325 324 323 323 323 323 324 324 326 325 326 327 327 329 330 334 337 338 340 343 341 340 351 355 351 347 345 345 344 344
309 310 312 314 324 323 322 324 331 328 325 326 327 326 328 327 326 326 325 324 326 327 327 325 325 324 325 327 328 328 334 339 341 341 341 342 338 343 344 345 347 346 346 345 346
309 311 313 314 321 320 323 328 331 326 324 325 326 326 328 327 327 326 326 326 325 326 328 328 326 326 327 329 330 330 333 337 345 342 344 341 342 343 339 342 344 343 344 345 343
310 314 318 319 316 320 324 330 330 325 325 324 326 328 328 327 328 328 329 329 329 328 331 330 328 327 329 328 331 333 332 332 334 338 343 342 340 340 339 343 345 344 344 344 344
310 320 322 322 321 322 328 328 327 325 323 324 326 327 330 329 328 328 329 329 329 327 327 331 329 328 328 328 331 332 336 334 333 342 344 343 340 344 341 344 343 340 341 345 346
313 321 325 321 322 326 331 329 326 324 323 323 325 327 328 329 327 329 330 330 328 329 328 329 330 331 329 329 329 332 331 336 336 341 348 349 345 340 341 344 343 340 340 341 347
317 322 325 322 325 328 330 328 325 325 322 324 323 325 327 328 328 328 328 329 328 325 327 330 329 330 331 330 332 333 334 336 335 343 338 343 344 345 345 345 343 340 341 345 347
319 321 325 322 326 328 329 328 325 325 324 324 324 325 325 325 327 327 327 327 326 325 330 331 329 329 329 330 331 330 329 331 336 333 339 338 340 346 347 347 344 340 339 340 344
319 322 325 323 321 327 330 328 326 324 324 323 324 324 326 325 326 326 327 327 325 325 324 324 325 328 329 331 332 333 333 334 334 337 336 333 338 346 348 350 349 348 340 334 335
319 322 327 327 324 324 329 328 327 327 323 324 324 324 326 327 326 326 325 326 324 324 324 325 326 327 327 328 328 330 332 334 336 332 332 334 335 332 344 349 348 349 348 344 335
322 323 327 326 328 326 322 327 328 327 325 325 325 325 325 326 327 327 326 325 325 326 326 327 326 326 327 326 324 327 328 330 332 334 336 337 337 342 346 346 347 347 347 349 345
320 318 319 323 326 328 327 327 327 326 325 324 325 325 325 325 325 324 324 324 325 325 326 326 326 325 326 326 327 328 328 328 329 332 333 338 346 345 346 345 347 344 344 346 346